<?xml version="1.0" encoding="UTF-8" standalone="no" ?>
<gpx xmlns="http://www.topografix.com/GPX/1/1" xmlns:xsi="http://www.w3.org/2001/XMLSchema-instance" xsi:schemaLocation="http://www.topografix.com/GPX/1/1 http://www.topografix.com/GPX/1/1/gpx.xsd" version="1.1" creator="VisuGPX - https://www.visugpx.com">
  <metadata>
    <name>Trail du maquis 2013</name>
    <desc><![CDATA[Trail du maquis 2013]]></desc>
  </metadata>
  <trk>
    <name><![CDATA[Trail]]></name>
    <cmt><![CDATA[Trail du maquis]]></cmt>
    <trkseg>
      <trkpt lat="43.02581" lon="1.79981">
        <ele>339.00207519531</ele>
        <time>2013-02-10T08:31:46Z</time>
      </trkpt>
      <trkpt lat="43.02582" lon="1.79985">
        <ele>337.56005859375</ele>
        <time>2013-02-10T08:31:54Z</time>
      </trkpt>
      <trkpt lat="43.02584" lon="1.79993">
        <ele>336.59887695312</ele>
        <time>2013-02-10T08:32:00Z</time>
      </trkpt>
      <trkpt lat="43.02591" lon="1.79994">
        <ele>336.1181640625</ele>
        <time>2013-02-10T08:32:03Z</time>
      </trkpt>
      <trkpt lat="43.02605" lon="1.79995">
        <ele>334.67614746094</ele>
        <time>2013-02-10T08:32:08Z</time>
      </trkpt>
      <trkpt lat="43.02617" lon="1.79997">
        <ele>334.19543457031</ele>
        <time>2013-02-10T08:32:12Z</time>
      </trkpt>
      <trkpt lat="43.02628" lon="1.8">
        <ele>333.71472167969</ele>
        <time>2013-02-10T08:32:17Z</time>
      </trkpt>
      <trkpt lat="43.02639" lon="1.80002">
        <ele>333.71472167969</ele>
        <time>2013-02-10T08:32:21Z</time>
      </trkpt>
      <trkpt lat="43.02651" lon="1.80002">
        <ele>333.71472167969</ele>
        <time>2013-02-10T08:32:25Z</time>
      </trkpt>
      <trkpt lat="43.02654" lon="1.80002">
        <ele>334.67614746094</ele>
        <time>2013-02-10T08:32:26Z</time>
      </trkpt>
      <trkpt lat="43.02668" lon="1.80003">
        <ele>336.1181640625</ele>
        <time>2013-02-10T08:32:30Z</time>
      </trkpt>
      <trkpt lat="43.0268" lon="1.80005">
        <ele>336.59887695312</ele>
        <time>2013-02-10T08:32:35Z</time>
      </trkpt>
      <trkpt lat="43.02691" lon="1.80004">
        <ele>336.1181640625</ele>
        <time>2013-02-10T08:32:40Z</time>
      </trkpt>
      <trkpt lat="43.02691" lon="1.80004">
        <ele>336.59887695312</ele>
        <time>2013-02-10T08:32:41Z</time>
      </trkpt>
      <trkpt lat="43.02698" lon="1.80005">
        <ele>336.59887695312</ele>
        <time>2013-02-10T08:32:45Z</time>
      </trkpt>
      <trkpt lat="43.0271" lon="1.80005">
        <ele>337.07946777344</ele>
        <time>2013-02-10T08:32:49Z</time>
      </trkpt>
      <trkpt lat="43.02729" lon="1.80005">
        <ele>338.04077148438</ele>
        <time>2013-02-10T08:32:56Z</time>
      </trkpt>
      <trkpt lat="43.02738" lon="1.80009">
        <ele>339.96337890625</ele>
        <time>2013-02-10T08:33:00Z</time>
      </trkpt>
      <trkpt lat="43.02742" lon="1.80008">
        <ele>339.96337890625</ele>
        <time>2013-02-10T08:33:02Z</time>
      </trkpt>
      <trkpt lat="43.02747" lon="1.79991">
        <ele>336.59887695312</ele>
        <time>2013-02-10T08:33:07Z</time>
      </trkpt>
      <trkpt lat="43.02748" lon="1.79972">
        <ele>335.15673828125</ele>
        <time>2013-02-10T08:33:12Z</time>
      </trkpt>
      <trkpt lat="43.02748" lon="1.79968">
        <ele>335.15673828125</ele>
        <time>2013-02-10T08:33:13Z</time>
      </trkpt>
      <trkpt lat="43.0275" lon="1.79947">
        <ele>333.23413085938</ele>
        <time>2013-02-10T08:33:18Z</time>
      </trkpt>
      <trkpt lat="43.0275" lon="1.7993">
        <ele>331.79211425781</ele>
        <time>2013-02-10T08:33:23Z</time>
      </trkpt>
      <trkpt lat="43.0275" lon="1.79916">
        <ele>329.86950683594</ele>
        <time>2013-02-10T08:33:27Z</time>
      </trkpt>
      <trkpt lat="43.0275" lon="1.79903">
        <ele>329.38891601562</ele>
        <time>2013-02-10T08:33:31Z</time>
      </trkpt>
      <trkpt lat="43.02749" lon="1.79895">
        <ele>329.38891601562</ele>
        <time>2013-02-10T08:33:33Z</time>
      </trkpt>
      <trkpt lat="43.02751" lon="1.79873">
        <ele>330.83093261719</ele>
        <time>2013-02-10T08:33:39Z</time>
      </trkpt>
      <trkpt lat="43.02752" lon="1.79869">
        <ele>330.83093261719</ele>
        <time>2013-02-10T08:33:40Z</time>
      </trkpt>
      <trkpt lat="43.0275" lon="1.79848">
        <ele>327.94677734375</ele>
        <time>2013-02-10T08:33:46Z</time>
      </trkpt>
      <trkpt lat="43.02753" lon="1.79838">
        <ele>327.46618652344</ele>
        <time>2013-02-10T08:33:49Z</time>
      </trkpt>
      <trkpt lat="43.02758" lon="1.79808">
        <ele>326.98559570312</ele>
        <time>2013-02-10T08:33:57Z</time>
      </trkpt>
      <trkpt lat="43.02761" lon="1.79794">
        <ele>326.02416992188</ele>
        <time>2013-02-10T08:34:01Z</time>
      </trkpt>
      <trkpt lat="43.02764" lon="1.79784">
        <ele>325.06298828125</ele>
        <time>2013-02-10T08:34:04Z</time>
      </trkpt>
      <trkpt lat="43.02766" lon="1.79761">
        <ele>325.06298828125</ele>
        <time>2013-02-10T08:34:10Z</time>
      </trkpt>
      <trkpt lat="43.02766" lon="1.79741">
        <ele>326.02416992188</ele>
        <time>2013-02-10T08:34:16Z</time>
      </trkpt>
      <trkpt lat="43.02767" lon="1.79722">
        <ele>325.54357910156</ele>
        <time>2013-02-10T08:34:21Z</time>
      </trkpt>
      <trkpt lat="43.02769" lon="1.79703">
        <ele>326.02416992188</ele>
        <time>2013-02-10T08:34:26Z</time>
      </trkpt>
      <trkpt lat="43.02769" lon="1.79689">
        <ele>326.5048828125</ele>
        <time>2013-02-10T08:34:30Z</time>
      </trkpt>
      <trkpt lat="43.02771" lon="1.79668">
        <ele>326.02416992188</ele>
        <time>2013-02-10T08:34:36Z</time>
      </trkpt>
      <trkpt lat="43.02771" lon="1.79652">
        <ele>327.94677734375</ele>
        <time>2013-02-10T08:34:40Z</time>
      </trkpt>
      <trkpt lat="43.02775" lon="1.79635">
        <ele>327.46618652344</ele>
        <time>2013-02-10T08:34:45Z</time>
      </trkpt>
      <trkpt lat="43.02782" lon="1.79621">
        <ele>327.94677734375</ele>
        <time>2013-02-10T08:34:50Z</time>
      </trkpt>
      <trkpt lat="43.02789" lon="1.79609">
        <ele>327.46618652344</ele>
        <time>2013-02-10T08:34:54Z</time>
      </trkpt>
      <trkpt lat="43.02789" lon="1.79603">
        <ele>326.98559570312</ele>
        <time>2013-02-10T08:34:56Z</time>
      </trkpt>
      <trkpt lat="43.02778" lon="1.79589">
        <ele>326.5048828125</ele>
        <time>2013-02-10T08:35:02Z</time>
      </trkpt>
      <trkpt lat="43.02769" lon="1.79579">
        <ele>325.54357910156</ele>
        <time>2013-02-10T08:35:06Z</time>
      </trkpt>
      <trkpt lat="43.02759" lon="1.79567">
        <ele>325.54357910156</ele>
        <time>2013-02-10T08:35:11Z</time>
      </trkpt>
      <trkpt lat="43.0275" lon="1.79559">
        <ele>326.98559570312</ele>
        <time>2013-02-10T08:35:15Z</time>
      </trkpt>
      <trkpt lat="43.02739" lon="1.79547">
        <ele>327.94677734375</ele>
        <time>2013-02-10T08:35:20Z</time>
      </trkpt>
      <trkpt lat="43.02734" lon="1.79539">
        <ele>328.90832519531</ele>
        <time>2013-02-10T08:35:23Z</time>
      </trkpt>
      <trkpt lat="43.02729" lon="1.79533">
        <ele>328.90832519531</ele>
        <time>2013-02-10T08:35:25Z</time>
      </trkpt>
      <trkpt lat="43.02718" lon="1.79525">
        <ele>329.38891601562</ele>
        <time>2013-02-10T08:35:30Z</time>
      </trkpt>
      <trkpt lat="43.02704" lon="1.79526">
        <ele>329.38891601562</ele>
        <time>2013-02-10T08:35:34Z</time>
      </trkpt>
      <trkpt lat="43.0269" lon="1.7953">
        <ele>327.94677734375</ele>
        <time>2013-02-10T08:35:39Z</time>
      </trkpt>
      <trkpt lat="43.02677" lon="1.79534">
        <ele>325.54357910156</ele>
        <time>2013-02-10T08:35:44Z</time>
      </trkpt>
      <trkpt lat="43.02663" lon="1.7954">
        <ele>326.02416992188</ele>
        <time>2013-02-10T08:35:49Z</time>
      </trkpt>
      <trkpt lat="43.02651" lon="1.79544">
        <ele>325.06298828125</ele>
        <time>2013-02-10T08:35:54Z</time>
      </trkpt>
      <trkpt lat="43.02636" lon="1.79548">
        <ele>322.65966796875</ele>
        <time>2013-02-10T08:36:00Z</time>
      </trkpt>
      <trkpt lat="43.02625" lon="1.7955">
        <ele>323.14038085938</ele>
        <time>2013-02-10T08:36:04Z</time>
      </trkpt>
      <trkpt lat="43.02613" lon="1.79551">
        <ele>323.14038085938</ele>
        <time>2013-02-10T08:36:09Z</time>
      </trkpt>
      <trkpt lat="43.02606" lon="1.79548">
        <ele>324.1015625</ele>
        <time>2013-02-10T08:36:12Z</time>
      </trkpt>
      <trkpt lat="43.02599" lon="1.79532">
        <ele>325.54357910156</ele>
        <time>2013-02-10T08:36:17Z</time>
      </trkpt>
      <trkpt lat="43.02594" lon="1.79516">
        <ele>326.5048828125</ele>
        <time>2013-02-10T08:36:22Z</time>
      </trkpt>
      <trkpt lat="43.02588" lon="1.79501">
        <ele>328.42761230469</ele>
        <time>2013-02-10T08:36:27Z</time>
      </trkpt>
      <trkpt lat="43.02584" lon="1.79495">
        <ele>329.38891601562</ele>
        <time>2013-02-10T08:36:29Z</time>
      </trkpt>
      <trkpt lat="43.02582" lon="1.79484">
        <ele>332.75354003906</ele>
        <time>2013-02-10T08:36:33Z</time>
      </trkpt>
      <trkpt lat="43.02583" lon="1.79473">
        <ele>333.71472167969</ele>
        <time>2013-02-10T08:36:38Z</time>
      </trkpt>
      <trkpt lat="43.0258" lon="1.79462">
        <ele>333.71472167969</ele>
        <time>2013-02-10T08:36:43Z</time>
      </trkpt>
      <trkpt lat="43.02576" lon="1.79456">
        <ele>336.1181640625</ele>
        <time>2013-02-10T08:36:46Z</time>
      </trkpt>
      <trkpt lat="43.02569" lon="1.79445">
        <ele>341.4052734375</ele>
        <time>2013-02-10T08:36:51Z</time>
      </trkpt>
      <trkpt lat="43.02556" lon="1.79436">
        <ele>350.05725097656</ele>
        <time>2013-02-10T08:36:58Z</time>
      </trkpt>
      <trkpt lat="43.02551" lon="1.79431">
        <ele>353.90258789062</ele>
        <time>2013-02-10T08:37:02Z</time>
      </trkpt>
      <trkpt lat="43.02551" lon="1.79424">
        <ele>352.94116210938</ele>
        <time>2013-02-10T08:37:06Z</time>
      </trkpt>
      <trkpt lat="43.0255" lon="1.79419">
        <ele>353.421875</ele>
        <time>2013-02-10T08:37:10Z</time>
      </trkpt>
      <trkpt lat="43.02549" lon="1.79414">
        <ele>353.90258789062</ele>
        <time>2013-02-10T08:37:14Z</time>
      </trkpt>
      <trkpt lat="43.02552" lon="1.79405">
        <ele>356.30578613281</ele>
        <time>2013-02-10T08:37:21Z</time>
      </trkpt>
      <trkpt lat="43.02552" lon="1.79398">
        <ele>356.78637695312</ele>
        <time>2013-02-10T08:37:27Z</time>
      </trkpt>
      <trkpt lat="43.02548" lon="1.79386">
        <ele>357.26708984375</ele>
        <time>2013-02-10T08:37:33Z</time>
      </trkpt>
      <trkpt lat="43.02547" lon="1.79378">
        <ele>356.78637695312</ele>
        <time>2013-02-10T08:37:36Z</time>
      </trkpt>
      <trkpt lat="43.02545" lon="1.79362">
        <ele>355.34448242188</ele>
        <time>2013-02-10T08:37:42Z</time>
      </trkpt>
      <trkpt lat="43.02545" lon="1.79348">
        <ele>353.90258789062</ele>
        <time>2013-02-10T08:37:47Z</time>
      </trkpt>
      <trkpt lat="43.02545" lon="1.79344">
        <ele>352.94116210938</ele>
        <time>2013-02-10T08:37:49Z</time>
      </trkpt>
      <trkpt lat="43.02545" lon="1.7934">
        <ele>353.421875</ele>
        <time>2013-02-10T08:37:53Z</time>
      </trkpt>
      <trkpt lat="43.02542" lon="1.7933">
        <ele>355.34448242188</ele>
        <time>2013-02-10T08:37:59Z</time>
      </trkpt>
      <trkpt lat="43.02541" lon="1.79322">
        <ele>356.78637695312</ele>
        <time>2013-02-10T08:38:04Z</time>
      </trkpt>
      <trkpt lat="43.02537" lon="1.79312">
        <ele>360.15112304688</ele>
        <time>2013-02-10T08:38:11Z</time>
      </trkpt>
      <trkpt lat="43.02532" lon="1.79304">
        <ele>362.07373046875</ele>
        <time>2013-02-10T08:38:18Z</time>
      </trkpt>
      <trkpt lat="43.02529" lon="1.79299">
        <ele>363.51574707031</ele>
        <time>2013-02-10T08:38:24Z</time>
      </trkpt>
      <trkpt lat="43.02523" lon="1.79293">
        <ele>365.9189453125</ele>
        <time>2013-02-10T08:38:31Z</time>
      </trkpt>
      <trkpt lat="43.02514" lon="1.79291">
        <ele>368.80297851562</ele>
        <time>2013-02-10T08:38:39Z</time>
      </trkpt>
      <trkpt lat="43.02506" lon="1.7929">
        <ele>371.68688964844</ele>
        <time>2013-02-10T08:38:44Z</time>
      </trkpt>
      <trkpt lat="43.02497" lon="1.79288">
        <ele>374.09008789062</ele>
        <time>2013-02-10T08:38:51Z</time>
      </trkpt>
      <trkpt lat="43.02493" lon="1.79288">
        <ele>376.49353027344</ele>
        <time>2013-02-10T08:38:55Z</time>
      </trkpt>
      <trkpt lat="43.02487" lon="1.79289">
        <ele>377.93542480469</ele>
        <time>2013-02-10T08:39:00Z</time>
      </trkpt>
      <trkpt lat="43.02483" lon="1.7929">
        <ele>379.37744140625</ele>
        <time>2013-02-10T08:39:04Z</time>
      </trkpt>
      <trkpt lat="43.02481" lon="1.7929">
        <ele>380.33874511719</ele>
        <time>2013-02-10T08:39:06Z</time>
      </trkpt>
      <trkpt lat="43.02476" lon="1.7929">
        <ele>380.33874511719</ele>
        <time>2013-02-10T08:39:10Z</time>
      </trkpt>
      <trkpt lat="43.02467" lon="1.7929">
        <ele>380.81945800781</ele>
        <time>2013-02-10T08:39:17Z</time>
      </trkpt>
      <trkpt lat="43.02463" lon="1.79292">
        <ele>378.41613769531</ele>
        <time>2013-02-10T08:39:22Z</time>
      </trkpt>
      <trkpt lat="43.02456" lon="1.79294">
        <ele>376.97424316406</ele>
        <time>2013-02-10T08:39:28Z</time>
      </trkpt>
      <trkpt lat="43.02451" lon="1.79294">
        <ele>377.93542480469</ele>
        <time>2013-02-10T08:39:32Z</time>
      </trkpt>
      <trkpt lat="43.0245" lon="1.79294">
        <ele>379.37744140625</ele>
        <time>2013-02-10T08:39:33Z</time>
      </trkpt>
      <trkpt lat="43.02441" lon="1.79295">
        <ele>383.22265625</ele>
        <time>2013-02-10T08:39:39Z</time>
      </trkpt>
      <trkpt lat="43.02436" lon="1.79297">
        <ele>383.22265625</ele>
        <time>2013-02-10T08:39:44Z</time>
      </trkpt>
      <trkpt lat="43.02429" lon="1.79297">
        <ele>384.66479492188</ele>
        <time>2013-02-10T08:39:49Z</time>
      </trkpt>
      <trkpt lat="43.02425" lon="1.79301">
        <ele>385.6259765625</ele>
        <time>2013-02-10T08:39:53Z</time>
      </trkpt>
      <trkpt lat="43.02419" lon="1.79307">
        <ele>388.029296875</ele>
        <time>2013-02-10T08:39:59Z</time>
      </trkpt>
      <trkpt lat="43.02412" lon="1.79314">
        <ele>390.4326171875</ele>
        <time>2013-02-10T08:40:06Z</time>
      </trkpt>
      <trkpt lat="43.02411" lon="1.79315">
        <ele>390.91320800781</ele>
        <time>2013-02-10T08:40:07Z</time>
      </trkpt>
      <trkpt lat="43.02403" lon="1.79317">
        <ele>392.35534667969</ele>
        <time>2013-02-10T08:40:13Z</time>
      </trkpt>
      <trkpt lat="43.02395" lon="1.79318">
        <ele>392.35534667969</ele>
        <time>2013-02-10T08:40:20Z</time>
      </trkpt>
      <trkpt lat="43.02388" lon="1.79322">
        <ele>392.8359375</ele>
        <time>2013-02-10T08:40:26Z</time>
      </trkpt>
      <trkpt lat="43.02378" lon="1.79319">
        <ele>394.27795410156</ele>
        <time>2013-02-10T08:40:33Z</time>
      </trkpt>
      <trkpt lat="43.02377" lon="1.79319">
        <ele>394.75854492188</ele>
        <time>2013-02-10T08:40:34Z</time>
      </trkpt>
      <trkpt lat="43.02374" lon="1.79316">
        <ele>395.71984863281</ele>
        <time>2013-02-10T08:40:38Z</time>
      </trkpt>
      <trkpt lat="43.02371" lon="1.79312">
        <ele>395.23913574219</ele>
        <time>2013-02-10T08:40:42Z</time>
      </trkpt>
      <trkpt lat="43.02363" lon="1.79305">
        <ele>396.68115234375</ele>
        <time>2013-02-10T08:40:50Z</time>
      </trkpt>
      <trkpt lat="43.02359" lon="1.79302">
        <ele>399.08435058594</ele>
        <time>2013-02-10T08:40:56Z</time>
      </trkpt>
      <trkpt lat="43.02354" lon="1.79297">
        <ele>400.52648925781</ele>
        <time>2013-02-10T08:41:00Z</time>
      </trkpt>
      <trkpt lat="43.02341" lon="1.79286">
        <ele>402.9296875</ele>
        <time>2013-02-10T08:41:07Z</time>
      </trkpt>
      <trkpt lat="43.02332" lon="1.79279">
        <ele>404.37170410156</ele>
        <time>2013-02-10T08:41:12Z</time>
      </trkpt>
      <trkpt lat="43.02322" lon="1.79276">
        <ele>406.29431152344</ele>
        <time>2013-02-10T08:41:18Z</time>
      </trkpt>
      <trkpt lat="43.02315" lon="1.79275">
        <ele>407.25561523438</ele>
        <time>2013-02-10T08:41:22Z</time>
      </trkpt>
      <trkpt lat="43.02312" lon="1.79275">
        <ele>407.25561523438</ele>
        <time>2013-02-10T08:41:28Z</time>
      </trkpt>
      <trkpt lat="43.02309" lon="1.79276">
        <ele>407.736328125</ele>
        <time>2013-02-10T08:41:30Z</time>
      </trkpt>
      <trkpt lat="43.02301" lon="1.79277">
        <ele>408.69763183594</ele>
        <time>2013-02-10T08:41:36Z</time>
      </trkpt>
      <trkpt lat="43.02298" lon="1.79277">
        <ele>409.17834472656</ele>
        <time>2013-02-10T08:41:38Z</time>
      </trkpt>
      <trkpt lat="43.02288" lon="1.79273">
        <ele>411.10095214844</ele>
        <time>2013-02-10T08:41:46Z</time>
      </trkpt>
      <trkpt lat="43.0228" lon="1.79272">
        <ele>412.54284667969</ele>
        <time>2013-02-10T08:41:52Z</time>
      </trkpt>
      <trkpt lat="43.02274" lon="1.79271">
        <ele>412.54284667969</ele>
        <time>2013-02-10T08:41:58Z</time>
      </trkpt>
      <trkpt lat="43.02267" lon="1.79271">
        <ele>413.02355957031</ele>
        <time>2013-02-10T08:42:04Z</time>
      </trkpt>
      <trkpt lat="43.02263" lon="1.7927">
        <ele>413.98486328125</ele>
        <time>2013-02-10T08:42:07Z</time>
      </trkpt>
      <trkpt lat="43.02256" lon="1.79272">
        <ele>415.42687988281</ele>
        <time>2013-02-10T08:42:13Z</time>
      </trkpt>
      <trkpt lat="43.02247" lon="1.79272">
        <ele>415.90747070312</ele>
        <time>2013-02-10T08:42:20Z</time>
      </trkpt>
      <trkpt lat="43.02237" lon="1.7927">
        <ele>416.86889648438</ele>
        <time>2013-02-10T08:42:28Z</time>
      </trkpt>
      <trkpt lat="43.02236" lon="1.79269">
        <ele>416.86889648438</ele>
        <time>2013-02-10T08:42:29Z</time>
      </trkpt>
      <trkpt lat="43.02233" lon="1.79269">
        <ele>416.86889648438</ele>
        <time>2013-02-10T08:42:34Z</time>
      </trkpt>
      <trkpt lat="43.02221" lon="1.79269">
        <ele>416.86889648438</ele>
        <time>2013-02-10T08:42:40Z</time>
      </trkpt>
      <trkpt lat="43.0221" lon="1.79272">
        <ele>416.86889648438</ele>
        <time>2013-02-10T08:42:45Z</time>
      </trkpt>
      <trkpt lat="43.02201" lon="1.7927">
        <ele>417.349609375</ele>
        <time>2013-02-10T08:42:49Z</time>
      </trkpt>
      <trkpt lat="43.0219" lon="1.79266">
        <ele>419.27221679688</ele>
        <time>2013-02-10T08:42:55Z</time>
      </trkpt>
      <trkpt lat="43.02184" lon="1.79264">
        <ele>421.19482421875</ele>
        <time>2013-02-10T08:43:00Z</time>
      </trkpt>
      <trkpt lat="43.02179" lon="1.79255">
        <ele>423.11743164062</ele>
        <time>2013-02-10T08:43:07Z</time>
      </trkpt>
      <trkpt lat="43.02179" lon="1.79245">
        <ele>424.55944824219</ele>
        <time>2013-02-10T08:43:13Z</time>
      </trkpt>
      <trkpt lat="43.02179" lon="1.7924">
        <ele>425.52075195312</ele>
        <time>2013-02-10T08:43:16Z</time>
      </trkpt>
      <trkpt lat="43.02179" lon="1.79227">
        <ele>426.48205566406</ele>
        <time>2013-02-10T08:43:25Z</time>
      </trkpt>
      <trkpt lat="43.0218" lon="1.79222">
        <ele>427.443359375</ele>
        <time>2013-02-10T08:43:28Z</time>
      </trkpt>
      <trkpt lat="43.0218" lon="1.79216">
        <ele>428.40466308594</ele>
        <time>2013-02-10T08:43:32Z</time>
      </trkpt>
      <trkpt lat="43.02181" lon="1.79208">
        <ele>428.40466308594</ele>
        <time>2013-02-10T08:43:36Z</time>
      </trkpt>
      <trkpt lat="43.02182" lon="1.79197">
        <ele>427.92395019531</ele>
        <time>2013-02-10T08:43:43Z</time>
      </trkpt>
      <trkpt lat="43.02184" lon="1.79188">
        <ele>427.443359375</ele>
        <time>2013-02-10T08:43:48Z</time>
      </trkpt>
      <trkpt lat="43.02184" lon="1.79187">
        <ele>427.92395019531</ele>
        <time>2013-02-10T08:43:49Z</time>
      </trkpt>
      <trkpt lat="43.0219" lon="1.79174">
        <ele>429.36596679688</ele>
        <time>2013-02-10T08:43:58Z</time>
      </trkpt>
      <trkpt lat="43.0219" lon="1.79173">
        <ele>429.84655761719</ele>
        <time>2013-02-10T08:43:59Z</time>
      </trkpt>
      <trkpt lat="43.02194" lon="1.79165">
        <ele>430.80798339844</ele>
        <time>2013-02-10T08:44:05Z</time>
      </trkpt>
      <trkpt lat="43.02196" lon="1.79159">
        <ele>431.76916503906</ele>
        <time>2013-02-10T08:44:10Z</time>
      </trkpt>
      <trkpt lat="43.02198" lon="1.79151">
        <ele>433.21130371094</ele>
        <time>2013-02-10T08:44:15Z</time>
      </trkpt>
      <trkpt lat="43.02198" lon="1.79148">
        <ele>434.6533203125</ele>
        <time>2013-02-10T08:44:18Z</time>
      </trkpt>
      <trkpt lat="43.02201" lon="1.7914">
        <ele>437.05651855469</ele>
        <time>2013-02-10T08:44:25Z</time>
      </trkpt>
      <trkpt lat="43.02203" lon="1.7913">
        <ele>438.49853515625</ele>
        <time>2013-02-10T08:44:32Z</time>
      </trkpt>
      <trkpt lat="43.02204" lon="1.79121">
        <ele>438.97912597656</ele>
        <time>2013-02-10T08:44:38Z</time>
      </trkpt>
      <trkpt lat="43.02204" lon="1.79112">
        <ele>439.45971679688</ele>
        <time>2013-02-10T08:44:46Z</time>
      </trkpt>
      <trkpt lat="43.02204" lon="1.79107">
        <ele>439.9404296875</ele>
        <time>2013-02-10T08:44:51Z</time>
      </trkpt>
      <trkpt lat="43.02205" lon="1.79101">
        <ele>440.90185546875</ele>
        <time>2013-02-10T08:44:56Z</time>
      </trkpt>
      <trkpt lat="43.02206" lon="1.79096">
        <ele>442.34387207031</ele>
        <time>2013-02-10T08:45:01Z</time>
      </trkpt>
      <trkpt lat="43.02207" lon="1.79088">
        <ele>443.30505371094</ele>
        <time>2013-02-10T08:45:07Z</time>
      </trkpt>
      <trkpt lat="43.02209" lon="1.79079">
        <ele>442.82446289062</ele>
        <time>2013-02-10T08:45:14Z</time>
      </trkpt>
      <trkpt lat="43.02211" lon="1.7907">
        <ele>445.70837402344</ele>
        <time>2013-02-10T08:45:21Z</time>
      </trkpt>
      <trkpt lat="43.02211" lon="1.79066">
        <ele>446.66967773438</ele>
        <time>2013-02-10T08:45:23Z</time>
      </trkpt>
      <trkpt lat="43.02211" lon="1.79055">
        <ele>447.63098144531</ele>
        <time>2013-02-10T08:45:29Z</time>
      </trkpt>
      <trkpt lat="43.02211" lon="1.79051">
        <ele>449.5537109375</ele>
        <time>2013-02-10T08:45:33Z</time>
      </trkpt>
      <trkpt lat="43.02212" lon="1.79047">
        <ele>450.99560546875</ele>
        <time>2013-02-10T08:45:38Z</time>
      </trkpt>
      <trkpt lat="43.02211" lon="1.79038">
        <ele>453.39892578125</ele>
        <time>2013-02-10T08:45:44Z</time>
      </trkpt>
      <trkpt lat="43.02211" lon="1.79032">
        <ele>455.80224609375</ele>
        <time>2013-02-10T08:45:49Z</time>
      </trkpt>
      <trkpt lat="43.02208" lon="1.79024">
        <ele>458.68615722656</ele>
        <time>2013-02-10T08:45:55Z</time>
      </trkpt>
      <trkpt lat="43.02207" lon="1.7902">
        <ele>460.12817382812</ele>
        <time>2013-02-10T08:45:58Z</time>
      </trkpt>
      <trkpt lat="43.02203" lon="1.79013">
        <ele>463.01208496094</ele>
        <time>2013-02-10T08:46:04Z</time>
      </trkpt>
      <trkpt lat="43.02201" lon="1.79006">
        <ele>464.4541015625</ele>
        <time>2013-02-10T08:46:10Z</time>
      </trkpt>
      <trkpt lat="43.02195" lon="1.78991">
        <ele>465.41552734375</ele>
        <time>2013-02-10T08:46:18Z</time>
      </trkpt>
      <trkpt lat="43.0219" lon="1.7898">
        <ele>466.857421875</ele>
        <time>2013-02-10T08:46:23Z</time>
      </trkpt>
      <trkpt lat="43.02184" lon="1.78967">
        <ele>466.37670898438</ele>
        <time>2013-02-10T08:46:29Z</time>
      </trkpt>
      <trkpt lat="43.02175" lon="1.78955">
        <ele>467.81872558594</ele>
        <time>2013-02-10T08:46:35Z</time>
      </trkpt>
      <trkpt lat="43.02169" lon="1.78949">
        <ele>469.2607421875</ele>
        <time>2013-02-10T08:46:40Z</time>
      </trkpt>
      <trkpt lat="43.0216" lon="1.78941">
        <ele>474.06726074219</ele>
        <time>2013-02-10T08:46:47Z</time>
      </trkpt>
      <trkpt lat="43.02155" lon="1.78935">
        <ele>475.50927734375</ele>
        <time>2013-02-10T08:46:53Z</time>
      </trkpt>
      <trkpt lat="43.02151" lon="1.78933">
        <ele>476.47058105469</ele>
        <time>2013-02-10T08:46:55Z</time>
      </trkpt>
      <trkpt lat="43.02147" lon="1.7893">
        <ele>478.39318847656</ele>
        <time>2013-02-10T08:46:59Z</time>
      </trkpt>
      <trkpt lat="43.02143" lon="1.78926">
        <ele>477.91247558594</ele>
        <time>2013-02-10T08:47:04Z</time>
      </trkpt>
      <trkpt lat="43.02135" lon="1.78921">
        <ele>480.79663085938</ele>
        <time>2013-02-10T08:47:11Z</time>
      </trkpt>
      <trkpt lat="43.02131" lon="1.78918">
        <ele>481.27722167969</ele>
        <time>2013-02-10T08:47:14Z</time>
      </trkpt>
      <trkpt lat="43.02124" lon="1.78913">
        <ele>480.79663085938</ele>
        <time>2013-02-10T08:47:19Z</time>
      </trkpt>
      <trkpt lat="43.02113" lon="1.78907">
        <ele>481.7578125</ele>
        <time>2013-02-10T08:47:26Z</time>
      </trkpt>
      <trkpt lat="43.02108" lon="1.78902">
        <ele>482.23852539062</ele>
        <time>2013-02-10T08:47:31Z</time>
      </trkpt>
      <trkpt lat="43.02103" lon="1.78897">
        <ele>481.7578125</ele>
        <time>2013-02-10T08:47:37Z</time>
      </trkpt>
      <trkpt lat="43.02097" lon="1.78891">
        <ele>483.19982910156</ele>
        <time>2013-02-10T08:47:42Z</time>
      </trkpt>
      <trkpt lat="43.02092" lon="1.78883">
        <ele>483.19982910156</ele>
        <time>2013-02-10T08:47:48Z</time>
      </trkpt>
      <trkpt lat="43.0209" lon="1.78879">
        <ele>482.71923828125</ele>
        <time>2013-02-10T08:47:51Z</time>
      </trkpt>
      <trkpt lat="43.02088" lon="1.78872">
        <ele>481.27722167969</ele>
        <time>2013-02-10T08:47:55Z</time>
      </trkpt>
      <trkpt lat="43.02087" lon="1.78863">
        <ele>478.87390136719</ele>
        <time>2013-02-10T08:48:00Z</time>
      </trkpt>
      <trkpt lat="43.02085" lon="1.78853">
        <ele>477.43188476562</ele>
        <time>2013-02-10T08:48:06Z</time>
      </trkpt>
      <trkpt lat="43.02082" lon="1.78844">
        <ele>477.91247558594</ele>
        <time>2013-02-10T08:48:10Z</time>
      </trkpt>
      <trkpt lat="43.02081" lon="1.78832">
        <ele>477.91247558594</ele>
        <time>2013-02-10T08:48:16Z</time>
      </trkpt>
      <trkpt lat="43.02082" lon="1.78821">
        <ele>479.3544921875</ele>
        <time>2013-02-10T08:48:23Z</time>
      </trkpt>
      <trkpt lat="43.02082" lon="1.78809">
        <ele>478.87390136719</ele>
        <time>2013-02-10T08:48:28Z</time>
      </trkpt>
      <trkpt lat="43.02084" lon="1.78796">
        <ele>479.3544921875</ele>
        <time>2013-02-10T08:48:32Z</time>
      </trkpt>
      <trkpt lat="43.02086" lon="1.7879">
        <ele>478.87390136719</ele>
        <time>2013-02-10T08:48:34Z</time>
      </trkpt>
      <trkpt lat="43.02095" lon="1.78767">
        <ele>475.98986816406</ele>
        <time>2013-02-10T08:48:41Z</time>
      </trkpt>
      <trkpt lat="43.02102" lon="1.7875">
        <ele>473.58666992188</ele>
        <time>2013-02-10T08:48:46Z</time>
      </trkpt>
      <trkpt lat="43.02107" lon="1.7873">
        <ele>472.62536621094</ele>
        <time>2013-02-10T08:48:51Z</time>
      </trkpt>
      <trkpt lat="43.02109" lon="1.78711">
        <ele>473.10607910156</ele>
        <time>2013-02-10T08:48:56Z</time>
      </trkpt>
      <trkpt lat="43.0211" lon="1.78708">
        <ele>473.58666992188</ele>
        <time>2013-02-10T08:48:58Z</time>
      </trkpt>
      <trkpt lat="43.02108" lon="1.78697">
        <ele>474.54797363281</ele>
        <time>2013-02-10T08:49:04Z</time>
      </trkpt>
      <trkpt lat="43.02109" lon="1.78677">
        <ele>474.06726074219</ele>
        <time>2013-02-10T08:49:09Z</time>
      </trkpt>
      <trkpt lat="43.02104" lon="1.78659">
        <ele>475.02868652344</ele>
        <time>2013-02-10T08:49:14Z</time>
      </trkpt>
      <trkpt lat="43.02101" lon="1.78639">
        <ele>475.02868652344</ele>
        <time>2013-02-10T08:49:19Z</time>
      </trkpt>
      <trkpt lat="43.021" lon="1.78622">
        <ele>473.58666992188</ele>
        <time>2013-02-10T08:49:24Z</time>
      </trkpt>
      <trkpt lat="43.02097" lon="1.78599">
        <ele>473.10607910156</ele>
        <time>2013-02-10T08:49:30Z</time>
      </trkpt>
      <trkpt lat="43.02096" lon="1.78582">
        <ele>472.14465332031</ele>
        <time>2013-02-10T08:49:35Z</time>
      </trkpt>
      <trkpt lat="43.02096" lon="1.78578">
        <ele>471.66394042969</ele>
        <time>2013-02-10T08:49:36Z</time>
      </trkpt>
      <trkpt lat="43.02097" lon="1.78563">
        <ele>470.70263671875</ele>
        <time>2013-02-10T08:49:41Z</time>
      </trkpt>
      <trkpt lat="43.02096" lon="1.78548">
        <ele>469.2607421875</ele>
        <time>2013-02-10T08:49:46Z</time>
      </trkpt>
      <trkpt lat="43.02091" lon="1.78531">
        <ele>466.857421875</ele>
        <time>2013-02-10T08:49:51Z</time>
      </trkpt>
      <trkpt lat="43.02084" lon="1.78515">
        <ele>465.41552734375</ele>
        <time>2013-02-10T08:49:56Z</time>
      </trkpt>
      <trkpt lat="43.02081" lon="1.78507">
        <ele>465.41552734375</ele>
        <time>2013-02-10T08:49:59Z</time>
      </trkpt>
      <trkpt lat="43.02076" lon="1.78495">
        <ele>467.33813476562</ele>
        <time>2013-02-10T08:50:04Z</time>
      </trkpt>
      <trkpt lat="43.02069" lon="1.78483">
        <ele>468.29931640625</ele>
        <time>2013-02-10T08:50:09Z</time>
      </trkpt>
      <trkpt lat="43.02062" lon="1.78474">
        <ele>469.74133300781</ele>
        <time>2013-02-10T08:50:14Z</time>
      </trkpt>
      <trkpt lat="43.02054" lon="1.78464">
        <ele>471.18334960938</ele>
        <time>2013-02-10T08:50:19Z</time>
      </trkpt>
      <trkpt lat="43.02044" lon="1.78455">
        <ele>471.66394042969</ele>
        <time>2013-02-10T08:50:24Z</time>
      </trkpt>
      <trkpt lat="43.02032" lon="1.78452">
        <ele>472.14465332031</ele>
        <time>2013-02-10T08:50:28Z</time>
      </trkpt>
      <trkpt lat="43.02021" lon="1.78452">
        <ele>471.18334960938</ele>
        <time>2013-02-10T08:50:32Z</time>
      </trkpt>
      <trkpt lat="43.02016" lon="1.78454">
        <ele>471.18334960938</ele>
        <time>2013-02-10T08:50:34Z</time>
      </trkpt>
      <trkpt lat="43.02005" lon="1.78454">
        <ele>470.22192382812</ele>
        <time>2013-02-10T08:50:38Z</time>
      </trkpt>
      <trkpt lat="43.02" lon="1.78455">
        <ele>469.2607421875</ele>
        <time>2013-02-10T08:50:40Z</time>
      </trkpt>
      <trkpt lat="43.01991" lon="1.78459">
        <ele>467.81872558594</ele>
        <time>2013-02-10T08:50:44Z</time>
      </trkpt>
      <trkpt lat="43.0198" lon="1.7846">
        <ele>466.37670898438</ele>
        <time>2013-02-10T08:50:48Z</time>
      </trkpt>
      <trkpt lat="43.01969" lon="1.78464">
        <ele>463.97338867188</ele>
        <time>2013-02-10T08:50:53Z</time>
      </trkpt>
      <trkpt lat="43.0196" lon="1.78464">
        <ele>463.49279785156</ele>
        <time>2013-02-10T08:50:57Z</time>
      </trkpt>
      <trkpt lat="43.01952" lon="1.78468">
        <ele>463.49279785156</ele>
        <time>2013-02-10T08:51:01Z</time>
      </trkpt>
      <trkpt lat="43.01943" lon="1.78471">
        <ele>463.01208496094</ele>
        <time>2013-02-10T08:51:05Z</time>
      </trkpt>
      <trkpt lat="43.01939" lon="1.78474">
        <ele>463.01208496094</ele>
        <time>2013-02-10T08:51:08Z</time>
      </trkpt>
      <trkpt lat="43.01931" lon="1.78477">
        <ele>463.49279785156</ele>
        <time>2013-02-10T08:51:12Z</time>
      </trkpt>
      <trkpt lat="43.01929" lon="1.78477">
        <ele>463.97338867188</ele>
        <time>2013-02-10T08:51:13Z</time>
      </trkpt>
      <trkpt lat="43.01921" lon="1.78481">
        <ele>463.97338867188</ele>
        <time>2013-02-10T08:51:18Z</time>
      </trkpt>
      <trkpt lat="43.01913" lon="1.78487">
        <ele>464.4541015625</ele>
        <time>2013-02-10T08:51:23Z</time>
      </trkpt>
      <trkpt lat="43.0191" lon="1.78489">
        <ele>464.4541015625</ele>
        <time>2013-02-10T08:51:25Z</time>
      </trkpt>
      <trkpt lat="43.01904" lon="1.78486">
        <ele>464.4541015625</ele>
        <time>2013-02-10T08:51:29Z</time>
      </trkpt>
      <trkpt lat="43.01903" lon="1.78485">
        <ele>464.4541015625</ele>
        <time>2013-02-10T08:51:31Z</time>
      </trkpt>
      <trkpt lat="43.01899" lon="1.78479">
        <ele>466.37670898438</ele>
        <time>2013-02-10T08:51:37Z</time>
      </trkpt>
      <trkpt lat="43.01895" lon="1.78475">
        <ele>466.37670898438</ele>
        <time>2013-02-10T08:51:43Z</time>
      </trkpt>
      <trkpt lat="43.01889" lon="1.78473">
        <ele>468.29931640625</ele>
        <time>2013-02-10T08:51:50Z</time>
      </trkpt>
      <trkpt lat="43.01883" lon="1.78475">
        <ele>468.29931640625</ele>
        <time>2013-02-10T08:51:56Z</time>
      </trkpt>
      <trkpt lat="43.01881" lon="1.78475">
        <ele>468.78002929688</ele>
        <time>2013-02-10T08:51:57Z</time>
      </trkpt>
      <trkpt lat="43.01878" lon="1.78476">
        <ele>469.2607421875</ele>
        <time>2013-02-10T08:52:01Z</time>
      </trkpt>
      <trkpt lat="43.01868" lon="1.78474">
        <ele>471.66394042969</ele>
        <time>2013-02-10T08:52:08Z</time>
      </trkpt>
      <trkpt lat="43.01859" lon="1.78471">
        <ele>473.58666992188</ele>
        <time>2013-02-10T08:52:16Z</time>
      </trkpt>
      <trkpt lat="43.01851" lon="1.7847">
        <ele>474.06726074219</ele>
        <time>2013-02-10T08:52:24Z</time>
      </trkpt>
      <trkpt lat="43.01845" lon="1.78469">
        <ele>474.06726074219</ele>
        <time>2013-02-10T08:52:30Z</time>
      </trkpt>
      <trkpt lat="43.01837" lon="1.78468">
        <ele>475.02868652344</ele>
        <time>2013-02-10T08:52:37Z</time>
      </trkpt>
      <trkpt lat="43.01829" lon="1.78467">
        <ele>477.43188476562</ele>
        <time>2013-02-10T08:52:44Z</time>
      </trkpt>
      <trkpt lat="43.01828" lon="1.78468">
        <ele>476.95129394531</ele>
        <time>2013-02-10T08:52:46Z</time>
      </trkpt>
      <trkpt lat="43.01821" lon="1.78466">
        <ele>475.98986816406</ele>
        <time>2013-02-10T08:52:53Z</time>
      </trkpt>
      <trkpt lat="43.01815" lon="1.78463">
        <ele>477.43188476562</ele>
        <time>2013-02-10T08:52:59Z</time>
      </trkpt>
      <trkpt lat="43.01806" lon="1.78461">
        <ele>478.39318847656</ele>
        <time>2013-02-10T08:53:08Z</time>
      </trkpt>
      <trkpt lat="43.01804" lon="1.7846">
        <ele>479.3544921875</ele>
        <time>2013-02-10T08:53:10Z</time>
      </trkpt>
      <trkpt lat="43.01796" lon="1.7846">
        <ele>480.79663085938</ele>
        <time>2013-02-10T08:53:18Z</time>
      </trkpt>
      <trkpt lat="43.01788" lon="1.78457">
        <ele>482.71923828125</ele>
        <time>2013-02-10T08:53:25Z</time>
      </trkpt>
      <trkpt lat="43.0178" lon="1.78457">
        <ele>482.71923828125</ele>
        <time>2013-02-10T08:53:34Z</time>
      </trkpt>
      <trkpt lat="43.01771" lon="1.78457">
        <ele>483.68041992188</ele>
        <time>2013-02-10T08:53:44Z</time>
      </trkpt>
      <trkpt lat="43.01767" lon="1.78455">
        <ele>487.04504394531</ele>
        <time>2013-02-10T08:53:46Z</time>
      </trkpt>
      <trkpt lat="43.01762" lon="1.7845">
        <ele>490.89038085938</ele>
        <time>2013-02-10T08:53:50Z</time>
      </trkpt>
      <trkpt lat="43.0176" lon="1.78442">
        <ele>493.77429199219</ele>
        <time>2013-02-10T08:53:55Z</time>
      </trkpt>
      <trkpt lat="43.01757" lon="1.78435">
        <ele>494.73559570312</ele>
        <time>2013-02-10T08:54:01Z</time>
      </trkpt>
      <trkpt lat="43.01752" lon="1.78425">
        <ele>496.177734375</ele>
        <time>2013-02-10T08:54:10Z</time>
      </trkpt>
      <trkpt lat="43.01747" lon="1.78419">
        <ele>499.0615234375</ele>
        <time>2013-02-10T08:54:17Z</time>
      </trkpt>
      <trkpt lat="43.01743" lon="1.78415">
        <ele>501.46484375</ele>
        <time>2013-02-10T08:54:21Z</time>
      </trkpt>
      <trkpt lat="43.01737" lon="1.78413">
        <ele>503.38745117188</ele>
        <time>2013-02-10T08:54:27Z</time>
      </trkpt>
      <trkpt lat="43.01731" lon="1.7841">
        <ele>505.79089355469</ele>
        <time>2013-02-10T08:54:32Z</time>
      </trkpt>
      <trkpt lat="43.01723" lon="1.78412">
        <ele>505.31018066406</ele>
        <time>2013-02-10T08:54:41Z</time>
      </trkpt>
      <trkpt lat="43.01722" lon="1.78413">
        <ele>505.79089355469</ele>
        <time>2013-02-10T08:54:42Z</time>
      </trkpt>
      <trkpt lat="43.01717" lon="1.78416">
        <ele>506.271484375</ele>
        <time>2013-02-10T08:54:46Z</time>
      </trkpt>
      <trkpt lat="43.01712" lon="1.78416">
        <ele>507.23278808594</ele>
        <time>2013-02-10T08:54:50Z</time>
      </trkpt>
      <trkpt lat="43.01709" lon="1.78414">
        <ele>507.71350097656</ele>
        <time>2013-02-10T08:54:54Z</time>
      </trkpt>
      <trkpt lat="43.01704" lon="1.78411">
        <ele>509.15539550781</ele>
        <time>2013-02-10T08:55:01Z</time>
      </trkpt>
      <trkpt lat="43.01699" lon="1.78405">
        <ele>510.59729003906</ele>
        <time>2013-02-10T08:55:07Z</time>
      </trkpt>
      <trkpt lat="43.01694" lon="1.78397">
        <ele>513.00073242188</ele>
        <time>2013-02-10T08:55:13Z</time>
      </trkpt>
      <trkpt lat="43.0169" lon="1.78392">
        <ele>513.4814453125</ele>
        <time>2013-02-10T08:55:17Z</time>
      </trkpt>
      <trkpt lat="43.01687" lon="1.78388">
        <ele>513.96203613281</ele>
        <time>2013-02-10T08:55:19Z</time>
      </trkpt>
      <trkpt lat="43.01679" lon="1.78384">
        <ele>515.40405273438</ele>
        <time>2013-02-10T08:55:26Z</time>
      </trkpt>
      <trkpt lat="43.01675" lon="1.78383">
        <ele>514.44262695312</ele>
        <time>2013-02-10T08:55:31Z</time>
      </trkpt>
      <trkpt lat="43.01669" lon="1.7838">
        <ele>513.00073242188</ele>
        <time>2013-02-10T08:55:39Z</time>
      </trkpt>
      <trkpt lat="43.01663" lon="1.7838">
        <ele>510.59729003906</ele>
        <time>2013-02-10T08:55:46Z</time>
      </trkpt>
      <trkpt lat="43.01658" lon="1.78384">
        <ele>508.67468261719</ele>
        <time>2013-02-10T08:55:52Z</time>
      </trkpt>
      <trkpt lat="43.01654" lon="1.78388">
        <ele>506.75207519531</ele>
        <time>2013-02-10T08:55:57Z</time>
      </trkpt>
      <trkpt lat="43.01652" lon="1.78389">
        <ele>506.271484375</ele>
        <time>2013-02-10T08:55:59Z</time>
      </trkpt>
      <trkpt lat="43.01646" lon="1.78392">
        <ele>506.75207519531</ele>
        <time>2013-02-10T08:56:05Z</time>
      </trkpt>
      <trkpt lat="43.01638" lon="1.78395">
        <ele>506.75207519531</ele>
        <time>2013-02-10T08:56:12Z</time>
      </trkpt>
      <trkpt lat="43.01633" lon="1.78397">
        <ele>506.271484375</ele>
        <time>2013-02-10T08:56:17Z</time>
      </trkpt>
      <trkpt lat="43.01624" lon="1.78397">
        <ele>512.03942871094</ele>
        <time>2013-02-10T08:56:22Z</time>
      </trkpt>
      <trkpt lat="43.01617" lon="1.78402">
        <ele>512.03942871094</ele>
        <time>2013-02-10T08:56:26Z</time>
      </trkpt>
      <trkpt lat="43.0161" lon="1.78404">
        <ele>512.52001953125</ele>
        <time>2013-02-10T08:56:31Z</time>
      </trkpt>
      <trkpt lat="43.016" lon="1.7841">
        <ele>514.44262695312</ele>
        <time>2013-02-10T08:56:35Z</time>
      </trkpt>
      <trkpt lat="43.01597" lon="1.78411">
        <ele>516.365234375</ele>
        <time>2013-02-10T08:56:37Z</time>
      </trkpt>
      <trkpt lat="43.01593" lon="1.7841">
        <ele>515.88464355469</ele>
        <time>2013-02-10T08:56:40Z</time>
      </trkpt>
      <trkpt lat="43.01588" lon="1.78408">
        <ele>515.40405273438</ele>
        <time>2013-02-10T08:56:42Z</time>
      </trkpt>
      <trkpt lat="43.01575" lon="1.78401">
        <ele>513.4814453125</ele>
        <time>2013-02-10T08:56:47Z</time>
      </trkpt>
      <trkpt lat="43.01568" lon="1.78393">
        <ele>514.44262695312</ele>
        <time>2013-02-10T08:56:50Z</time>
      </trkpt>
      <trkpt lat="43.01549" lon="1.78382">
        <ele>516.84594726562</ele>
        <time>2013-02-10T08:56:57Z</time>
      </trkpt>
      <trkpt lat="43.01539" lon="1.78376">
        <ele>514.92333984375</ele>
        <time>2013-02-10T08:57:01Z</time>
      </trkpt>
      <trkpt lat="43.01524" lon="1.78364">
        <ele>510.59729003906</ele>
        <time>2013-02-10T08:57:07Z</time>
      </trkpt>
      <trkpt lat="43.01514" lon="1.78356">
        <ele>508.67468261719</ele>
        <time>2013-02-10T08:57:11Z</time>
      </trkpt>
      <trkpt lat="43.01505" lon="1.78348">
        <ele>507.23278808594</ele>
        <time>2013-02-10T08:57:15Z</time>
      </trkpt>
      <trkpt lat="43.01503" lon="1.78345">
        <ele>507.23278808594</ele>
        <time>2013-02-10T08:57:16Z</time>
      </trkpt>
      <trkpt lat="43.0149" lon="1.78334">
        <ele>508.67468261719</ele>
        <time>2013-02-10T08:57:21Z</time>
      </trkpt>
      <trkpt lat="43.01482" lon="1.78329">
        <ele>508.67468261719</ele>
        <time>2013-02-10T08:57:24Z</time>
      </trkpt>
      <trkpt lat="43.01477" lon="1.78326">
        <ele>509.15539550781</ele>
        <time>2013-02-10T08:57:26Z</time>
      </trkpt>
      <trkpt lat="43.01471" lon="1.7832">
        <ele>511.07800292969</ele>
        <time>2013-02-10T08:57:30Z</time>
      </trkpt>
      <trkpt lat="43.01462" lon="1.78312">
        <ele>512.52001953125</ele>
        <time>2013-02-10T08:57:34Z</time>
      </trkpt>
      <trkpt lat="43.01454" lon="1.78305">
        <ele>512.03942871094</ele>
        <time>2013-02-10T08:57:39Z</time>
      </trkpt>
      <trkpt lat="43.01451" lon="1.78302">
        <ele>512.03942871094</ele>
        <time>2013-02-10T08:57:41Z</time>
      </trkpt>
      <trkpt lat="43.01448" lon="1.78298">
        <ele>512.52001953125</ele>
        <time>2013-02-10T08:57:43Z</time>
      </trkpt>
      <trkpt lat="43.01444" lon="1.78296">
        <ele>513.4814453125</ele>
        <time>2013-02-10T08:57:45Z</time>
      </trkpt>
      <trkpt lat="43.01437" lon="1.78289">
        <ele>514.44262695312</ele>
        <time>2013-02-10T08:57:49Z</time>
      </trkpt>
      <trkpt lat="43.01424" lon="1.78279">
        <ele>518.28784179688</ele>
        <time>2013-02-10T08:57:56Z</time>
      </trkpt>
      <trkpt lat="43.01421" lon="1.78275">
        <ele>519.24926757812</ele>
        <time>2013-02-10T08:58:00Z</time>
      </trkpt>
      <trkpt lat="43.01416" lon="1.78263">
        <ele>520.21057128906</ele>
        <time>2013-02-10T08:58:08Z</time>
      </trkpt>
      <trkpt lat="43.01412" lon="1.78251">
        <ele>520.69128417969</ele>
        <time>2013-02-10T08:58:13Z</time>
      </trkpt>
      <trkpt lat="43.01408" lon="1.78237">
        <ele>521.17199707031</ele>
        <time>2013-02-10T08:58:17Z</time>
      </trkpt>
      <trkpt lat="43.01403" lon="1.78227">
        <ele>522.13317871094</ele>
        <time>2013-02-10T08:58:21Z</time>
      </trkpt>
      <trkpt lat="43.014" lon="1.78218">
        <ele>522.13317871094</ele>
        <time>2013-02-10T08:58:27Z</time>
      </trkpt>
      <trkpt lat="43.01399" lon="1.78214">
        <ele>521.65258789062</ele>
        <time>2013-02-10T08:58:30Z</time>
      </trkpt>
      <trkpt lat="43.01394" lon="1.78201">
        <ele>521.17199707031</ele>
        <time>2013-02-10T08:58:36Z</time>
      </trkpt>
      <trkpt lat="43.01389" lon="1.78187">
        <ele>521.65258789062</ele>
        <time>2013-02-10T08:58:41Z</time>
      </trkpt>
      <trkpt lat="43.01389" lon="1.78184">
        <ele>522.13317871094</ele>
        <time>2013-02-10T08:58:42Z</time>
      </trkpt>
      <trkpt lat="43.01382" lon="1.78172">
        <ele>522.61389160156</ele>
        <time>2013-02-10T08:58:47Z</time>
      </trkpt>
      <trkpt lat="43.01374" lon="1.78164">
        <ele>520.69128417969</ele>
        <time>2013-02-10T08:58:53Z</time>
      </trkpt>
      <trkpt lat="43.01363" lon="1.78152">
        <ele>516.365234375</ele>
        <time>2013-02-10T08:58:59Z</time>
      </trkpt>
      <trkpt lat="43.01353" lon="1.78143">
        <ele>513.96203613281</ele>
        <time>2013-02-10T08:59:03Z</time>
      </trkpt>
      <trkpt lat="43.01343" lon="1.78139">
        <ele>512.03942871094</ele>
        <time>2013-02-10T08:59:07Z</time>
      </trkpt>
      <trkpt lat="43.0134" lon="1.78138">
        <ele>511.55871582031</ele>
        <time>2013-02-10T08:59:08Z</time>
      </trkpt>
      <trkpt lat="43.0133" lon="1.78131">
        <ele>507.71350097656</ele>
        <time>2013-02-10T08:59:13Z</time>
      </trkpt>
      <trkpt lat="43.01316" lon="1.78125">
        <ele>505.79089355469</ele>
        <time>2013-02-10T08:59:18Z</time>
      </trkpt>
      <trkpt lat="43.01304" lon="1.78129">
        <ele>504.82946777344</ele>
        <time>2013-02-10T08:59:22Z</time>
      </trkpt>
      <trkpt lat="43.01291" lon="1.78132">
        <ele>503.8681640625</ele>
        <time>2013-02-10T08:59:27Z</time>
      </trkpt>
      <trkpt lat="43.01281" lon="1.78127">
        <ele>503.38745117188</ele>
        <time>2013-02-10T08:59:31Z</time>
      </trkpt>
      <trkpt lat="43.01271" lon="1.78124">
        <ele>501.94555664062</ele>
        <time>2013-02-10T08:59:35Z</time>
      </trkpt>
      <trkpt lat="43.01261" lon="1.78119">
        <ele>501.46484375</ele>
        <time>2013-02-10T08:59:39Z</time>
      </trkpt>
      <trkpt lat="43.01258" lon="1.78118">
        <ele>501.94555664062</ele>
        <time>2013-02-10T08:59:40Z</time>
      </trkpt>
      <trkpt lat="43.01241" lon="1.78112">
        <ele>501.46484375</ele>
        <time>2013-02-10T08:59:47Z</time>
      </trkpt>
      <trkpt lat="43.01231" lon="1.78111">
        <ele>500.98413085938</ele>
        <time>2013-02-10T08:59:52Z</time>
      </trkpt>
      <trkpt lat="43.01222" lon="1.78108">
        <ele>499.54223632812</ele>
        <time>2013-02-10T08:59:57Z</time>
      </trkpt>
      <trkpt lat="43.01214" lon="1.78108">
        <ele>499.54223632812</ele>
        <time>2013-02-10T09:00:01Z</time>
      </trkpt>
      <trkpt lat="43.01212" lon="1.78108">
        <ele>499.0615234375</ele>
        <time>2013-02-10T09:00:02Z</time>
      </trkpt>
      <trkpt lat="43.01201" lon="1.78103">
        <ele>498.58093261719</ele>
        <time>2013-02-10T09:00:08Z</time>
      </trkpt>
      <trkpt lat="43.012" lon="1.78102">
        <ele>498.58093261719</ele>
        <time>2013-02-10T09:00:09Z</time>
      </trkpt>
      <trkpt lat="43.01191" lon="1.78091">
        <ele>500.98413085938</ele>
        <time>2013-02-10T09:00:15Z</time>
      </trkpt>
      <trkpt lat="43.01183" lon="1.78082">
        <ele>504.34887695312</ele>
        <time>2013-02-10T09:00:21Z</time>
      </trkpt>
      <trkpt lat="43.01176" lon="1.78074">
        <ele>506.75207519531</ele>
        <time>2013-02-10T09:00:27Z</time>
      </trkpt>
      <trkpt lat="43.01175" lon="1.78073">
        <ele>507.23278808594</ele>
        <time>2013-02-10T09:00:28Z</time>
      </trkpt>
      <trkpt lat="43.01169" lon="1.78064">
        <ele>510.59729003906</ele>
        <time>2013-02-10T09:00:34Z</time>
      </trkpt>
      <trkpt lat="43.01165" lon="1.78058">
        <ele>512.52001953125</ele>
        <time>2013-02-10T09:00:39Z</time>
      </trkpt>
      <trkpt lat="43.01162" lon="1.78053">
        <ele>512.52001953125</ele>
        <time>2013-02-10T09:00:48Z</time>
      </trkpt>
      <trkpt lat="43.01157" lon="1.7805">
        <ele>513.00073242188</ele>
        <time>2013-02-10T09:00:53Z</time>
      </trkpt>
      <trkpt lat="43.01155" lon="1.78047">
        <ele>512.52001953125</ele>
        <time>2013-02-10T09:00:56Z</time>
      </trkpt>
      <trkpt lat="43.0115" lon="1.78044">
        <ele>510.11669921875</ele>
        <time>2013-02-10T09:01:03Z</time>
      </trkpt>
      <trkpt lat="43.01144" lon="1.78043">
        <ele>508.19409179688</ele>
        <time>2013-02-10T09:01:09Z</time>
      </trkpt>
      <trkpt lat="43.01138" lon="1.78042">
        <ele>507.71350097656</ele>
        <time>2013-02-10T09:01:15Z</time>
      </trkpt>
      <trkpt lat="43.01133" lon="1.78041">
        <ele>508.19409179688</ele>
        <time>2013-02-10T09:01:19Z</time>
      </trkpt>
      <trkpt lat="43.01129" lon="1.78041">
        <ele>508.19409179688</ele>
        <time>2013-02-10T09:01:23Z</time>
      </trkpt>
      <trkpt lat="43.01122" lon="1.7804">
        <ele>508.67468261719</ele>
        <time>2013-02-10T09:01:29Z</time>
      </trkpt>
      <trkpt lat="43.01109" lon="1.78036">
        <ele>513.96203613281</ele>
        <time>2013-02-10T09:01:37Z</time>
      </trkpt>
      <trkpt lat="43.01102" lon="1.78034">
        <ele>516.365234375</ele>
        <time>2013-02-10T09:01:43Z</time>
      </trkpt>
      <trkpt lat="43.01091" lon="1.78025">
        <ele>518.28784179688</ele>
        <time>2013-02-10T09:01:49Z</time>
      </trkpt>
      <trkpt lat="43.01079" lon="1.78016">
        <ele>518.7685546875</ele>
        <time>2013-02-10T09:01:55Z</time>
      </trkpt>
      <trkpt lat="43.01072" lon="1.78007">
        <ele>519.24926757812</ele>
        <time>2013-02-10T09:02:00Z</time>
      </trkpt>
      <trkpt lat="43.01068" lon="1.77999">
        <ele>518.28784179688</ele>
        <time>2013-02-10T09:02:05Z</time>
      </trkpt>
      <trkpt lat="43.01072" lon="1.77992">
        <ele>517.80725097656</ele>
        <time>2013-02-10T09:02:08Z</time>
      </trkpt>
      <trkpt lat="43.01074" lon="1.77987">
        <ele>517.80725097656</ele>
        <time>2013-02-10T09:02:10Z</time>
      </trkpt>
      <trkpt lat="43.01078" lon="1.77969">
        <ele>519.24926757812</ele>
        <time>2013-02-10T09:02:16Z</time>
      </trkpt>
      <trkpt lat="43.01078" lon="1.77958">
        <ele>519.72985839844</ele>
        <time>2013-02-10T09:02:20Z</time>
      </trkpt>
      <trkpt lat="43.0108" lon="1.77944">
        <ele>520.69128417969</ele>
        <time>2013-02-10T09:02:25Z</time>
      </trkpt>
      <trkpt lat="43.01081" lon="1.77941">
        <ele>520.69128417969</ele>
        <time>2013-02-10T09:02:26Z</time>
      </trkpt>
      <trkpt lat="43.01082" lon="1.77926">
        <ele>520.21057128906</ele>
        <time>2013-02-10T09:02:32Z</time>
      </trkpt>
      <trkpt lat="43.01084" lon="1.77912">
        <ele>520.69128417969</ele>
        <time>2013-02-10T09:02:37Z</time>
      </trkpt>
      <trkpt lat="43.01084" lon="1.77906">
        <ele>520.69128417969</ele>
        <time>2013-02-10T09:02:39Z</time>
      </trkpt>
      <trkpt lat="43.01081" lon="1.7789">
        <ele>521.65258789062</ele>
        <time>2013-02-10T09:02:45Z</time>
      </trkpt>
      <trkpt lat="43.01082" lon="1.77873">
        <ele>523.09460449219</ele>
        <time>2013-02-10T09:02:51Z</time>
      </trkpt>
      <trkpt lat="43.01088" lon="1.77863">
        <ele>521.65258789062</ele>
        <time>2013-02-10T09:02:56Z</time>
      </trkpt>
      <trkpt lat="43.01087" lon="1.77854">
        <ele>522.61389160156</ele>
        <time>2013-02-10T09:03:01Z</time>
      </trkpt>
      <trkpt lat="43.01087" lon="1.77843">
        <ele>523.09460449219</ele>
        <time>2013-02-10T09:03:06Z</time>
      </trkpt>
      <trkpt lat="43.01086" lon="1.77838">
        <ele>524.05578613281</ele>
        <time>2013-02-10T09:03:10Z</time>
      </trkpt>
      <trkpt lat="43.01086" lon="1.77835">
        <ele>525.01721191406</ele>
        <time>2013-02-10T09:03:12Z</time>
      </trkpt>
      <trkpt lat="43.01085" lon="1.77832">
        <ele>527.42041015625</ele>
        <time>2013-02-10T09:03:15Z</time>
      </trkpt>
      <trkpt lat="43.01083" lon="1.77822">
        <ele>531.74633789062</ele>
        <time>2013-02-10T09:03:22Z</time>
      </trkpt>
      <trkpt lat="43.01083" lon="1.77818">
        <ele>530.78515625</ele>
        <time>2013-02-10T09:03:25Z</time>
      </trkpt>
      <trkpt lat="43.01086" lon="1.77809">
        <ele>531.26574707031</ele>
        <time>2013-02-10T09:03:30Z</time>
      </trkpt>
      <trkpt lat="43.01087" lon="1.778">
        <ele>531.74633789062</ele>
        <time>2013-02-10T09:03:34Z</time>
      </trkpt>
      <trkpt lat="43.0109" lon="1.7779">
        <ele>533.18835449219</ele>
        <time>2013-02-10T09:03:40Z</time>
      </trkpt>
      <trkpt lat="43.01089" lon="1.77786">
        <ele>535.11096191406</ele>
        <time>2013-02-10T09:03:43Z</time>
      </trkpt>
      <trkpt lat="43.0109" lon="1.77779">
        <ele>537.51428222656</ele>
        <time>2013-02-10T09:03:48Z</time>
      </trkpt>
      <trkpt lat="43.01089" lon="1.77773">
        <ele>539.43688964844</ele>
        <time>2013-02-10T09:03:52Z</time>
      </trkpt>
      <trkpt lat="43.01088" lon="1.77768">
        <ele>541.84020996094</ele>
        <time>2013-02-10T09:03:57Z</time>
      </trkpt>
      <trkpt lat="43.01085" lon="1.77759">
        <ele>545.685546875</ele>
        <time>2013-02-10T09:04:05Z</time>
      </trkpt>
      <trkpt lat="43.01084" lon="1.77752">
        <ele>546.64685058594</ele>
        <time>2013-02-10T09:04:11Z</time>
      </trkpt>
      <trkpt lat="43.01084" lon="1.77744">
        <ele>546.16625976562</ele>
        <time>2013-02-10T09:04:16Z</time>
      </trkpt>
      <trkpt lat="43.01083" lon="1.7774">
        <ele>545.20483398438</ele>
        <time>2013-02-10T09:04:19Z</time>
      </trkpt>
      <trkpt lat="43.01082" lon="1.77735">
        <ele>544.72424316406</ele>
        <time>2013-02-10T09:04:23Z</time>
      </trkpt>
      <trkpt lat="43.01083" lon="1.77731">
        <ele>545.685546875</ele>
        <time>2013-02-10T09:04:26Z</time>
      </trkpt>
      <trkpt lat="43.01081" lon="1.77724">
        <ele>547.60815429688</ele>
        <time>2013-02-10T09:04:30Z</time>
      </trkpt>
      <trkpt lat="43.01083" lon="1.77713">
        <ele>548.0888671875</ele>
        <time>2013-02-10T09:04:37Z</time>
      </trkpt>
      <trkpt lat="43.01084" lon="1.77709">
        <ele>546.64685058594</ele>
        <time>2013-02-10T09:04:40Z</time>
      </trkpt>
      <trkpt lat="43.01085" lon="1.77703">
        <ele>545.20483398438</ele>
        <time>2013-02-10T09:04:44Z</time>
      </trkpt>
      <trkpt lat="43.01087" lon="1.77699">
        <ele>546.16625976562</ele>
        <time>2013-02-10T09:04:47Z</time>
      </trkpt>
      <trkpt lat="43.01089" lon="1.77695">
        <ele>545.685546875</ele>
        <time>2013-02-10T09:04:51Z</time>
      </trkpt>
      <trkpt lat="43.01094" lon="1.77687">
        <ele>550.97265625</ele>
        <time>2013-02-10T09:04:58Z</time>
      </trkpt>
      <trkpt lat="43.01098" lon="1.77685">
        <ele>550.97265625</ele>
        <time>2013-02-10T09:05:04Z</time>
      </trkpt>
      <trkpt lat="43.011" lon="1.77681">
        <ele>550.4921875</ele>
        <time>2013-02-10T09:05:08Z</time>
      </trkpt>
      <trkpt lat="43.01102" lon="1.77678">
        <ele>549.53076171875</ele>
        <time>2013-02-10T09:05:13Z</time>
      </trkpt>
      <trkpt lat="43.01105" lon="1.77674">
        <ele>548.5693359375</ele>
        <time>2013-02-10T09:05:18Z</time>
      </trkpt>
      <trkpt lat="43.01109" lon="1.77669">
        <ele>548.5693359375</ele>
        <time>2013-02-10T09:05:23Z</time>
      </trkpt>
      <trkpt lat="43.0111" lon="1.77664">
        <ele>548.0888671875</ele>
        <time>2013-02-10T09:05:28Z</time>
      </trkpt>
      <trkpt lat="43.01114" lon="1.77657">
        <ele>547.12744140625</ele>
        <time>2013-02-10T09:05:34Z</time>
      </trkpt>
      <trkpt lat="43.01113" lon="1.77652">
        <ele>547.60815429688</ele>
        <time>2013-02-10T09:05:39Z</time>
      </trkpt>
      <trkpt lat="43.01115" lon="1.77645">
        <ele>548.0888671875</ele>
        <time>2013-02-10T09:05:46Z</time>
      </trkpt>
      <trkpt lat="43.01115" lon="1.77642">
        <ele>549.53076171875</ele>
        <time>2013-02-10T09:05:52Z</time>
      </trkpt>
      <trkpt lat="43.01117" lon="1.77637">
        <ele>549.53076171875</ele>
        <time>2013-02-10T09:05:59Z</time>
      </trkpt>
      <trkpt lat="43.01118" lon="1.77633">
        <ele>550.01147460938</ele>
        <time>2013-02-10T09:06:05Z</time>
      </trkpt>
      <trkpt lat="43.01119" lon="1.77627">
        <ele>549.53076171875</ele>
        <time>2013-02-10T09:06:11Z</time>
      </trkpt>
      <trkpt lat="43.01126" lon="1.7762">
        <ele>547.60815429688</ele>
        <time>2013-02-10T09:06:18Z</time>
      </trkpt>
      <trkpt lat="43.01127" lon="1.7762">
        <ele>546.64685058594</ele>
        <time>2013-02-10T09:06:19Z</time>
      </trkpt>
      <trkpt lat="43.01133" lon="1.77611">
        <ele>544.72424316406</ele>
        <time>2013-02-10T09:06:25Z</time>
      </trkpt>
      <trkpt lat="43.01134" lon="1.77609">
        <ele>544.72424316406</ele>
        <time>2013-02-10T09:06:26Z</time>
      </trkpt>
      <trkpt lat="43.01136" lon="1.77608">
        <ele>544.24365234375</ele>
        <time>2013-02-10T09:06:28Z</time>
      </trkpt>
      <trkpt lat="43.01138" lon="1.77605">
        <ele>543.76281738281</ele>
        <time>2013-02-10T09:06:30Z</time>
      </trkpt>
      <trkpt lat="43.01141" lon="1.77603">
        <ele>541.84020996094</ele>
        <time>2013-02-10T09:06:34Z</time>
      </trkpt>
      <trkpt lat="43.01142" lon="1.77602">
        <ele>540.39831542969</ele>
        <time>2013-02-10T09:06:36Z</time>
      </trkpt>
      <trkpt lat="43.01146" lon="1.77601">
        <ele>538.47570800781</ele>
        <time>2013-02-10T09:06:42Z</time>
      </trkpt>
      <trkpt lat="43.01151" lon="1.776">
        <ele>537.99499511719</ele>
        <time>2013-02-10T09:06:47Z</time>
      </trkpt>
      <trkpt lat="43.01154" lon="1.77597">
        <ele>537.03369140625</ele>
        <time>2013-02-10T09:06:53Z</time>
      </trkpt>
      <trkpt lat="43.01156" lon="1.77595">
        <ele>537.03369140625</ele>
        <time>2013-02-10T09:06:54Z</time>
      </trkpt>
      <trkpt lat="43.01161" lon="1.77589">
        <ele>535.11096191406</ele>
        <time>2013-02-10T09:07:01Z</time>
      </trkpt>
      <trkpt lat="43.01165" lon="1.77586">
        <ele>535.11096191406</ele>
        <time>2013-02-10T09:07:05Z</time>
      </trkpt>
      <trkpt lat="43.0117" lon="1.77586">
        <ele>532.70776367188</ele>
        <time>2013-02-10T09:07:10Z</time>
      </trkpt>
      <trkpt lat="43.01171" lon="1.77586">
        <ele>532.22705078125</ele>
        <time>2013-02-10T09:07:11Z</time>
      </trkpt>
      <trkpt lat="43.01181" lon="1.77589">
        <ele>531.74633789062</ele>
        <time>2013-02-10T09:07:18Z</time>
      </trkpt>
      <trkpt lat="43.01189" lon="1.7759">
        <ele>532.70776367188</ele>
        <time>2013-02-10T09:07:21Z</time>
      </trkpt>
      <trkpt lat="43.01196" lon="1.77591">
        <ele>534.14965820312</ele>
        <time>2013-02-10T09:07:23Z</time>
      </trkpt>
      <trkpt lat="43.01213" lon="1.77592">
        <ele>537.99499511719</ele>
        <time>2013-02-10T09:07:27Z</time>
      </trkpt>
      <trkpt lat="43.01223" lon="1.77592">
        <ele>538.47570800781</ele>
        <time>2013-02-10T09:07:30Z</time>
      </trkpt>
      <trkpt lat="43.01239" lon="1.77595">
        <ele>539.43688964844</ele>
        <time>2013-02-10T09:07:36Z</time>
      </trkpt>
      <trkpt lat="43.0125" lon="1.77597">
        <ele>539.43688964844</ele>
        <time>2013-02-10T09:07:40Z</time>
      </trkpt>
      <trkpt lat="43.01266" lon="1.77601">
        <ele>537.51428222656</ele>
        <time>2013-02-10T09:07:46Z</time>
      </trkpt>
      <trkpt lat="43.0128" lon="1.77609">
        <ele>537.03369140625</ele>
        <time>2013-02-10T09:07:51Z</time>
      </trkpt>
      <trkpt lat="43.01289" lon="1.77616">
        <ele>535.59155273438</ele>
        <time>2013-02-10T09:07:55Z</time>
      </trkpt>
      <trkpt lat="43.01297" lon="1.77622">
        <ele>533.6689453125</ele>
        <time>2013-02-10T09:07:59Z</time>
      </trkpt>
      <trkpt lat="43.01306" lon="1.7763">
        <ele>532.22705078125</ele>
        <time>2013-02-10T09:08:03Z</time>
      </trkpt>
      <trkpt lat="43.01316" lon="1.77638">
        <ele>532.22705078125</ele>
        <time>2013-02-10T09:08:07Z</time>
      </trkpt>
      <trkpt lat="43.01329" lon="1.77647">
        <ele>529.82373046875</ele>
        <time>2013-02-10T09:08:12Z</time>
      </trkpt>
      <trkpt lat="43.01338" lon="1.77656">
        <ele>527.90100097656</ele>
        <time>2013-02-10T09:08:17Z</time>
      </trkpt>
      <trkpt lat="43.01351" lon="1.77661">
        <ele>526.93981933594</ele>
        <time>2013-02-10T09:08:23Z</time>
      </trkpt>
      <trkpt lat="43.01357" lon="1.77664">
        <ele>527.90100097656</ele>
        <time>2013-02-10T09:08:27Z</time>
      </trkpt>
      <trkpt lat="43.01366" lon="1.77672">
        <ele>525.97839355469</ele>
        <time>2013-02-10T09:08:32Z</time>
      </trkpt>
      <trkpt lat="43.01372" lon="1.77676">
        <ele>525.01721191406</ele>
        <time>2013-02-10T09:08:35Z</time>
      </trkpt>
      <trkpt lat="43.01381" lon="1.77687">
        <ele>523.5751953125</ele>
        <time>2013-02-10T09:08:40Z</time>
      </trkpt>
      <trkpt lat="43.0139" lon="1.77695">
        <ele>523.5751953125</ele>
        <time>2013-02-10T09:08:45Z</time>
      </trkpt>
      <trkpt lat="43.014" lon="1.77693">
        <ele>521.17199707031</ele>
        <time>2013-02-10T09:08:50Z</time>
      </trkpt>
      <trkpt lat="43.01403" lon="1.77691">
        <ele>520.69128417969</ele>
        <time>2013-02-10T09:08:52Z</time>
      </trkpt>
      <trkpt lat="43.01409" lon="1.77681">
        <ele>521.17199707031</ele>
        <time>2013-02-10T09:08:57Z</time>
      </trkpt>
      <trkpt lat="43.01413" lon="1.77675">
        <ele>521.65258789062</ele>
        <time>2013-02-10T09:09:00Z</time>
      </trkpt>
      <trkpt lat="43.01418" lon="1.7767">
        <ele>522.13317871094</ele>
        <time>2013-02-10T09:09:03Z</time>
      </trkpt>
      <trkpt lat="43.01426" lon="1.7766">
        <ele>522.13317871094</ele>
        <time>2013-02-10T09:09:07Z</time>
      </trkpt>
      <trkpt lat="43.01435" lon="1.77634">
        <ele>525.01721191406</ele>
        <time>2013-02-10T09:09:16Z</time>
      </trkpt>
      <trkpt lat="43.01437" lon="1.77628">
        <ele>525.01721191406</ele>
        <time>2013-02-10T09:09:18Z</time>
      </trkpt>
      <trkpt lat="43.01446" lon="1.77617">
        <ele>524.53649902344</ele>
        <time>2013-02-10T09:09:23Z</time>
      </trkpt>
      <trkpt lat="43.0146" lon="1.776">
        <ele>525.97839355469</ele>
        <time>2013-02-10T09:09:30Z</time>
      </trkpt>
      <trkpt lat="43.01468" lon="1.77591">
        <ele>524.05578613281</ele>
        <time>2013-02-10T09:09:35Z</time>
      </trkpt>
      <trkpt lat="43.01476" lon="1.77582">
        <ele>523.09460449219</ele>
        <time>2013-02-10T09:09:40Z</time>
      </trkpt>
      <trkpt lat="43.0148" lon="1.77571">
        <ele>521.65258789062</ele>
        <time>2013-02-10T09:09:45Z</time>
      </trkpt>
      <trkpt lat="43.01485" lon="1.77565">
        <ele>521.17199707031</ele>
        <time>2013-02-10T09:09:48Z</time>
      </trkpt>
      <trkpt lat="43.01487" lon="1.77555">
        <ele>520.69128417969</ele>
        <time>2013-02-10T09:09:52Z</time>
      </trkpt>
      <trkpt lat="43.01486" lon="1.7755">
        <ele>519.72985839844</ele>
        <time>2013-02-10T09:09:54Z</time>
      </trkpt>
      <trkpt lat="43.01485" lon="1.77537">
        <ele>519.24926757812</ele>
        <time>2013-02-10T09:09:59Z</time>
      </trkpt>
      <trkpt lat="43.01486" lon="1.77526">
        <ele>520.69128417969</ele>
        <time>2013-02-10T09:10:04Z</time>
      </trkpt>
      <trkpt lat="43.01485" lon="1.77523">
        <ele>520.69128417969</ele>
        <time>2013-02-10T09:10:05Z</time>
      </trkpt>
      <trkpt lat="43.01485" lon="1.77518">
        <ele>520.69128417969</ele>
        <time>2013-02-10T09:10:07Z</time>
      </trkpt>
      <trkpt lat="43.01487" lon="1.77514">
        <ele>519.72985839844</ele>
        <time>2013-02-10T09:10:09Z</time>
      </trkpt>
      <trkpt lat="43.01493" lon="1.77498">
        <ele>519.72985839844</ele>
        <time>2013-02-10T09:10:15Z</time>
      </trkpt>
      <trkpt lat="43.01494" lon="1.77495">
        <ele>520.21057128906</ele>
        <time>2013-02-10T09:10:16Z</time>
      </trkpt>
      <trkpt lat="43.01505" lon="1.77484">
        <ele>521.65258789062</ele>
        <time>2013-02-10T09:10:21Z</time>
      </trkpt>
      <trkpt lat="43.01502" lon="1.77478">
        <ele>522.61389160156</ele>
        <time>2013-02-10T09:10:25Z</time>
      </trkpt>
      <trkpt lat="43.01492" lon="1.77474">
        <ele>522.61389160156</ele>
        <time>2013-02-10T09:10:30Z</time>
      </trkpt>
      <trkpt lat="43.01484" lon="1.77467">
        <ele>522.13317871094</ele>
        <time>2013-02-10T09:10:34Z</time>
      </trkpt>
      <trkpt lat="43.01476" lon="1.77468">
        <ele>522.61389160156</ele>
        <time>2013-02-10T09:10:40Z</time>
      </trkpt>
      <trkpt lat="43.0147" lon="1.77471">
        <ele>522.61389160156</ele>
        <time>2013-02-10T09:10:46Z</time>
      </trkpt>
      <trkpt lat="43.01469" lon="1.77471">
        <ele>521.65258789062</ele>
        <time>2013-02-10T09:10:48Z</time>
      </trkpt>
      <trkpt lat="43.01462" lon="1.77473">
        <ele>526.45910644531</ele>
        <time>2013-02-10T09:10:54Z</time>
      </trkpt>
      <trkpt lat="43.01455" lon="1.77473">
        <ele>528.3818359375</ele>
        <time>2013-02-10T09:11:02Z</time>
      </trkpt>
      <trkpt lat="43.01453" lon="1.77473">
        <ele>527.90100097656</ele>
        <time>2013-02-10T09:11:03Z</time>
      </trkpt>
      <trkpt lat="43.01448" lon="1.77475">
        <ele>527.42041015625</ele>
        <time>2013-02-10T09:11:09Z</time>
      </trkpt>
      <trkpt lat="43.01442" lon="1.77477">
        <ele>530.78515625</ele>
        <time>2013-02-10T09:11:16Z</time>
      </trkpt>
      <trkpt lat="43.01438" lon="1.77479">
        <ele>529.82373046875</ele>
        <time>2013-02-10T09:11:21Z</time>
      </trkpt>
      <trkpt lat="43.01434" lon="1.7748">
        <ele>531.74633789062</ele>
        <time>2013-02-10T09:11:24Z</time>
      </trkpt>
      <trkpt lat="43.01429" lon="1.77482">
        <ele>528.86254882812</ele>
        <time>2013-02-10T09:11:31Z</time>
      </trkpt>
      <trkpt lat="43.01423" lon="1.77485">
        <ele>528.3818359375</ele>
        <time>2013-02-10T09:11:38Z</time>
      </trkpt>
      <trkpt lat="43.01421" lon="1.77485">
        <ele>529.82373046875</ele>
        <time>2013-02-10T09:11:39Z</time>
      </trkpt>
      <trkpt lat="43.01414" lon="1.77485">
        <ele>533.6689453125</ele>
        <time>2013-02-10T09:11:44Z</time>
      </trkpt>
      <trkpt lat="43.01407" lon="1.77486">
        <ele>530.30444335938</ele>
        <time>2013-02-10T09:11:52Z</time>
      </trkpt>
      <trkpt lat="43.01403" lon="1.77487">
        <ele>532.22705078125</ele>
        <time>2013-02-10T09:11:55Z</time>
      </trkpt>
      <trkpt lat="43.01398" lon="1.77492">
        <ele>532.70776367188</ele>
        <time>2013-02-10T09:12:00Z</time>
      </trkpt>
      <trkpt lat="43.01397" lon="1.77494">
        <ele>532.70776367188</ele>
        <time>2013-02-10T09:12:02Z</time>
      </trkpt>
      <trkpt lat="43.0139" lon="1.77501">
        <ele>531.26574707031</ele>
        <time>2013-02-10T09:12:10Z</time>
      </trkpt>
      <trkpt lat="43.01383" lon="1.77507">
        <ele>532.70776367188</ele>
        <time>2013-02-10T09:12:17Z</time>
      </trkpt>
      <trkpt lat="43.01381" lon="1.77507">
        <ele>533.6689453125</ele>
        <time>2013-02-10T09:12:18Z</time>
      </trkpt>
      <trkpt lat="43.01373" lon="1.77507">
        <ele>537.99499511719</ele>
        <time>2013-02-10T09:12:23Z</time>
      </trkpt>
      <trkpt lat="43.01366" lon="1.77507">
        <ele>538.95629882812</ele>
        <time>2013-02-10T09:12:28Z</time>
      </trkpt>
      <trkpt lat="43.01355" lon="1.77509">
        <ele>540.87890625</ele>
        <time>2013-02-10T09:12:32Z</time>
      </trkpt>
      <trkpt lat="43.01346" lon="1.77513">
        <ele>540.87890625</ele>
        <time>2013-02-10T09:12:37Z</time>
      </trkpt>
      <trkpt lat="43.01337" lon="1.77516">
        <ele>541.35949707031</ele>
        <time>2013-02-10T09:12:41Z</time>
      </trkpt>
      <trkpt lat="43.01328" lon="1.77519">
        <ele>544.72424316406</ele>
        <time>2013-02-10T09:12:47Z</time>
      </trkpt>
      <trkpt lat="43.01324" lon="1.77521">
        <ele>545.685546875</ele>
        <time>2013-02-10T09:12:51Z</time>
      </trkpt>
      <trkpt lat="43.01317" lon="1.77518">
        <ele>548.0888671875</ele>
        <time>2013-02-10T09:12:57Z</time>
      </trkpt>
      <trkpt lat="43.01312" lon="1.77517">
        <ele>547.60815429688</ele>
        <time>2013-02-10T09:13:01Z</time>
      </trkpt>
      <trkpt lat="43.0131" lon="1.77517">
        <ele>547.12744140625</ele>
        <time>2013-02-10T09:13:04Z</time>
      </trkpt>
      <trkpt lat="43.01302" lon="1.7752">
        <ele>547.60815429688</ele>
        <time>2013-02-10T09:13:12Z</time>
      </trkpt>
      <trkpt lat="43.01299" lon="1.7752">
        <ele>547.60815429688</ele>
        <time>2013-02-10T09:13:15Z</time>
      </trkpt>
      <trkpt lat="43.01291" lon="1.7752">
        <ele>545.20483398438</ele>
        <time>2013-02-10T09:13:24Z</time>
      </trkpt>
      <trkpt lat="43.01284" lon="1.77522">
        <ele>542.32092285156</ele>
        <time>2013-02-10T09:13:33Z</time>
      </trkpt>
      <trkpt lat="43.0128" lon="1.77523">
        <ele>542.32092285156</ele>
        <time>2013-02-10T09:13:37Z</time>
      </trkpt>
      <trkpt lat="43.0127" lon="1.77523">
        <ele>549.05004882812</ele>
        <time>2013-02-10T09:13:43Z</time>
      </trkpt>
      <trkpt lat="43.0126" lon="1.77524">
        <ele>551.93408203125</ele>
        <time>2013-02-10T09:13:51Z</time>
      </trkpt>
      <trkpt lat="43.01254" lon="1.77522">
        <ele>551.45336914062</ele>
        <time>2013-02-10T09:13:58Z</time>
      </trkpt>
      <trkpt lat="43.01252" lon="1.77521">
        <ele>551.93408203125</ele>
        <time>2013-02-10T09:13:59Z</time>
      </trkpt>
      <trkpt lat="43.0125" lon="1.77522">
        <ele>551.93408203125</ele>
        <time>2013-02-10T09:14:02Z</time>
      </trkpt>
      <trkpt lat="43.01245" lon="1.77522">
        <ele>553.3759765625</ele>
        <time>2013-02-10T09:14:06Z</time>
      </trkpt>
      <trkpt lat="43.01236" lon="1.77519">
        <ele>555.779296875</ele>
        <time>2013-02-10T09:14:13Z</time>
      </trkpt>
      <trkpt lat="43.01231" lon="1.77517">
        <ele>556.26000976562</ele>
        <time>2013-02-10T09:14:17Z</time>
      </trkpt>
      <trkpt lat="43.01223" lon="1.77517">
        <ele>555.29858398438</ele>
        <time>2013-02-10T09:14:25Z</time>
      </trkpt>
      <trkpt lat="43.01216" lon="1.77519">
        <ele>555.29858398438</ele>
        <time>2013-02-10T09:14:29Z</time>
      </trkpt>
      <trkpt lat="43.01207" lon="1.77521">
        <ele>553.3759765625</ele>
        <time>2013-02-10T09:14:33Z</time>
      </trkpt>
      <trkpt lat="43.01202" lon="1.77521">
        <ele>552.41455078125</ele>
        <time>2013-02-10T09:14:36Z</time>
      </trkpt>
      <trkpt lat="43.01199" lon="1.7752">
        <ele>555.29858398438</ele>
        <time>2013-02-10T09:14:38Z</time>
      </trkpt>
      <trkpt lat="43.01196" lon="1.77518">
        <ele>559.62475585938</ele>
        <time>2013-02-10T09:14:48Z</time>
      </trkpt>
      <trkpt lat="43.01194" lon="1.77517">
        <ele>564.43115234375</ele>
        <time>2013-02-10T09:15:01Z</time>
      </trkpt>
      <trkpt lat="43.01183" lon="1.77521">
        <ele>564.43115234375</ele>
        <time>2013-02-10T09:15:06Z</time>
      </trkpt>
      <trkpt lat="43.01178" lon="1.77526">
        <ele>564.43115234375</ele>
        <time>2013-02-10T09:15:09Z</time>
      </trkpt>
      <trkpt lat="43.0117" lon="1.77532">
        <ele>564.43115234375</ele>
        <time>2013-02-10T09:15:14Z</time>
      </trkpt>
      <trkpt lat="43.01162" lon="1.7754">
        <ele>566.83447265625</ele>
        <time>2013-02-10T09:15:19Z</time>
      </trkpt>
      <trkpt lat="43.0116" lon="1.7754">
        <ele>566.35375976562</ele>
        <time>2013-02-10T09:15:20Z</time>
      </trkpt>
      <trkpt lat="43.01158" lon="1.77541">
        <ele>567.79565429688</ele>
        <time>2013-02-10T09:15:22Z</time>
      </trkpt>
      <trkpt lat="43.01155" lon="1.77546">
        <ele>570.6796875</ele>
        <time>2013-02-10T09:15:25Z</time>
      </trkpt>
      <trkpt lat="43.01149" lon="1.77552">
        <ele>572.6025390625</ele>
        <time>2013-02-10T09:15:30Z</time>
      </trkpt>
      <trkpt lat="43.01143" lon="1.77557">
        <ele>573.08325195312</ele>
        <time>2013-02-10T09:15:33Z</time>
      </trkpt>
      <trkpt lat="43.01136" lon="1.77565">
        <ele>573.56396484375</ele>
        <time>2013-02-10T09:15:37Z</time>
      </trkpt>
      <trkpt lat="43.01127" lon="1.77581">
        <ele>574.52514648438</ele>
        <time>2013-02-10T09:15:43Z</time>
      </trkpt>
      <trkpt lat="43.01119" lon="1.77595">
        <ele>575.96704101562</ele>
        <time>2013-02-10T09:15:48Z</time>
      </trkpt>
      <trkpt lat="43.01112" lon="1.77608">
        <ele>575.96704101562</ele>
        <time>2013-02-10T09:15:53Z</time>
      </trkpt>
      <trkpt lat="43.01106" lon="1.77622">
        <ele>574.52514648438</ele>
        <time>2013-02-10T09:15:58Z</time>
      </trkpt>
      <trkpt lat="43.01104" lon="1.77625">
        <ele>575.005859375</ele>
        <time>2013-02-10T09:15:59Z</time>
      </trkpt>
      <trkpt lat="43.01096" lon="1.77641">
        <ele>574.04443359375</ele>
        <time>2013-02-10T09:16:04Z</time>
      </trkpt>
      <trkpt lat="43.01089" lon="1.77647">
        <ele>570.19897460938</ele>
        <time>2013-02-10T09:16:08Z</time>
      </trkpt>
      <trkpt lat="43.01085" lon="1.77647">
        <ele>567.31518554688</ele>
        <time>2013-02-10T09:16:10Z</time>
      </trkpt>
      <trkpt lat="43.01077" lon="1.77649">
        <ele>562.50854492188</ele>
        <time>2013-02-10T09:16:16Z</time>
      </trkpt>
      <trkpt lat="43.01076" lon="1.77649">
        <ele>561.54736328125</ele>
        <time>2013-02-10T09:16:17Z</time>
      </trkpt>
      <trkpt lat="43.01073" lon="1.7765">
        <ele>559.62475585938</ele>
        <time>2013-02-10T09:16:20Z</time>
      </trkpt>
      <trkpt lat="43.01068" lon="1.77653">
        <ele>557.7021484375</ele>
        <time>2013-02-10T09:16:24Z</time>
      </trkpt>
      <trkpt lat="43.01063" lon="1.77657">
        <ele>554.81787109375</ele>
        <time>2013-02-10T09:16:29Z</time>
      </trkpt>
      <trkpt lat="43.0106" lon="1.77655">
        <ele>553.3759765625</ele>
        <time>2013-02-10T09:16:33Z</time>
      </trkpt>
      <trkpt lat="43.01057" lon="1.7765">
        <ele>553.3759765625</ele>
        <time>2013-02-10T09:16:40Z</time>
      </trkpt>
      <trkpt lat="43.01051" lon="1.7765">
        <ele>551.93408203125</ele>
        <time>2013-02-10T09:16:47Z</time>
      </trkpt>
      <trkpt lat="43.01045" lon="1.77646">
        <ele>550.4921875</ele>
        <time>2013-02-10T09:16:55Z</time>
      </trkpt>
      <trkpt lat="43.01043" lon="1.77642">
        <ele>550.01147460938</ele>
        <time>2013-02-10T09:17:02Z</time>
      </trkpt>
      <trkpt lat="43.01039" lon="1.77639">
        <ele>550.01147460938</ele>
        <time>2013-02-10T09:17:08Z</time>
      </trkpt>
      <trkpt lat="43.01031" lon="1.77633">
        <ele>550.97265625</ele>
        <time>2013-02-10T09:17:14Z</time>
      </trkpt>
      <trkpt lat="43.0103" lon="1.77633">
        <ele>550.97265625</ele>
        <time>2013-02-10T09:17:15Z</time>
      </trkpt>
      <trkpt lat="43.01023" lon="1.77631">
        <ele>549.53076171875</ele>
        <time>2013-02-10T09:17:21Z</time>
      </trkpt>
      <trkpt lat="43.0102" lon="1.7763">
        <ele>551.93408203125</ele>
        <time>2013-02-10T09:17:23Z</time>
      </trkpt>
      <trkpt lat="43.01014" lon="1.77628">
        <ele>551.45336914062</ele>
        <time>2013-02-10T09:17:27Z</time>
      </trkpt>
      <trkpt lat="43.01009" lon="1.77622">
        <ele>552.41455078125</ele>
        <time>2013-02-10T09:17:30Z</time>
      </trkpt>
      <trkpt lat="43.01" lon="1.77611">
        <ele>550.01147460938</ele>
        <time>2013-02-10T09:17:36Z</time>
      </trkpt>
      <trkpt lat="43.00993" lon="1.77604">
        <ele>550.97265625</ele>
        <time>2013-02-10T09:17:39Z</time>
      </trkpt>
      <trkpt lat="43.00983" lon="1.77591">
        <ele>550.4921875</ele>
        <time>2013-02-10T09:17:45Z</time>
      </trkpt>
      <trkpt lat="43.0098" lon="1.77584">
        <ele>551.45336914062</ele>
        <time>2013-02-10T09:17:49Z</time>
      </trkpt>
      <trkpt lat="43.0098" lon="1.77577">
        <ele>550.01147460938</ele>
        <time>2013-02-10T09:17:53Z</time>
      </trkpt>
      <trkpt lat="43.00978" lon="1.77561">
        <ele>549.53076171875</ele>
        <time>2013-02-10T09:17:59Z</time>
      </trkpt>
      <trkpt lat="43.00978" lon="1.77558">
        <ele>550.01147460938</ele>
        <time>2013-02-10T09:18:00Z</time>
      </trkpt>
      <trkpt lat="43.00978" lon="1.77553">
        <ele>549.53076171875</ele>
        <time>2013-02-10T09:18:02Z</time>
      </trkpt>
      <trkpt lat="43.00974" lon="1.77539">
        <ele>549.05004882812</ele>
        <time>2013-02-10T09:18:07Z</time>
      </trkpt>
      <trkpt lat="43.00973" lon="1.77536">
        <ele>549.05004882812</ele>
        <time>2013-02-10T09:18:08Z</time>
      </trkpt>
      <trkpt lat="43.00965" lon="1.77521">
        <ele>549.53076171875</ele>
        <time>2013-02-10T09:18:13Z</time>
      </trkpt>
      <trkpt lat="43.00962" lon="1.77516">
        <ele>549.53076171875</ele>
        <time>2013-02-10T09:18:15Z</time>
      </trkpt>
      <trkpt lat="43.00954" lon="1.7751">
        <ele>549.05004882812</ele>
        <time>2013-02-10T09:18:20Z</time>
      </trkpt>
      <trkpt lat="43.00952" lon="1.77509">
        <ele>548.5693359375</ele>
        <time>2013-02-10T09:18:21Z</time>
      </trkpt>
      <trkpt lat="43.00941" lon="1.77504">
        <ele>546.16625976562</ele>
        <time>2013-02-10T09:18:26Z</time>
      </trkpt>
      <trkpt lat="43.00928" lon="1.775">
        <ele>542.32092285156</ele>
        <time>2013-02-10T09:18:31Z</time>
      </trkpt>
      <trkpt lat="43.00918" lon="1.77498">
        <ele>539.43688964844</ele>
        <time>2013-02-10T09:18:35Z</time>
      </trkpt>
      <trkpt lat="43.0091" lon="1.77498">
        <ele>538.95629882812</ele>
        <time>2013-02-10T09:18:38Z</time>
      </trkpt>
      <trkpt lat="43.00904" lon="1.77497">
        <ele>538.95629882812</ele>
        <time>2013-02-10T09:18:40Z</time>
      </trkpt>
      <trkpt lat="43.00891" lon="1.77498">
        <ele>536.55310058594</ele>
        <time>2013-02-10T09:18:45Z</time>
      </trkpt>
      <trkpt lat="43.00883" lon="1.775">
        <ele>538.47570800781</ele>
        <time>2013-02-10T09:18:48Z</time>
      </trkpt>
      <trkpt lat="43.00877" lon="1.77498">
        <ele>540.87890625</ele>
        <time>2013-02-10T09:18:50Z</time>
      </trkpt>
      <trkpt lat="43.0087" lon="1.77491">
        <ele>541.84020996094</ele>
        <time>2013-02-10T09:18:54Z</time>
      </trkpt>
      <trkpt lat="43.00866" lon="1.77485">
        <ele>541.35949707031</ele>
        <time>2013-02-10T09:18:57Z</time>
      </trkpt>
      <trkpt lat="43.00858" lon="1.77472">
        <ele>540.39831542969</ele>
        <time>2013-02-10T09:19:03Z</time>
      </trkpt>
      <trkpt lat="43.00851" lon="1.77465">
        <ele>536.55310058594</ele>
        <time>2013-02-10T09:19:08Z</time>
      </trkpt>
      <trkpt lat="43.00843" lon="1.77453">
        <ele>532.70776367188</ele>
        <time>2013-02-10T09:19:14Z</time>
      </trkpt>
      <trkpt lat="43.00838" lon="1.77445">
        <ele>529.34313964844</ele>
        <time>2013-02-10T09:19:18Z</time>
      </trkpt>
      <trkpt lat="43.00829" lon="1.77445">
        <ele>527.42041015625</ele>
        <time>2013-02-10T09:19:23Z</time>
      </trkpt>
      <trkpt lat="43.00824" lon="1.77444">
        <ele>525.49780273438</ele>
        <time>2013-02-10T09:19:27Z</time>
      </trkpt>
      <trkpt lat="43.00814" lon="1.77444">
        <ele>523.5751953125</ele>
        <time>2013-02-10T09:19:33Z</time>
      </trkpt>
      <trkpt lat="43.00809" lon="1.77444">
        <ele>521.65258789062</ele>
        <time>2013-02-10T09:19:36Z</time>
      </trkpt>
      <trkpt lat="43.00794" lon="1.77449">
        <ele>518.7685546875</ele>
        <time>2013-02-10T09:19:42Z</time>
      </trkpt>
      <trkpt lat="43.00787" lon="1.77456">
        <ele>516.84594726562</ele>
        <time>2013-02-10T09:19:46Z</time>
      </trkpt>
      <trkpt lat="43.0078" lon="1.77467">
        <ele>515.40405273438</ele>
        <time>2013-02-10T09:19:52Z</time>
      </trkpt>
      <trkpt lat="43.00779" lon="1.77473">
        <ele>515.88464355469</ele>
        <time>2013-02-10T09:19:54Z</time>
      </trkpt>
      <trkpt lat="43.00777" lon="1.77474">
        <ele>515.40405273438</ele>
        <time>2013-02-10T09:19:59Z</time>
      </trkpt>
      <trkpt lat="43.00774" lon="1.7747">
        <ele>515.40405273438</ele>
        <time>2013-02-10T09:20:04Z</time>
      </trkpt>
      <trkpt lat="43.00774" lon="1.77467">
        <ele>515.40405273438</ele>
        <time>2013-02-10T09:20:06Z</time>
      </trkpt>
      <trkpt lat="43.00768" lon="1.77448">
        <ele>515.40405273438</ele>
        <time>2013-02-10T09:20:12Z</time>
      </trkpt>
      <trkpt lat="43.00765" lon="1.77439">
        <ele>516.365234375</ele>
        <time>2013-02-10T09:20:15Z</time>
      </trkpt>
      <trkpt lat="43.00754" lon="1.77423">
        <ele>517.80725097656</ele>
        <time>2013-02-10T09:20:22Z</time>
      </trkpt>
      <trkpt lat="43.00747" lon="1.77411">
        <ele>518.28784179688</ele>
        <time>2013-02-10T09:20:27Z</time>
      </trkpt>
      <trkpt lat="43.00737" lon="1.77398">
        <ele>519.24926757812</ele>
        <time>2013-02-10T09:20:33Z</time>
      </trkpt>
      <trkpt lat="43.00729" lon="1.77386">
        <ele>519.24926757812</ele>
        <time>2013-02-10T09:20:38Z</time>
      </trkpt>
      <trkpt lat="43.00719" lon="1.77372">
        <ele>518.28784179688</ele>
        <time>2013-02-10T09:20:44Z</time>
      </trkpt>
      <trkpt lat="43.00716" lon="1.77367">
        <ele>518.28784179688</ele>
        <time>2013-02-10T09:20:46Z</time>
      </trkpt>
      <trkpt lat="43.00705" lon="1.77367">
        <ele>517.80725097656</ele>
        <time>2013-02-10T09:20:51Z</time>
      </trkpt>
      <trkpt lat="43.00695" lon="1.77372">
        <ele>517.32666015625</ele>
        <time>2013-02-10T09:20:56Z</time>
      </trkpt>
      <trkpt lat="43.00692" lon="1.77372">
        <ele>517.32666015625</ele>
        <time>2013-02-10T09:20:57Z</time>
      </trkpt>
      <trkpt lat="43.00684" lon="1.77373">
        <ele>518.28784179688</ele>
        <time>2013-02-10T09:21:01Z</time>
      </trkpt>
      <trkpt lat="43.00669" lon="1.77374">
        <ele>519.24926757812</ele>
        <time>2013-02-10T09:21:08Z</time>
      </trkpt>
      <trkpt lat="43.00658" lon="1.77372">
        <ele>519.24926757812</ele>
        <time>2013-02-10T09:21:13Z</time>
      </trkpt>
      <trkpt lat="43.00647" lon="1.77375">
        <ele>519.24926757812</ele>
        <time>2013-02-10T09:21:18Z</time>
      </trkpt>
      <trkpt lat="43.00638" lon="1.77379">
        <ele>519.24926757812</ele>
        <time>2013-02-10T09:21:21Z</time>
      </trkpt>
      <trkpt lat="43.00628" lon="1.77385">
        <ele>519.24926757812</ele>
        <time>2013-02-10T09:21:25Z</time>
      </trkpt>
      <trkpt lat="43.00619" lon="1.77388">
        <ele>519.72985839844</ele>
        <time>2013-02-10T09:21:30Z</time>
      </trkpt>
      <trkpt lat="43.00612" lon="1.77391">
        <ele>520.21057128906</ele>
        <time>2013-02-10T09:21:37Z</time>
      </trkpt>
      <trkpt lat="43.00606" lon="1.77393">
        <ele>520.69128417969</ele>
        <time>2013-02-10T09:21:42Z</time>
      </trkpt>
      <trkpt lat="43.00603" lon="1.77394">
        <ele>521.17199707031</ele>
        <time>2013-02-10T09:21:45Z</time>
      </trkpt>
      <trkpt lat="43.00601" lon="1.77396">
        <ele>521.65258789062</ele>
        <time>2013-02-10T09:21:47Z</time>
      </trkpt>
      <trkpt lat="43.00596" lon="1.77398">
        <ele>522.13317871094</ele>
        <time>2013-02-10T09:21:52Z</time>
      </trkpt>
      <trkpt lat="43.00588" lon="1.774">
        <ele>523.09460449219</ele>
        <time>2013-02-10T09:22:00Z</time>
      </trkpt>
      <trkpt lat="43.00587" lon="1.774">
        <ele>523.09460449219</ele>
        <time>2013-02-10T09:22:01Z</time>
      </trkpt>
      <trkpt lat="43.00581" lon="1.77399">
        <ele>523.09460449219</ele>
        <time>2013-02-10T09:22:06Z</time>
      </trkpt>
      <trkpt lat="43.00575" lon="1.77402">
        <ele>524.05578613281</ele>
        <time>2013-02-10T09:22:13Z</time>
      </trkpt>
      <trkpt lat="43.00566" lon="1.77404">
        <ele>526.93981933594</ele>
        <time>2013-02-10T09:22:22Z</time>
      </trkpt>
      <trkpt lat="43.00563" lon="1.77402">
        <ele>528.3818359375</ele>
        <time>2013-02-10T09:22:27Z</time>
      </trkpt>
      <trkpt lat="43.0056" lon="1.77399">
        <ele>527.90100097656</ele>
        <time>2013-02-10T09:22:32Z</time>
      </trkpt>
      <trkpt lat="43.00556" lon="1.77394">
        <ele>529.34313964844</ele>
        <time>2013-02-10T09:22:40Z</time>
      </trkpt>
      <trkpt lat="43.0055" lon="1.77389">
        <ele>530.30444335938</ele>
        <time>2013-02-10T09:22:48Z</time>
      </trkpt>
      <trkpt lat="43.00546" lon="1.77385">
        <ele>532.22705078125</ele>
        <time>2013-02-10T09:22:56Z</time>
      </trkpt>
      <trkpt lat="43.00539" lon="1.7738">
        <ele>535.11096191406</ele>
        <time>2013-02-10T09:23:05Z</time>
      </trkpt>
      <trkpt lat="43.00535" lon="1.77376">
        <ele>536.55310058594</ele>
        <time>2013-02-10T09:23:12Z</time>
      </trkpt>
      <trkpt lat="43.00532" lon="1.77372">
        <ele>537.99499511719</ele>
        <time>2013-02-10T09:23:18Z</time>
      </trkpt>
      <trkpt lat="43.00528" lon="1.77369">
        <ele>540.39831542969</ele>
        <time>2013-02-10T09:23:24Z</time>
      </trkpt>
      <trkpt lat="43.00522" lon="1.77363">
        <ele>542.80151367188</ele>
        <time>2013-02-10T09:23:32Z</time>
      </trkpt>
      <trkpt lat="43.00518" lon="1.77358">
        <ele>544.24365234375</ele>
        <time>2013-02-10T09:23:38Z</time>
      </trkpt>
      <trkpt lat="43.00513" lon="1.77351">
        <ele>545.685546875</ele>
        <time>2013-02-10T09:23:45Z</time>
      </trkpt>
      <trkpt lat="43.0051" lon="1.77347">
        <ele>546.64685058594</ele>
        <time>2013-02-10T09:23:49Z</time>
      </trkpt>
      <trkpt lat="43.00501" lon="1.77342">
        <ele>548.5693359375</ele>
        <time>2013-02-10T09:23:57Z</time>
      </trkpt>
      <trkpt lat="43.00489" lon="1.77339">
        <ele>549.05004882812</ele>
        <time>2013-02-10T09:24:04Z</time>
      </trkpt>
      <trkpt lat="43.00477" lon="1.77334">
        <ele>549.05004882812</ele>
        <time>2013-02-10T09:24:11Z</time>
      </trkpt>
      <trkpt lat="43.00468" lon="1.7733">
        <ele>550.97265625</ele>
        <time>2013-02-10T09:24:19Z</time>
      </trkpt>
      <trkpt lat="43.00459" lon="1.77328">
        <ele>551.45336914062</ele>
        <time>2013-02-10T09:24:28Z</time>
      </trkpt>
      <trkpt lat="43.00449" lon="1.77325">
        <ele>552.89526367188</ele>
        <time>2013-02-10T09:24:36Z</time>
      </trkpt>
      <trkpt lat="43.00442" lon="1.77322">
        <ele>553.3759765625</ele>
        <time>2013-02-10T09:24:42Z</time>
      </trkpt>
      <trkpt lat="43.00437" lon="1.77322">
        <ele>554.33740234375</ele>
        <time>2013-02-10T09:24:47Z</time>
      </trkpt>
      <trkpt lat="43.00432" lon="1.77324">
        <ele>555.29858398438</ele>
        <time>2013-02-10T09:24:51Z</time>
      </trkpt>
      <trkpt lat="43.00423" lon="1.77323">
        <ele>557.7021484375</ele>
        <time>2013-02-10T09:24:59Z</time>
      </trkpt>
      <trkpt lat="43.00415" lon="1.77327">
        <ele>560.10522460938</ele>
        <time>2013-02-10T09:25:06Z</time>
      </trkpt>
      <trkpt lat="43.00408" lon="1.77333">
        <ele>562.02807617188</ele>
        <time>2013-02-10T09:25:13Z</time>
      </trkpt>
      <trkpt lat="43.00402" lon="1.77339">
        <ele>564.43115234375</ele>
        <time>2013-02-10T09:25:19Z</time>
      </trkpt>
      <trkpt lat="43.00396" lon="1.77346">
        <ele>564.91186523438</ele>
        <time>2013-02-10T09:25:25Z</time>
      </trkpt>
      <trkpt lat="43.00386" lon="1.77351">
        <ele>564.43115234375</ele>
        <time>2013-02-10T09:25:33Z</time>
      </trkpt>
      <trkpt lat="43.00377" lon="1.77356">
        <ele>565.392578125</ele>
        <time>2013-02-10T09:25:41Z</time>
      </trkpt>
      <trkpt lat="43.0037" lon="1.77359">
        <ele>565.392578125</ele>
        <time>2013-02-10T09:25:47Z</time>
      </trkpt>
      <trkpt lat="43.00363" lon="1.77364">
        <ele>566.35375976562</ele>
        <time>2013-02-10T09:25:53Z</time>
      </trkpt>
      <trkpt lat="43.00357" lon="1.77366">
        <ele>567.31518554688</ele>
        <time>2013-02-10T09:25:57Z</time>
      </trkpt>
      <trkpt lat="43.00347" lon="1.7737">
        <ele>568.2763671875</ele>
        <time>2013-02-10T09:26:05Z</time>
      </trkpt>
      <trkpt lat="43.00337" lon="1.77374">
        <ele>570.19897460938</ele>
        <time>2013-02-10T09:26:13Z</time>
      </trkpt>
      <trkpt lat="43.00327" lon="1.7738">
        <ele>572.6025390625</ele>
        <time>2013-02-10T09:26:22Z</time>
      </trkpt>
      <trkpt lat="43.00325" lon="1.77381">
        <ele>573.08325195312</ele>
        <time>2013-02-10T09:26:24Z</time>
      </trkpt>
      <trkpt lat="43.00318" lon="1.77381">
        <ele>574.52514648438</ele>
        <time>2013-02-10T09:26:29Z</time>
      </trkpt>
      <trkpt lat="43.00306" lon="1.77383">
        <ele>575.96704101562</ele>
        <time>2013-02-10T09:26:35Z</time>
      </trkpt>
      <trkpt lat="43.00292" lon="1.77383">
        <ele>575.486328125</ele>
        <time>2013-02-10T09:26:42Z</time>
      </trkpt>
      <trkpt lat="43.00281" lon="1.77382">
        <ele>573.56396484375</ele>
        <time>2013-02-10T09:26:46Z</time>
      </trkpt>
      <trkpt lat="43.00269" lon="1.77382">
        <ele>572.12182617188</ele>
        <time>2013-02-10T09:26:50Z</time>
      </trkpt>
      <trkpt lat="43.00265" lon="1.77383">
        <ele>571.16040039062</ele>
        <time>2013-02-10T09:26:52Z</time>
      </trkpt>
      <trkpt lat="43.00255" lon="1.77381">
        <ele>570.19897460938</ele>
        <time>2013-02-10T09:26:56Z</time>
      </trkpt>
      <trkpt lat="43.00239" lon="1.77379">
        <ele>571.16040039062</ele>
        <time>2013-02-10T09:27:03Z</time>
      </trkpt>
      <trkpt lat="43.00227" lon="1.7738">
        <ele>569.23779296875</ele>
        <time>2013-02-10T09:27:08Z</time>
      </trkpt>
      <trkpt lat="43.00217" lon="1.77377">
        <ele>567.79565429688</ele>
        <time>2013-02-10T09:27:11Z</time>
      </trkpt>
      <trkpt lat="43.00203" lon="1.77374">
        <ele>567.31518554688</ele>
        <time>2013-02-10T09:27:16Z</time>
      </trkpt>
      <trkpt lat="43.00194" lon="1.77375">
        <ele>566.35375976562</ele>
        <time>2013-02-10T09:27:20Z</time>
      </trkpt>
      <trkpt lat="43.00184" lon="1.77373">
        <ele>564.91186523438</ele>
        <time>2013-02-10T09:27:25Z</time>
      </trkpt>
      <trkpt lat="43.00179" lon="1.77374">
        <ele>562.9892578125</ele>
        <time>2013-02-10T09:27:28Z</time>
      </trkpt>
      <trkpt lat="43.00164" lon="1.77374">
        <ele>560.10522460938</ele>
        <time>2013-02-10T09:27:34Z</time>
      </trkpt>
      <trkpt lat="43.00153" lon="1.77375">
        <ele>559.14404296875</ele>
        <time>2013-02-10T09:27:38Z</time>
      </trkpt>
      <trkpt lat="43.00143" lon="1.77378">
        <ele>557.7021484375</ele>
        <time>2013-02-10T09:27:42Z</time>
      </trkpt>
      <trkpt lat="43.00128" lon="1.7738">
        <ele>556.26000976562</ele>
        <time>2013-02-10T09:27:48Z</time>
      </trkpt>
      <trkpt lat="43.00113" lon="1.77382">
        <ele>554.33740234375</ele>
        <time>2013-02-10T09:27:54Z</time>
      </trkpt>
      <trkpt lat="43.001" lon="1.77384">
        <ele>554.33740234375</ele>
        <time>2013-02-10T09:27:59Z</time>
      </trkpt>
      <trkpt lat="43.00092" lon="1.77387">
        <ele>555.29858398438</ele>
        <time>2013-02-10T09:28:05Z</time>
      </trkpt>
      <trkpt lat="43.00082" lon="1.7739">
        <ele>554.33740234375</ele>
        <time>2013-02-10T09:28:13Z</time>
      </trkpt>
      <trkpt lat="43.00074" lon="1.77391">
        <ele>553.3759765625</ele>
        <time>2013-02-10T09:28:20Z</time>
      </trkpt>
      <trkpt lat="43.00065" lon="1.77392">
        <ele>556.26000976562</ele>
        <time>2013-02-10T09:28:27Z</time>
      </trkpt>
      <trkpt lat="43.00064" lon="1.77391">
        <ele>556.26000976562</ele>
        <time>2013-02-10T09:28:28Z</time>
      </trkpt>
      <trkpt lat="43.00056" lon="1.77389">
        <ele>556.74072265625</ele>
        <time>2013-02-10T09:28:35Z</time>
      </trkpt>
      <trkpt lat="43.00048" lon="1.77385">
        <ele>558.18286132812</ele>
        <time>2013-02-10T09:28:43Z</time>
      </trkpt>
      <trkpt lat="43.00039" lon="1.77384">
        <ele>562.50854492188</ele>
        <time>2013-02-10T09:28:52Z</time>
      </trkpt>
      <trkpt lat="43.00035" lon="1.77385">
        <ele>562.9892578125</ele>
        <time>2013-02-10T09:28:56Z</time>
      </trkpt>
      <trkpt lat="43.00029" lon="1.77383">
        <ele>565.392578125</ele>
        <time>2013-02-10T09:29:03Z</time>
      </trkpt>
      <trkpt lat="43.00023" lon="1.77384">
        <ele>567.79565429688</ele>
        <time>2013-02-10T09:29:11Z</time>
      </trkpt>
      <trkpt lat="43.00015" lon="1.77386">
        <ele>571.64086914062</ele>
        <time>2013-02-10T09:29:20Z</time>
      </trkpt>
      <trkpt lat="43.00008" lon="1.77389">
        <ele>573.08325195312</ele>
        <time>2013-02-10T09:29:28Z</time>
      </trkpt>
      <trkpt lat="43.00004" lon="1.7739">
        <ele>574.04443359375</ele>
        <time>2013-02-10T09:29:33Z</time>
      </trkpt>
      <trkpt lat="42.99996" lon="1.77392">
        <ele>576.44775390625</ele>
        <time>2013-02-10T09:29:42Z</time>
      </trkpt>
      <trkpt lat="42.99991" lon="1.77394">
        <ele>577.8896484375</ele>
        <time>2013-02-10T09:29:48Z</time>
      </trkpt>
      <trkpt lat="42.99986" lon="1.77396">
        <ele>578.85107421875</ele>
        <time>2013-02-10T09:29:54Z</time>
      </trkpt>
      <trkpt lat="42.99981" lon="1.77398">
        <ele>580.29296875</ele>
        <time>2013-02-10T09:30:00Z</time>
      </trkpt>
      <trkpt lat="42.99974" lon="1.77401">
        <ele>582.21557617188</ele>
        <time>2013-02-10T09:30:07Z</time>
      </trkpt>
      <trkpt lat="42.99968" lon="1.77404">
        <ele>582.6962890625</ele>
        <time>2013-02-10T09:30:15Z</time>
      </trkpt>
      <trkpt lat="42.99962" lon="1.77406">
        <ele>584.13818359375</ele>
        <time>2013-02-10T09:30:21Z</time>
      </trkpt>
      <trkpt lat="42.99957" lon="1.77407">
        <ele>584.61889648438</ele>
        <time>2013-02-10T09:30:27Z</time>
      </trkpt>
      <trkpt lat="42.99949" lon="1.77409">
        <ele>585.580078125</ele>
        <time>2013-02-10T09:30:35Z</time>
      </trkpt>
      <trkpt lat="42.99943" lon="1.77407">
        <ele>586.54150390625</ele>
        <time>2013-02-10T09:30:41Z</time>
      </trkpt>
      <trkpt lat="42.99937" lon="1.77401">
        <ele>587.02197265625</ele>
        <time>2013-02-10T09:30:49Z</time>
      </trkpt>
      <trkpt lat="42.99932" lon="1.77395">
        <ele>587.9833984375</ele>
        <time>2013-02-10T09:30:54Z</time>
      </trkpt>
      <trkpt lat="42.99932" lon="1.77381">
        <ele>587.50268554688</ele>
        <time>2013-02-10T09:31:01Z</time>
      </trkpt>
      <trkpt lat="42.99935" lon="1.77367">
        <ele>585.099609375</ele>
        <time>2013-02-10T09:31:06Z</time>
      </trkpt>
      <trkpt lat="42.9994" lon="1.77353">
        <ele>583.1767578125</ele>
        <time>2013-02-10T09:31:10Z</time>
      </trkpt>
      <trkpt lat="42.99948" lon="1.77338">
        <ele>580.77368164062</ele>
        <time>2013-02-10T09:31:15Z</time>
      </trkpt>
      <trkpt lat="42.99955" lon="1.77322">
        <ele>578.37036132812</ele>
        <time>2013-02-10T09:31:20Z</time>
      </trkpt>
      <trkpt lat="42.99961" lon="1.77305">
        <ele>575.96704101562</ele>
        <time>2013-02-10T09:31:26Z</time>
      </trkpt>
      <trkpt lat="42.99965" lon="1.77295">
        <ele>575.005859375</ele>
        <time>2013-02-10T09:31:29Z</time>
      </trkpt>
      <trkpt lat="42.99969" lon="1.77283">
        <ele>574.52514648438</ele>
        <time>2013-02-10T09:31:33Z</time>
      </trkpt>
      <trkpt lat="42.99973" lon="1.77271">
        <ele>572.6025390625</ele>
        <time>2013-02-10T09:31:36Z</time>
      </trkpt>
      <trkpt lat="42.9998" lon="1.77254">
        <ele>571.16040039062</ele>
        <time>2013-02-10T09:31:41Z</time>
      </trkpt>
      <trkpt lat="42.99986" lon="1.77237">
        <ele>570.19897460938</ele>
        <time>2013-02-10T09:31:46Z</time>
      </trkpt>
      <trkpt lat="42.9999" lon="1.77217">
        <ele>569.23779296875</ele>
        <time>2013-02-10T09:31:52Z</time>
      </trkpt>
      <trkpt lat="42.9999" lon="1.77214">
        <ele>569.23779296875</ele>
        <time>2013-02-10T09:31:53Z</time>
      </trkpt>
      <trkpt lat="42.99991" lon="1.772">
        <ele>567.79565429688</ele>
        <time>2013-02-10T09:31:59Z</time>
      </trkpt>
      <trkpt lat="42.99993" lon="1.7718">
        <ele>564.91186523438</ele>
        <time>2013-02-10T09:32:06Z</time>
      </trkpt>
      <trkpt lat="42.99994" lon="1.77166">
        <ele>562.50854492188</ele>
        <time>2013-02-10T09:32:12Z</time>
      </trkpt>
      <trkpt lat="42.99994" lon="1.77157">
        <ele>561.06665039062</ele>
        <time>2013-02-10T09:32:16Z</time>
      </trkpt>
      <trkpt lat="42.99994" lon="1.77155">
        <ele>560.10522460938</ele>
        <time>2013-02-10T09:32:17Z</time>
      </trkpt>
      <trkpt lat="42.99997" lon="1.77144">
        <ele>558.18286132812</ele>
        <time>2013-02-10T09:32:22Z</time>
      </trkpt>
      <trkpt lat="42.99998" lon="1.77138">
        <ele>557.22143554688</ele>
        <time>2013-02-10T09:32:24Z</time>
      </trkpt>
      <trkpt lat="42.99997" lon="1.77134">
        <ele>556.74072265625</ele>
        <time>2013-02-10T09:32:26Z</time>
      </trkpt>
      <trkpt lat="42.99995" lon="1.77124">
        <ele>557.22143554688</ele>
        <time>2013-02-10T09:32:32Z</time>
      </trkpt>
      <trkpt lat="42.99998" lon="1.7711">
        <ele>556.74072265625</ele>
        <time>2013-02-10T09:32:36Z</time>
      </trkpt>
      <trkpt lat="43.00002" lon="1.77097">
        <ele>556.74072265625</ele>
        <time>2013-02-10T09:32:40Z</time>
      </trkpt>
      <trkpt lat="43.00008" lon="1.77087">
        <ele>556.74072265625</ele>
        <time>2013-02-10T09:32:46Z</time>
      </trkpt>
      <trkpt lat="43.00011" lon="1.77093">
        <ele>556.26000976562</ele>
        <time>2013-02-10T09:32:49Z</time>
      </trkpt>
      <trkpt lat="43.00018" lon="1.77098">
        <ele>553.85668945312</ele>
        <time>2013-02-10T09:32:53Z</time>
      </trkpt>
      <trkpt lat="43.00023" lon="1.771">
        <ele>550.97265625</ele>
        <time>2013-02-10T09:32:56Z</time>
      </trkpt>
      <trkpt lat="43.00033" lon="1.77099">
        <ele>548.0888671875</ele>
        <time>2013-02-10T09:33:00Z</time>
      </trkpt>
      <trkpt lat="43.00046" lon="1.77095">
        <ele>543.76281738281</ele>
        <time>2013-02-10T09:33:05Z</time>
      </trkpt>
      <trkpt lat="43.00059" lon="1.77085">
        <ele>537.51428222656</ele>
        <time>2013-02-10T09:33:11Z</time>
      </trkpt>
      <trkpt lat="43.00066" lon="1.77081">
        <ele>536.07238769531</ele>
        <time>2013-02-10T09:33:14Z</time>
      </trkpt>
      <trkpt lat="43.00082" lon="1.77079">
        <ele>533.6689453125</ele>
        <time>2013-02-10T09:33:20Z</time>
      </trkpt>
      <trkpt lat="43.00085" lon="1.7708">
        <ele>533.18835449219</ele>
        <time>2013-02-10T09:33:21Z</time>
      </trkpt>
      <trkpt lat="43.00096" lon="1.77083">
        <ele>532.22705078125</ele>
        <time>2013-02-10T09:33:26Z</time>
      </trkpt>
      <trkpt lat="43.00108" lon="1.77083">
        <ele>532.22705078125</ele>
        <time>2013-02-10T09:33:32Z</time>
      </trkpt>
      <trkpt lat="43.00113" lon="1.77081">
        <ele>530.78515625</ele>
        <time>2013-02-10T09:33:34Z</time>
      </trkpt>
      <trkpt lat="43.00127" lon="1.7708">
        <ele>527.90100097656</ele>
        <time>2013-02-10T09:33:39Z</time>
      </trkpt>
      <trkpt lat="43.00142" lon="1.77083">
        <ele>526.45910644531</ele>
        <time>2013-02-10T09:33:44Z</time>
      </trkpt>
      <trkpt lat="43.00153" lon="1.77083">
        <ele>526.45910644531</ele>
        <time>2013-02-10T09:33:48Z</time>
      </trkpt>
      <trkpt lat="43.00155" lon="1.77082">
        <ele>526.45910644531</ele>
        <time>2013-02-10T09:33:49Z</time>
      </trkpt>
      <trkpt lat="43.00172" lon="1.77089">
        <ele>527.42041015625</ele>
        <time>2013-02-10T09:33:55Z</time>
      </trkpt>
      <trkpt lat="43.00188" lon="1.77091">
        <ele>528.86254882812</ele>
        <time>2013-02-10T09:33:59Z</time>
      </trkpt>
      <trkpt lat="43.00207" lon="1.77087">
        <ele>526.45910644531</ele>
        <time>2013-02-10T09:34:04Z</time>
      </trkpt>
      <trkpt lat="43.00218" lon="1.7708">
        <ele>524.53649902344</ele>
        <time>2013-02-10T09:34:08Z</time>
      </trkpt>
      <trkpt lat="43.00227" lon="1.77069">
        <ele>520.69128417969</ele>
        <time>2013-02-10T09:34:13Z</time>
      </trkpt>
      <trkpt lat="43.00233" lon="1.77059">
        <ele>517.80725097656</ele>
        <time>2013-02-10T09:34:17Z</time>
      </trkpt>
      <trkpt lat="43.00247" lon="1.7705">
        <ele>517.32666015625</ele>
        <time>2013-02-10T09:34:23Z</time>
      </trkpt>
      <trkpt lat="43.0026" lon="1.77041">
        <ele>515.88464355469</ele>
        <time>2013-02-10T09:34:29Z</time>
      </trkpt>
      <trkpt lat="43.00259" lon="1.77051">
        <ele>516.365234375</ele>
        <time>2013-02-10T09:34:33Z</time>
      </trkpt>
      <trkpt lat="43.00258" lon="1.77061">
        <ele>516.84594726562</ele>
        <time>2013-02-10T09:34:36Z</time>
      </trkpt>
      <trkpt lat="43.00258" lon="1.77067">
        <ele>518.7685546875</ele>
        <time>2013-02-10T09:34:38Z</time>
      </trkpt>
      <trkpt lat="43.00255" lon="1.77076">
        <ele>520.21057128906</ele>
        <time>2013-02-10T09:34:43Z</time>
      </trkpt>
      <trkpt lat="43.00248" lon="1.77089">
        <ele>519.72985839844</ele>
        <time>2013-02-10T09:34:48Z</time>
      </trkpt>
      <trkpt lat="43.00242" lon="1.77101">
        <ele>519.24926757812</ele>
        <time>2013-02-10T09:34:52Z</time>
      </trkpt>
      <trkpt lat="43.00237" lon="1.77117">
        <ele>518.7685546875</ele>
        <time>2013-02-10T09:34:57Z</time>
      </trkpt>
      <trkpt lat="43.00233" lon="1.77132">
        <ele>518.7685546875</ele>
        <time>2013-02-10T09:35:01Z</time>
      </trkpt>
      <trkpt lat="43.0024" lon="1.77148">
        <ele>518.7685546875</ele>
        <time>2013-02-10T09:35:07Z</time>
      </trkpt>
      <trkpt lat="43.00246" lon="1.77162">
        <ele>517.32666015625</ele>
        <time>2013-02-10T09:35:11Z</time>
      </trkpt>
      <trkpt lat="43.00247" lon="1.77166">
        <ele>515.40405273438</ele>
        <time>2013-02-10T09:35:13Z</time>
      </trkpt>
      <trkpt lat="43.00256" lon="1.77159">
        <ele>507.23278808594</ele>
        <time>2013-02-10T09:35:18Z</time>
      </trkpt>
      <trkpt lat="43.00265" lon="1.77148">
        <ele>499.0615234375</ele>
        <time>2013-02-10T09:35:24Z</time>
      </trkpt>
      <trkpt lat="43.00269" lon="1.77131">
        <ele>491.37097167969</ele>
        <time>2013-02-10T09:35:29Z</time>
      </trkpt>
      <trkpt lat="43.00278" lon="1.77118">
        <ele>486.08374023438</ele>
        <time>2013-02-10T09:35:34Z</time>
      </trkpt>
      <trkpt lat="43.00287" lon="1.77107">
        <ele>480.31591796875</ele>
        <time>2013-02-10T09:35:39Z</time>
      </trkpt>
      <trkpt lat="43.00295" lon="1.77097">
        <ele>479.83508300781</ele>
        <time>2013-02-10T09:35:43Z</time>
      </trkpt>
      <trkpt lat="43.00305" lon="1.7708">
        <ele>478.39318847656</ele>
        <time>2013-02-10T09:35:49Z</time>
      </trkpt>
      <trkpt lat="43.00318" lon="1.7707">
        <ele>479.3544921875</ele>
        <time>2013-02-10T09:35:53Z</time>
      </trkpt>
      <trkpt lat="43.00321" lon="1.77069">
        <ele>479.3544921875</ele>
        <time>2013-02-10T09:35:54Z</time>
      </trkpt>
      <trkpt lat="43.00331" lon="1.77051">
        <ele>477.43188476562</ele>
        <time>2013-02-10T09:36:00Z</time>
      </trkpt>
      <trkpt lat="43.00342" lon="1.77035">
        <ele>475.50927734375</ele>
        <time>2013-02-10T09:36:06Z</time>
      </trkpt>
      <trkpt lat="43.00356" lon="1.77022">
        <ele>472.62536621094</ele>
        <time>2013-02-10T09:36:12Z</time>
      </trkpt>
      <trkpt lat="43.0037" lon="1.77008">
        <ele>468.78002929688</ele>
        <time>2013-02-10T09:36:18Z</time>
      </trkpt>
      <trkpt lat="43.00381" lon="1.7699">
        <ele>463.97338867188</ele>
        <time>2013-02-10T09:36:24Z</time>
      </trkpt>
      <trkpt lat="43.00389" lon="1.76973">
        <ele>462.53137207031</ele>
        <time>2013-02-10T09:36:29Z</time>
      </trkpt>
      <trkpt lat="43.00395" lon="1.76959">
        <ele>461.57019042969</ele>
        <time>2013-02-10T09:36:33Z</time>
      </trkpt>
      <trkpt lat="43.00402" lon="1.76942">
        <ele>459.64758300781</ele>
        <time>2013-02-10T09:36:38Z</time>
      </trkpt>
      <trkpt lat="43.00406" lon="1.76933">
        <ele>458.20556640625</ele>
        <time>2013-02-10T09:36:41Z</time>
      </trkpt>
      <trkpt lat="43.00407" lon="1.76917">
        <ele>458.20556640625</ele>
        <time>2013-02-10T09:36:46Z</time>
      </trkpt>
      <trkpt lat="43.00409" lon="1.76901">
        <ele>457.72497558594</ele>
        <time>2013-02-10T09:36:50Z</time>
      </trkpt>
      <trkpt lat="43.00421" lon="1.76885">
        <ele>455.32153320312</ele>
        <time>2013-02-10T09:36:56Z</time>
      </trkpt>
      <trkpt lat="43.00431" lon="1.76879">
        <ele>453.39892578125</ele>
        <time>2013-02-10T09:37:00Z</time>
      </trkpt>
      <trkpt lat="43.00445" lon="1.76867">
        <ele>449.07299804688</ele>
        <time>2013-02-10T09:37:06Z</time>
      </trkpt>
      <trkpt lat="43.00453" lon="1.76847">
        <ele>446.66967773438</ele>
        <time>2013-02-10T09:37:12Z</time>
      </trkpt>
      <trkpt lat="43.00459" lon="1.76831">
        <ele>445.22766113281</ele>
        <time>2013-02-10T09:37:17Z</time>
      </trkpt>
      <trkpt lat="43.00465" lon="1.76816">
        <ele>443.78576660156</ele>
        <time>2013-02-10T09:37:22Z</time>
      </trkpt>
      <trkpt lat="43.0047" lon="1.76802">
        <ele>442.82446289062</ele>
        <time>2013-02-10T09:37:26Z</time>
      </trkpt>
      <trkpt lat="43.00481" lon="1.76786">
        <ele>440.90185546875</ele>
        <time>2013-02-10T09:37:31Z</time>
      </trkpt>
      <trkpt lat="43.0049" lon="1.76768">
        <ele>440.42126464844</ele>
        <time>2013-02-10T09:37:36Z</time>
      </trkpt>
      <trkpt lat="43.00498" lon="1.76751">
        <ele>439.9404296875</ele>
        <time>2013-02-10T09:37:41Z</time>
      </trkpt>
      <trkpt lat="43.00501" lon="1.76732">
        <ele>440.42126464844</ele>
        <time>2013-02-10T09:37:46Z</time>
      </trkpt>
      <trkpt lat="43.00503" lon="1.76711">
        <ele>439.45971679688</ele>
        <time>2013-02-10T09:37:52Z</time>
      </trkpt>
      <trkpt lat="43.00504" lon="1.76704">
        <ele>438.49853515625</ele>
        <time>2013-02-10T09:37:54Z</time>
      </trkpt>
      <trkpt lat="43.00505" lon="1.76688">
        <ele>437.537109375</ele>
        <time>2013-02-10T09:37:59Z</time>
      </trkpt>
      <trkpt lat="43.00507" lon="1.7667">
        <ele>438.01782226562</ele>
        <time>2013-02-10T09:38:04Z</time>
      </trkpt>
      <trkpt lat="43.00512" lon="1.76658">
        <ele>438.49853515625</ele>
        <time>2013-02-10T09:38:08Z</time>
      </trkpt>
      <trkpt lat="43.00516" lon="1.76646">
        <ele>438.97912597656</ele>
        <time>2013-02-10T09:38:12Z</time>
      </trkpt>
      <trkpt lat="43.00521" lon="1.76625">
        <ele>439.45971679688</ele>
        <time>2013-02-10T09:38:18Z</time>
      </trkpt>
      <trkpt lat="43.00525" lon="1.76606">
        <ele>440.42126464844</ele>
        <time>2013-02-10T09:38:23Z</time>
      </trkpt>
      <trkpt lat="43.00531" lon="1.76593">
        <ele>439.45971679688</ele>
        <time>2013-02-10T09:38:27Z</time>
      </trkpt>
      <trkpt lat="43.0054" lon="1.7658">
        <ele>438.01782226562</ele>
        <time>2013-02-10T09:38:32Z</time>
      </trkpt>
      <trkpt lat="43.00546" lon="1.76568">
        <ele>437.05651855469</ele>
        <time>2013-02-10T09:38:36Z</time>
      </trkpt>
      <trkpt lat="43.00556" lon="1.7656">
        <ele>436.57592773438</ele>
        <time>2013-02-10T09:38:41Z</time>
      </trkpt>
      <trkpt lat="43.0056" lon="1.76555">
        <ele>435.13391113281</ele>
        <time>2013-02-10T09:38:44Z</time>
      </trkpt>
      <trkpt lat="43.00568" lon="1.76538">
        <ele>434.17260742188</ele>
        <time>2013-02-10T09:38:49Z</time>
      </trkpt>
      <trkpt lat="43.00574" lon="1.76519">
        <ele>433.21130371094</ele>
        <time>2013-02-10T09:38:54Z</time>
      </trkpt>
      <trkpt lat="43.00579" lon="1.765">
        <ele>431.76916503906</ele>
        <time>2013-02-10T09:38:59Z</time>
      </trkpt>
      <trkpt lat="43.00583" lon="1.76476">
        <ele>429.84655761719</ele>
        <time>2013-02-10T09:39:05Z</time>
      </trkpt>
      <trkpt lat="43.00586" lon="1.76462">
        <ele>428.40466308594</ele>
        <time>2013-02-10T09:39:09Z</time>
      </trkpt>
      <trkpt lat="43.00591" lon="1.76443">
        <ele>426.96276855469</ele>
        <time>2013-02-10T09:39:14Z</time>
      </trkpt>
      <trkpt lat="43.00595" lon="1.76426">
        <ele>425.52075195312</ele>
        <time>2013-02-10T09:39:19Z</time>
      </trkpt>
      <trkpt lat="43.00601" lon="1.76406">
        <ele>424.07873535156</ele>
        <time>2013-02-10T09:39:24Z</time>
      </trkpt>
      <trkpt lat="43.00606" lon="1.76387">
        <ele>422.63671875</ele>
        <time>2013-02-10T09:39:29Z</time>
      </trkpt>
      <trkpt lat="43.00607" lon="1.7638">
        <ele>421.67541503906</ele>
        <time>2013-02-10T09:39:31Z</time>
      </trkpt>
      <trkpt lat="43.00605" lon="1.76366">
        <ele>421.67541503906</ele>
        <time>2013-02-10T09:39:36Z</time>
      </trkpt>
      <trkpt lat="43.00602" lon="1.76364">
        <ele>421.67541503906</ele>
        <time>2013-02-10T09:39:42Z</time>
      </trkpt>
      <trkpt lat="43.00603" lon="1.76366">
        <ele>421.67541503906</ele>
        <time>2013-02-10T09:39:58Z</time>
      </trkpt>
      <trkpt lat="43.00605" lon="1.76365">
        <ele>421.67541503906</ele>
        <time>2013-02-10T09:40:06Z</time>
      </trkpt>
      <trkpt lat="43.0061" lon="1.76364">
        <ele>421.19482421875</ele>
        <time>2013-02-10T09:40:10Z</time>
      </trkpt>
      <trkpt lat="43.00621" lon="1.76359">
        <ele>419.75280761719</ele>
        <time>2013-02-10T09:40:16Z</time>
      </trkpt>
      <trkpt lat="43.00632" lon="1.76361">
        <ele>418.79150390625</ele>
        <time>2013-02-10T09:40:21Z</time>
      </trkpt>
      <trkpt lat="43.00642" lon="1.76359">
        <ele>416.86889648438</ele>
        <time>2013-02-10T09:40:25Z</time>
      </trkpt>
      <trkpt lat="43.00648" lon="1.76348">
        <ele>414.46545410156</ele>
        <time>2013-02-10T09:40:29Z</time>
      </trkpt>
      <trkpt lat="43.00655" lon="1.76326">
        <ele>411.58166503906</ele>
        <time>2013-02-10T09:40:35Z</time>
      </trkpt>
      <trkpt lat="43.0066" lon="1.76309">
        <ele>411.10095214844</ele>
        <time>2013-02-10T09:40:40Z</time>
      </trkpt>
      <trkpt lat="43.00666" lon="1.76293">
        <ele>409.65905761719</ele>
        <time>2013-02-10T09:40:45Z</time>
      </trkpt>
      <trkpt lat="43.00673" lon="1.76282">
        <ele>409.17834472656</ele>
        <time>2013-02-10T09:40:49Z</time>
      </trkpt>
      <trkpt lat="43.00682" lon="1.76267">
        <ele>407.25561523438</ele>
        <time>2013-02-10T09:40:54Z</time>
      </trkpt>
      <trkpt lat="43.00689" lon="1.76252">
        <ele>406.77490234375</ele>
        <time>2013-02-10T09:40:59Z</time>
      </trkpt>
      <trkpt lat="43.0069" lon="1.7625">
        <ele>406.77490234375</ele>
        <time>2013-02-10T09:41:00Z</time>
      </trkpt>
      <trkpt lat="43.00695" lon="1.76232">
        <ele>406.77490234375</ele>
        <time>2013-02-10T09:41:05Z</time>
      </trkpt>
      <trkpt lat="43.00697" lon="1.76226">
        <ele>406.29431152344</ele>
        <time>2013-02-10T09:41:07Z</time>
      </trkpt>
      <trkpt lat="43.00712" lon="1.76214">
        <ele>405.3330078125</ele>
        <time>2013-02-10T09:41:14Z</time>
      </trkpt>
      <trkpt lat="43.00721" lon="1.76206">
        <ele>402.9296875</ele>
        <time>2013-02-10T09:41:19Z</time>
      </trkpt>
      <trkpt lat="43.00723" lon="1.76204">
        <ele>402.44909667969</ele>
        <time>2013-02-10T09:41:20Z</time>
      </trkpt>
      <trkpt lat="43.00726" lon="1.76201">
        <ele>401.96850585938</ele>
        <time>2013-02-10T09:41:24Z</time>
      </trkpt>
      <trkpt lat="43.00729" lon="1.76193">
        <ele>401.96850585938</ele>
        <time>2013-02-10T09:41:30Z</time>
      </trkpt>
      <trkpt lat="43.00737" lon="1.76192">
        <ele>401.96850585938</ele>
        <time>2013-02-10T09:41:33Z</time>
      </trkpt>
      <trkpt lat="43.00744" lon="1.76192">
        <ele>402.44909667969</ele>
        <time>2013-02-10T09:41:36Z</time>
      </trkpt>
      <trkpt lat="43.00761" lon="1.76192">
        <ele>404.85229492188</ele>
        <time>2013-02-10T09:41:42Z</time>
      </trkpt>
      <trkpt lat="43.00776" lon="1.76193">
        <ele>407.736328125</ele>
        <time>2013-02-10T09:41:48Z</time>
      </trkpt>
      <trkpt lat="43.00788" lon="1.76193">
        <ele>410.1396484375</ele>
        <time>2013-02-10T09:41:53Z</time>
      </trkpt>
      <trkpt lat="43.00804" lon="1.76188">
        <ele>409.17834472656</ele>
        <time>2013-02-10T09:41:59Z</time>
      </trkpt>
      <trkpt lat="43.0082" lon="1.76184">
        <ele>408.69763183594</ele>
        <time>2013-02-10T09:42:05Z</time>
      </trkpt>
      <trkpt lat="43.00835" lon="1.7618">
        <ele>408.21704101562</ele>
        <time>2013-02-10T09:42:11Z</time>
      </trkpt>
      <trkpt lat="43.00849" lon="1.76177">
        <ele>407.736328125</ele>
        <time>2013-02-10T09:42:16Z</time>
      </trkpt>
      <trkpt lat="43.00862" lon="1.76172">
        <ele>407.736328125</ele>
        <time>2013-02-10T09:42:21Z</time>
      </trkpt>
      <trkpt lat="43.00873" lon="1.76169">
        <ele>407.736328125</ele>
        <time>2013-02-10T09:42:25Z</time>
      </trkpt>
      <trkpt lat="43.0089" lon="1.76167">
        <ele>408.21704101562</ele>
        <time>2013-02-10T09:42:31Z</time>
      </trkpt>
      <trkpt lat="43.00901" lon="1.76169">
        <ele>408.69763183594</ele>
        <time>2013-02-10T09:42:36Z</time>
      </trkpt>
      <trkpt lat="43.00916" lon="1.76168">
        <ele>410.1396484375</ele>
        <time>2013-02-10T09:42:42Z</time>
      </trkpt>
      <trkpt lat="43.00922" lon="1.76162">
        <ele>410.62023925781</ele>
        <time>2013-02-10T09:42:47Z</time>
      </trkpt>
      <trkpt lat="43.00922" lon="1.76161">
        <ele>410.62023925781</ele>
        <time>2013-02-10T09:42:48Z</time>
      </trkpt>
      <trkpt lat="43.00925" lon="1.76156">
        <ele>410.62023925781</ele>
        <time>2013-02-10T09:42:53Z</time>
      </trkpt>
      <trkpt lat="43.00925" lon="1.76151">
        <ele>411.10095214844</ele>
        <time>2013-02-10T09:42:59Z</time>
      </trkpt>
      <trkpt lat="43.00921" lon="1.76143">
        <ele>413.98486328125</ele>
        <time>2013-02-10T09:43:06Z</time>
      </trkpt>
      <trkpt lat="43.00919" lon="1.76141">
        <ele>414.46545410156</ele>
        <time>2013-02-10T09:43:08Z</time>
      </trkpt>
      <trkpt lat="43.00912" lon="1.76135">
        <ele>415.42687988281</ele>
        <time>2013-02-10T09:43:16Z</time>
      </trkpt>
      <trkpt lat="43.00905" lon="1.76129">
        <ele>417.83020019531</ele>
        <time>2013-02-10T09:43:22Z</time>
      </trkpt>
      <trkpt lat="43.00903" lon="1.76126">
        <ele>417.83020019531</ele>
        <time>2013-02-10T09:43:24Z</time>
      </trkpt>
      <trkpt lat="43.00896" lon="1.76122">
        <ele>418.31079101562</ele>
        <time>2013-02-10T09:43:30Z</time>
      </trkpt>
      <trkpt lat="43.0089" lon="1.76117">
        <ele>418.79150390625</ele>
        <time>2013-02-10T09:43:37Z</time>
      </trkpt>
      <trkpt lat="43.00885" lon="1.76114">
        <ele>419.75280761719</ele>
        <time>2013-02-10T09:43:41Z</time>
      </trkpt>
      <trkpt lat="43.00876" lon="1.76112">
        <ele>419.75280761719</ele>
        <time>2013-02-10T09:43:49Z</time>
      </trkpt>
      <trkpt lat="43.00872" lon="1.76109">
        <ele>420.2333984375</ele>
        <time>2013-02-10T09:43:53Z</time>
      </trkpt>
      <trkpt lat="43.00861" lon="1.76103">
        <ele>423.11743164062</ele>
        <time>2013-02-10T09:44:02Z</time>
      </trkpt>
      <trkpt lat="43.0085" lon="1.76098">
        <ele>426.48205566406</ele>
        <time>2013-02-10T09:44:11Z</time>
      </trkpt>
      <trkpt lat="43.00841" lon="1.76094">
        <ele>426.48205566406</ele>
        <time>2013-02-10T09:44:18Z</time>
      </trkpt>
      <trkpt lat="43.00831" lon="1.76092">
        <ele>427.443359375</ele>
        <time>2013-02-10T09:44:26Z</time>
      </trkpt>
      <trkpt lat="43.0082" lon="1.76089">
        <ele>428.40466308594</ele>
        <time>2013-02-10T09:44:35Z</time>
      </trkpt>
      <trkpt lat="43.00811" lon="1.76086">
        <ele>430.80798339844</ele>
        <time>2013-02-10T09:44:42Z</time>
      </trkpt>
      <trkpt lat="43.0081" lon="1.76086">
        <ele>431.28857421875</ele>
        <time>2013-02-10T09:44:43Z</time>
      </trkpt>
      <trkpt lat="43.00802" lon="1.76085">
        <ele>433.21130371094</ele>
        <time>2013-02-10T09:44:50Z</time>
      </trkpt>
      <trkpt lat="43.00795" lon="1.76083">
        <ele>436.09521484375</ele>
        <time>2013-02-10T09:44:56Z</time>
      </trkpt>
      <trkpt lat="43.00793" lon="1.76083">
        <ele>436.09521484375</ele>
        <time>2013-02-10T09:44:57Z</time>
      </trkpt>
      <trkpt lat="43.00788" lon="1.7608">
        <ele>438.97912597656</ele>
        <time>2013-02-10T09:45:01Z</time>
      </trkpt>
      <trkpt lat="43.00783" lon="1.76077">
        <ele>439.45971679688</ele>
        <time>2013-02-10T09:45:06Z</time>
      </trkpt>
      <trkpt lat="43.00782" lon="1.76077">
        <ele>438.97912597656</ele>
        <time>2013-02-10T09:45:07Z</time>
      </trkpt>
      <trkpt lat="43.0078" lon="1.76075">
        <ele>437.537109375</ele>
        <time>2013-02-10T09:45:09Z</time>
      </trkpt>
      <trkpt lat="43.00772" lon="1.76073">
        <ele>435.13391113281</ele>
        <time>2013-02-10T09:45:15Z</time>
      </trkpt>
      <trkpt lat="43.00767" lon="1.76074">
        <ele>435.13391113281</ele>
        <time>2013-02-10T09:45:19Z</time>
      </trkpt>
      <trkpt lat="43.00757" lon="1.76068">
        <ele>434.17260742188</ele>
        <time>2013-02-10T09:45:27Z</time>
      </trkpt>
      <trkpt lat="43.00752" lon="1.76067">
        <ele>432.73071289062</ele>
        <time>2013-02-10T09:45:31Z</time>
      </trkpt>
      <trkpt lat="43.00749" lon="1.76066">
        <ele>432.25</ele>
        <time>2013-02-10T09:45:33Z</time>
      </trkpt>
      <trkpt lat="43.00737" lon="1.7606">
        <ele>431.76916503906</ele>
        <time>2013-02-10T09:45:42Z</time>
      </trkpt>
      <trkpt lat="43.00727" lon="1.76057">
        <ele>432.25</ele>
        <time>2013-02-10T09:45:49Z</time>
      </trkpt>
      <trkpt lat="43.00723" lon="1.76056">
        <ele>432.25</ele>
        <time>2013-02-10T09:45:52Z</time>
      </trkpt>
      <trkpt lat="43.00712" lon="1.76055">
        <ele>433.69189453125</ele>
        <time>2013-02-10T09:45:59Z</time>
      </trkpt>
      <trkpt lat="43.00708" lon="1.76053">
        <ele>433.69189453125</ele>
        <time>2013-02-10T09:46:02Z</time>
      </trkpt>
      <trkpt lat="43.00696" lon="1.76055">
        <ele>437.05651855469</ele>
        <time>2013-02-10T09:46:10Z</time>
      </trkpt>
      <trkpt lat="43.00686" lon="1.76057">
        <ele>441.38244628906</ele>
        <time>2013-02-10T09:46:16Z</time>
      </trkpt>
      <trkpt lat="43.00677" lon="1.76059">
        <ele>441.86315917969</ele>
        <time>2013-02-10T09:46:21Z</time>
      </trkpt>
      <trkpt lat="43.00667" lon="1.76057">
        <ele>443.30505371094</ele>
        <time>2013-02-10T09:46:28Z</time>
      </trkpt>
      <trkpt lat="43.0066" lon="1.7605">
        <ele>445.22766113281</ele>
        <time>2013-02-10T09:46:35Z</time>
      </trkpt>
      <trkpt lat="43.00653" lon="1.7604">
        <ele>445.70837402344</ele>
        <time>2013-02-10T09:46:40Z</time>
      </trkpt>
      <trkpt lat="43.00645" lon="1.76032">
        <ele>447.63098144531</ele>
        <time>2013-02-10T09:46:47Z</time>
      </trkpt>
      <trkpt lat="43.00637" lon="1.76026">
        <ele>449.5537109375</ele>
        <time>2013-02-10T09:46:54Z</time>
      </trkpt>
      <trkpt lat="43.0063" lon="1.76021">
        <ele>452.43762207031</ele>
        <time>2013-02-10T09:47:00Z</time>
      </trkpt>
      <trkpt lat="43.00622" lon="1.76017">
        <ele>454.8408203125</ele>
        <time>2013-02-10T09:47:07Z</time>
      </trkpt>
      <trkpt lat="43.00614" lon="1.76013">
        <ele>456.28295898438</ele>
        <time>2013-02-10T09:47:14Z</time>
      </trkpt>
      <trkpt lat="43.00611" lon="1.76012">
        <ele>456.76354980469</ele>
        <time>2013-02-10T09:47:16Z</time>
      </trkpt>
      <trkpt lat="43.00607" lon="1.76012">
        <ele>457.24426269531</ele>
        <time>2013-02-10T09:47:20Z</time>
      </trkpt>
      <trkpt lat="43.00596" lon="1.76011">
        <ele>458.68615722656</ele>
        <time>2013-02-10T09:47:28Z</time>
      </trkpt>
      <trkpt lat="43.00588" lon="1.76011">
        <ele>460.60876464844</ele>
        <time>2013-02-10T09:47:35Z</time>
      </trkpt>
      <trkpt lat="43.0058" lon="1.76009">
        <ele>461.57019042969</ele>
        <time>2013-02-10T09:47:42Z</time>
      </trkpt>
      <trkpt lat="43.00576" lon="1.76">
        <ele>463.49279785156</ele>
        <time>2013-02-10T09:47:50Z</time>
      </trkpt>
      <trkpt lat="43.00571" lon="1.75991">
        <ele>463.97338867188</ele>
        <time>2013-02-10T09:47:57Z</time>
      </trkpt>
      <trkpt lat="43.00563" lon="1.7598">
        <ele>464.93481445312</ele>
        <time>2013-02-10T09:48:06Z</time>
      </trkpt>
      <trkpt lat="43.00558" lon="1.75969">
        <ele>465.89611816406</ele>
        <time>2013-02-10T09:48:14Z</time>
      </trkpt>
      <trkpt lat="43.00553" lon="1.75961">
        <ele>464.93481445312</ele>
        <time>2013-02-10T09:48:21Z</time>
      </trkpt>
      <trkpt lat="43.00547" lon="1.7595">
        <ele>464.4541015625</ele>
        <time>2013-02-10T09:48:29Z</time>
      </trkpt>
      <trkpt lat="43.00544" lon="1.75939">
        <ele>465.89611816406</ele>
        <time>2013-02-10T09:48:33Z</time>
      </trkpt>
      <trkpt lat="43.00542" lon="1.7593">
        <ele>466.37670898438</ele>
        <time>2013-02-10T09:48:38Z</time>
      </trkpt>
      <trkpt lat="43.0054" lon="1.75923">
        <ele>468.29931640625</ele>
        <time>2013-02-10T09:48:43Z</time>
      </trkpt>
      <trkpt lat="43.00537" lon="1.75917">
        <ele>466.857421875</ele>
        <time>2013-02-10T09:48:47Z</time>
      </trkpt>
      <trkpt lat="43.00536" lon="1.75915">
        <ele>466.37670898438</ele>
        <time>2013-02-10T09:48:49Z</time>
      </trkpt>
      <trkpt lat="43.00532" lon="1.75909">
        <ele>465.89611816406</ele>
        <time>2013-02-10T09:48:56Z</time>
      </trkpt>
      <trkpt lat="43.00528" lon="1.75905">
        <ele>466.37670898438</ele>
        <time>2013-02-10T09:49:01Z</time>
      </trkpt>
      <trkpt lat="43.00522" lon="1.75903">
        <ele>467.81872558594</ele>
        <time>2013-02-10T09:49:07Z</time>
      </trkpt>
      <trkpt lat="43.00518" lon="1.75902">
        <ele>468.29931640625</ele>
        <time>2013-02-10T09:49:11Z</time>
      </trkpt>
      <trkpt lat="43.00514" lon="1.75904">
        <ele>468.78002929688</ele>
        <time>2013-02-10T09:49:14Z</time>
      </trkpt>
      <trkpt lat="43.00507" lon="1.75901">
        <ele>470.70263671875</ele>
        <time>2013-02-10T09:49:21Z</time>
      </trkpt>
      <trkpt lat="43.005" lon="1.75898">
        <ele>470.70263671875</ele>
        <time>2013-02-10T09:49:27Z</time>
      </trkpt>
      <trkpt lat="43.00497" lon="1.75897">
        <ele>470.70263671875</ele>
        <time>2013-02-10T09:49:30Z</time>
      </trkpt>
      <trkpt lat="43.0049" lon="1.75891">
        <ele>472.14465332031</ele>
        <time>2013-02-10T09:49:36Z</time>
      </trkpt>
      <trkpt lat="43.00485" lon="1.75885">
        <ele>474.06726074219</ele>
        <time>2013-02-10T09:49:39Z</time>
      </trkpt>
      <trkpt lat="43.0047" lon="1.75873">
        <ele>477.91247558594</ele>
        <time>2013-02-10T09:49:45Z</time>
      </trkpt>
      <trkpt lat="43.00457" lon="1.75868">
        <ele>480.79663085938</ele>
        <time>2013-02-10T09:49:50Z</time>
      </trkpt>
      <trkpt lat="43.00446" lon="1.75865">
        <ele>483.19982910156</ele>
        <time>2013-02-10T09:49:54Z</time>
      </trkpt>
      <trkpt lat="43.00441" lon="1.75861">
        <ele>483.68041992188</ele>
        <time>2013-02-10T09:49:56Z</time>
      </trkpt>
      <trkpt lat="43.00434" lon="1.75855">
        <ele>483.68041992188</ele>
        <time>2013-02-10T09:50:00Z</time>
      </trkpt>
      <trkpt lat="43.00432" lon="1.75839">
        <ele>481.7578125</ele>
        <time>2013-02-10T09:50:05Z</time>
      </trkpt>
      <trkpt lat="43.00432" lon="1.75822">
        <ele>480.79663085938</ele>
        <time>2013-02-10T09:50:10Z</time>
      </trkpt>
      <trkpt lat="43.0043" lon="1.75803">
        <ele>481.27722167969</ele>
        <time>2013-02-10T09:50:16Z</time>
      </trkpt>
      <trkpt lat="43.00428" lon="1.75789">
        <ele>481.7578125</ele>
        <time>2013-02-10T09:50:21Z</time>
      </trkpt>
      <trkpt lat="43.00427" lon="1.75779">
        <ele>482.23852539062</ele>
        <time>2013-02-10T09:50:26Z</time>
      </trkpt>
      <trkpt lat="43.00429" lon="1.75768">
        <ele>482.23852539062</ele>
        <time>2013-02-10T09:50:33Z</time>
      </trkpt>
      <trkpt lat="43.00431" lon="1.75759">
        <ele>481.7578125</ele>
        <time>2013-02-10T09:50:39Z</time>
      </trkpt>
      <trkpt lat="43.00434" lon="1.75749">
        <ele>481.7578125</ele>
        <time>2013-02-10T09:50:46Z</time>
      </trkpt>
      <trkpt lat="43.00436" lon="1.7574">
        <ele>482.71923828125</ele>
        <time>2013-02-10T09:50:53Z</time>
      </trkpt>
      <trkpt lat="43.00437" lon="1.75739">
        <ele>482.71923828125</ele>
        <time>2013-02-10T09:50:54Z</time>
      </trkpt>
      <trkpt lat="43.00441" lon="1.75731">
        <ele>482.23852539062</ele>
        <time>2013-02-10T09:51:02Z</time>
      </trkpt>
      <trkpt lat="43.00443" lon="1.75723">
        <ele>482.23852539062</ele>
        <time>2013-02-10T09:51:08Z</time>
      </trkpt>
      <trkpt lat="43.00444" lon="1.75716">
        <ele>483.68041992188</ele>
        <time>2013-02-10T09:51:14Z</time>
      </trkpt>
      <trkpt lat="43.00444" lon="1.75714">
        <ele>483.68041992188</ele>
        <time>2013-02-10T09:51:15Z</time>
      </trkpt>
      <trkpt lat="43.00442" lon="1.75701">
        <ele>487.04504394531</ele>
        <time>2013-02-10T09:51:22Z</time>
      </trkpt>
      <trkpt lat="43.00436" lon="1.75689">
        <ele>489.92907714844</ele>
        <time>2013-02-10T09:51:30Z</time>
      </trkpt>
      <trkpt lat="43.00432" lon="1.75683">
        <ele>491.37097167969</ele>
        <time>2013-02-10T09:51:35Z</time>
      </trkpt>
      <trkpt lat="43.00424" lon="1.75669">
        <ele>495.21618652344</ele>
        <time>2013-02-10T09:51:44Z</time>
      </trkpt>
      <trkpt lat="43.00416" lon="1.75659">
        <ele>496.65832519531</ele>
        <time>2013-02-10T09:51:51Z</time>
      </trkpt>
      <trkpt lat="43.00408" lon="1.7565">
        <ele>498.58093261719</ele>
        <time>2013-02-10T09:51:59Z</time>
      </trkpt>
      <trkpt lat="43.00402" lon="1.75642">
        <ele>500.02294921875</ele>
        <time>2013-02-10T09:52:05Z</time>
      </trkpt>
      <trkpt lat="43.00398" lon="1.75633">
        <ele>500.50354003906</ele>
        <time>2013-02-10T09:52:12Z</time>
      </trkpt>
      <trkpt lat="43.00395" lon="1.75622">
        <ele>501.46484375</ele>
        <time>2013-02-10T09:52:19Z</time>
      </trkpt>
      <trkpt lat="43.0039" lon="1.75616">
        <ele>501.46484375</ele>
        <time>2013-02-10T09:52:22Z</time>
      </trkpt>
      <trkpt lat="43.00383" lon="1.75606">
        <ele>502.42614746094</ele>
        <time>2013-02-10T09:52:26Z</time>
      </trkpt>
      <trkpt lat="43.00375" lon="1.75598">
        <ele>503.38745117188</ele>
        <time>2013-02-10T09:52:30Z</time>
      </trkpt>
      <trkpt lat="43.00365" lon="1.75592">
        <ele>504.34887695312</ele>
        <time>2013-02-10T09:52:34Z</time>
      </trkpt>
      <trkpt lat="43.00364" lon="1.7559">
        <ele>504.82946777344</ele>
        <time>2013-02-10T09:52:35Z</time>
      </trkpt>
      <trkpt lat="43.00355" lon="1.75575">
        <ele>505.79089355469</ele>
        <time>2013-02-10T09:52:41Z</time>
      </trkpt>
      <trkpt lat="43.00349" lon="1.75564">
        <ele>506.271484375</ele>
        <time>2013-02-10T09:52:45Z</time>
      </trkpt>
      <trkpt lat="43.00347" lon="1.7555">
        <ele>507.71350097656</ele>
        <time>2013-02-10T09:52:49Z</time>
      </trkpt>
      <trkpt lat="43.00342" lon="1.75536">
        <ele>509.15539550781</ele>
        <time>2013-02-10T09:52:54Z</time>
      </trkpt>
      <trkpt lat="43.00339" lon="1.75522">
        <ele>510.59729003906</ele>
        <time>2013-02-10T09:52:58Z</time>
      </trkpt>
      <trkpt lat="43.00333" lon="1.75513">
        <ele>511.55871582031</ele>
        <time>2013-02-10T09:53:02Z</time>
      </trkpt>
      <trkpt lat="43.00324" lon="1.75508">
        <ele>512.52001953125</ele>
        <time>2013-02-10T09:53:09Z</time>
      </trkpt>
      <trkpt lat="43.00315" lon="1.75505">
        <ele>512.52001953125</ele>
        <time>2013-02-10T09:53:15Z</time>
      </trkpt>
      <trkpt lat="43.00302" lon="1.75505">
        <ele>513.00073242188</ele>
        <time>2013-02-10T09:53:21Z</time>
      </trkpt>
      <trkpt lat="43.00286" lon="1.75504">
        <ele>514.44262695312</ele>
        <time>2013-02-10T09:53:28Z</time>
      </trkpt>
      <trkpt lat="43.00277" lon="1.75503">
        <ele>514.44262695312</ele>
        <time>2013-02-10T09:53:33Z</time>
      </trkpt>
      <trkpt lat="43.0027" lon="1.75502">
        <ele>515.88464355469</ele>
        <time>2013-02-10T09:53:38Z</time>
      </trkpt>
      <trkpt lat="43.00264" lon="1.75501">
        <ele>516.365234375</ele>
        <time>2013-02-10T09:53:43Z</time>
      </trkpt>
      <trkpt lat="43.00253" lon="1.75499">
        <ele>517.32666015625</ele>
        <time>2013-02-10T09:53:51Z</time>
      </trkpt>
      <trkpt lat="43.00244" lon="1.75497">
        <ele>517.32666015625</ele>
        <time>2013-02-10T09:53:58Z</time>
      </trkpt>
      <trkpt lat="43.00236" lon="1.75492">
        <ele>516.84594726562</ele>
        <time>2013-02-10T09:54:05Z</time>
      </trkpt>
      <trkpt lat="43.00234" lon="1.75491">
        <ele>516.84594726562</ele>
        <time>2013-02-10T09:54:07Z</time>
      </trkpt>
      <trkpt lat="43.00233" lon="1.75489">
        <ele>516.365234375</ele>
        <time>2013-02-10T09:54:11Z</time>
      </trkpt>
      <trkpt lat="43.00226" lon="1.75464">
        <ele>514.92333984375</ele>
        <time>2013-02-10T09:54:17Z</time>
      </trkpt>
      <trkpt lat="43.00225" lon="1.75442">
        <ele>513.96203613281</ele>
        <time>2013-02-10T09:54:22Z</time>
      </trkpt>
      <trkpt lat="43.00223" lon="1.7542">
        <ele>513.4814453125</ele>
        <time>2013-02-10T09:54:27Z</time>
      </trkpt>
      <trkpt lat="43.00218" lon="1.75401">
        <ele>512.03942871094</ele>
        <time>2013-02-10T09:54:32Z</time>
      </trkpt>
      <trkpt lat="43.00216" lon="1.7539">
        <ele>510.59729003906</ele>
        <time>2013-02-10T09:54:36Z</time>
      </trkpt>
      <trkpt lat="43.00218" lon="1.75385">
        <ele>509.63610839844</ele>
        <time>2013-02-10T09:54:41Z</time>
      </trkpt>
      <trkpt lat="43.00218" lon="1.75384">
        <ele>509.63610839844</ele>
        <time>2013-02-10T09:54:51Z</time>
      </trkpt>
      <trkpt lat="43.00218" lon="1.75383">
        <ele>509.15539550781</ele>
        <time>2013-02-10T09:54:59Z</time>
      </trkpt>
      <trkpt lat="43.00219" lon="1.75382">
        <ele>508.67468261719</ele>
        <time>2013-02-10T09:55:06Z</time>
      </trkpt>
      <trkpt lat="43.00219" lon="1.75382">
        <ele>508.67468261719</ele>
        <time>2013-02-10T09:55:18Z</time>
      </trkpt>
      <trkpt lat="43.00218" lon="1.75382">
        <ele>508.67468261719</ele>
        <time>2013-02-10T09:55:27Z</time>
      </trkpt>
      <trkpt lat="43.00218" lon="1.75382">
        <ele>508.67468261719</ele>
        <time>2013-02-10T09:55:34Z</time>
      </trkpt>
      <trkpt lat="43.00218" lon="1.75382">
        <ele>508.19409179688</ele>
        <time>2013-02-10T09:55:47Z</time>
      </trkpt>
      <trkpt lat="43.00218" lon="1.75381">
        <ele>508.19409179688</ele>
        <time>2013-02-10T09:55:51Z</time>
      </trkpt>
      <trkpt lat="43.00217" lon="1.75381">
        <ele>508.19409179688</ele>
        <time>2013-02-10T09:55:57Z</time>
      </trkpt>
      <trkpt lat="43.0022" lon="1.75378">
        <ele>507.23278808594</ele>
        <time>2013-02-10T09:56:01Z</time>
      </trkpt>
      <trkpt lat="43.00224" lon="1.75377">
        <ele>507.23278808594</ele>
        <time>2013-02-10T09:56:06Z</time>
      </trkpt>
      <trkpt lat="43.00227" lon="1.75378">
        <ele>508.67468261719</ele>
        <time>2013-02-10T09:56:10Z</time>
      </trkpt>
      <trkpt lat="43.00229" lon="1.7538">
        <ele>509.15539550781</ele>
        <time>2013-02-10T09:56:12Z</time>
      </trkpt>
      <trkpt lat="43.00233" lon="1.75381">
        <ele>510.11669921875</ele>
        <time>2013-02-10T09:56:18Z</time>
      </trkpt>
      <trkpt lat="43.00236" lon="1.75383">
        <ele>510.11669921875</ele>
        <time>2013-02-10T09:56:20Z</time>
      </trkpt>
      <trkpt lat="43.00241" lon="1.75388">
        <ele>510.11669921875</ele>
        <time>2013-02-10T09:56:26Z</time>
      </trkpt>
      <trkpt lat="43.00248" lon="1.7539">
        <ele>509.63610839844</ele>
        <time>2013-02-10T09:56:32Z</time>
      </trkpt>
      <trkpt lat="43.00253" lon="1.75392">
        <ele>510.59729003906</ele>
        <time>2013-02-10T09:56:37Z</time>
      </trkpt>
      <trkpt lat="43.00259" lon="1.75397">
        <ele>513.4814453125</ele>
        <time>2013-02-10T09:56:44Z</time>
      </trkpt>
      <trkpt lat="43.00263" lon="1.754">
        <ele>515.40405273438</ele>
        <time>2013-02-10T09:56:49Z</time>
      </trkpt>
      <trkpt lat="43.0027" lon="1.75405">
        <ele>517.80725097656</ele>
        <time>2013-02-10T09:56:58Z</time>
      </trkpt>
      <trkpt lat="43.00275" lon="1.7541">
        <ele>519.72985839844</ele>
        <time>2013-02-10T09:57:06Z</time>
      </trkpt>
      <trkpt lat="43.00278" lon="1.75413">
        <ele>521.17199707031</ele>
        <time>2013-02-10T09:57:11Z</time>
      </trkpt>
      <trkpt lat="43.00281" lon="1.75415">
        <ele>522.61389160156</ele>
        <time>2013-02-10T09:57:18Z</time>
      </trkpt>
      <trkpt lat="43.00285" lon="1.75417">
        <ele>523.5751953125</ele>
        <time>2013-02-10T09:57:23Z</time>
      </trkpt>
      <trkpt lat="43.00291" lon="1.75415">
        <ele>523.5751953125</ele>
        <time>2013-02-10T09:57:28Z</time>
      </trkpt>
      <trkpt lat="43.00301" lon="1.75411">
        <ele>524.05578613281</ele>
        <time>2013-02-10T09:57:34Z</time>
      </trkpt>
      <trkpt lat="43.00309" lon="1.75407">
        <ele>522.61389160156</ele>
        <time>2013-02-10T09:57:38Z</time>
      </trkpt>
      <trkpt lat="43.00313" lon="1.75405">
        <ele>521.65258789062</ele>
        <time>2013-02-10T09:57:40Z</time>
      </trkpt>
      <trkpt lat="43.00328" lon="1.75403">
        <ele>519.24926757812</ele>
        <time>2013-02-10T09:57:47Z</time>
      </trkpt>
      <trkpt lat="43.00338" lon="1.75401">
        <ele>517.80725097656</ele>
        <time>2013-02-10T09:57:52Z</time>
      </trkpt>
      <trkpt lat="43.0034" lon="1.754">
        <ele>517.32666015625</ele>
        <time>2013-02-10T09:57:53Z</time>
      </trkpt>
      <trkpt lat="43.00348" lon="1.75398">
        <ele>516.84594726562</ele>
        <time>2013-02-10T09:57:57Z</time>
      </trkpt>
      <trkpt lat="43.00355" lon="1.75396">
        <ele>518.7685546875</ele>
        <time>2013-02-10T09:58:04Z</time>
      </trkpt>
      <trkpt lat="43.00362" lon="1.75392">
        <ele>520.69128417969</ele>
        <time>2013-02-10T09:58:10Z</time>
      </trkpt>
      <trkpt lat="43.00364" lon="1.75392">
        <ele>521.65258789062</ele>
        <time>2013-02-10T09:58:12Z</time>
      </trkpt>
      <trkpt lat="43.00371" lon="1.7539">
        <ele>525.01721191406</ele>
        <time>2013-02-10T09:58:18Z</time>
      </trkpt>
      <trkpt lat="43.00375" lon="1.75389">
        <ele>525.97839355469</ele>
        <time>2013-02-10T09:58:21Z</time>
      </trkpt>
      <trkpt lat="43.00379" lon="1.75388">
        <ele>526.93981933594</ele>
        <time>2013-02-10T09:58:25Z</time>
      </trkpt>
      <trkpt lat="43.00384" lon="1.75384">
        <ele>527.90100097656</ele>
        <time>2013-02-10T09:58:31Z</time>
      </trkpt>
      <trkpt lat="43.00388" lon="1.75381">
        <ele>529.82373046875</ele>
        <time>2013-02-10T09:58:38Z</time>
      </trkpt>
      <trkpt lat="43.00389" lon="1.75381">
        <ele>529.34313964844</ele>
        <time>2013-02-10T09:58:43Z</time>
      </trkpt>
      <trkpt lat="43.00393" lon="1.75379">
        <ele>530.78515625</ele>
        <time>2013-02-10T09:58:48Z</time>
      </trkpt>
      <trkpt lat="43.00399" lon="1.75375">
        <ele>530.78515625</ele>
        <time>2013-02-10T09:58:53Z</time>
      </trkpt>
      <trkpt lat="43.00407" lon="1.75365">
        <ele>529.34313964844</ele>
        <time>2013-02-10T09:58:58Z</time>
      </trkpt>
      <trkpt lat="43.00412" lon="1.75354">
        <ele>528.86254882812</ele>
        <time>2013-02-10T09:59:03Z</time>
      </trkpt>
      <trkpt lat="43.00419" lon="1.75343">
        <ele>526.93981933594</ele>
        <time>2013-02-10T09:59:09Z</time>
      </trkpt>
      <trkpt lat="43.0043" lon="1.75335">
        <ele>525.01721191406</ele>
        <time>2013-02-10T09:59:15Z</time>
      </trkpt>
      <trkpt lat="43.00439" lon="1.7533">
        <ele>525.49780273438</ele>
        <time>2013-02-10T09:59:20Z</time>
      </trkpt>
      <trkpt lat="43.00446" lon="1.75327">
        <ele>525.49780273438</ele>
        <time>2013-02-10T09:59:24Z</time>
      </trkpt>
      <trkpt lat="43.00454" lon="1.7532">
        <ele>526.45910644531</ele>
        <time>2013-02-10T09:59:30Z</time>
      </trkpt>
      <trkpt lat="43.00456" lon="1.75318">
        <ele>527.90100097656</ele>
        <time>2013-02-10T09:59:32Z</time>
      </trkpt>
      <trkpt lat="43.00464" lon="1.75312">
        <ele>530.30444335938</ele>
        <time>2013-02-10T09:59:39Z</time>
      </trkpt>
      <trkpt lat="43.00465" lon="1.75312">
        <ele>530.78515625</ele>
        <time>2013-02-10T09:59:40Z</time>
      </trkpt>
      <trkpt lat="43.00467" lon="1.75312">
        <ele>531.26574707031</ele>
        <time>2013-02-10T09:59:42Z</time>
      </trkpt>
      <trkpt lat="43.00471" lon="1.75313">
        <ele>532.70776367188</ele>
        <time>2013-02-10T09:59:47Z</time>
      </trkpt>
      <trkpt lat="43.00482" lon="1.75312">
        <ele>533.6689453125</ele>
        <time>2013-02-10T09:59:52Z</time>
      </trkpt>
      <trkpt lat="43.00489" lon="1.7531">
        <ele>533.6689453125</ele>
        <time>2013-02-10T09:59:56Z</time>
      </trkpt>
      <trkpt lat="43.00491" lon="1.75309">
        <ele>533.18835449219</ele>
        <time>2013-02-10T09:59:57Z</time>
      </trkpt>
      <trkpt lat="43.00498" lon="1.75308">
        <ele>532.70776367188</ele>
        <time>2013-02-10T10:00:01Z</time>
      </trkpt>
      <trkpt lat="43.00502" lon="1.75308">
        <ele>532.70776367188</ele>
        <time>2013-02-10T10:00:03Z</time>
      </trkpt>
      <trkpt lat="43.0051" lon="1.75311">
        <ele>531.74633789062</ele>
        <time>2013-02-10T10:00:07Z</time>
      </trkpt>
      <trkpt lat="43.00524" lon="1.75308">
        <ele>529.34313964844</ele>
        <time>2013-02-10T10:00:13Z</time>
      </trkpt>
      <trkpt lat="43.00533" lon="1.753">
        <ele>528.3818359375</ele>
        <time>2013-02-10T10:00:18Z</time>
      </trkpt>
      <trkpt lat="43.00534" lon="1.75298">
        <ele>527.90100097656</ele>
        <time>2013-02-10T10:00:19Z</time>
      </trkpt>
      <trkpt lat="43.00543" lon="1.75292">
        <ele>525.49780273438</ele>
        <time>2013-02-10T10:00:24Z</time>
      </trkpt>
      <trkpt lat="43.0055" lon="1.75286">
        <ele>524.05578613281</ele>
        <time>2013-02-10T10:00:28Z</time>
      </trkpt>
      <trkpt lat="43.00557" lon="1.75283">
        <ele>524.53649902344</ele>
        <time>2013-02-10T10:00:31Z</time>
      </trkpt>
      <trkpt lat="43.0056" lon="1.75281">
        <ele>525.01721191406</ele>
        <time>2013-02-10T10:00:33Z</time>
      </trkpt>
      <trkpt lat="43.00563" lon="1.75273">
        <ele>525.49780273438</ele>
        <time>2013-02-10T10:00:39Z</time>
      </trkpt>
      <trkpt lat="43.00564" lon="1.75272">
        <ele>525.49780273438</ele>
        <time>2013-02-10T10:00:40Z</time>
      </trkpt>
      <trkpt lat="43.00569" lon="1.75266">
        <ele>526.45910644531</ele>
        <time>2013-02-10T10:00:46Z</time>
      </trkpt>
      <trkpt lat="43.00571" lon="1.75264">
        <ele>527.90100097656</ele>
        <time>2013-02-10T10:00:50Z</time>
      </trkpt>
      <trkpt lat="43.00574" lon="1.75257">
        <ele>529.34313964844</ele>
        <time>2013-02-10T10:00:56Z</time>
      </trkpt>
      <trkpt lat="43.00576" lon="1.75252">
        <ele>532.22705078125</ele>
        <time>2013-02-10T10:01:01Z</time>
      </trkpt>
      <trkpt lat="43.00579" lon="1.75247">
        <ele>534.14965820312</ele>
        <time>2013-02-10T10:01:08Z</time>
      </trkpt>
      <trkpt lat="43.00582" lon="1.75243">
        <ele>534.63037109375</ele>
        <time>2013-02-10T10:01:13Z</time>
      </trkpt>
      <trkpt lat="43.00587" lon="1.75237">
        <ele>534.14965820312</ele>
        <time>2013-02-10T10:01:19Z</time>
      </trkpt>
      <trkpt lat="43.00595" lon="1.75228">
        <ele>533.6689453125</ele>
        <time>2013-02-10T10:01:24Z</time>
      </trkpt>
      <trkpt lat="43.00597" lon="1.75226">
        <ele>533.18835449219</ele>
        <time>2013-02-10T10:01:25Z</time>
      </trkpt>
      <trkpt lat="43.00602" lon="1.7522">
        <ele>534.14965820312</ele>
        <time>2013-02-10T10:01:31Z</time>
      </trkpt>
      <trkpt lat="43.00609" lon="1.75212">
        <ele>536.07238769531</ele>
        <time>2013-02-10T10:01:38Z</time>
      </trkpt>
      <trkpt lat="43.00615" lon="1.75209">
        <ele>536.07238769531</ele>
        <time>2013-02-10T10:01:41Z</time>
      </trkpt>
      <trkpt lat="43.00622" lon="1.752">
        <ele>535.59155273438</ele>
        <time>2013-02-10T10:01:48Z</time>
      </trkpt>
      <trkpt lat="43.00624" lon="1.75198">
        <ele>537.03369140625</ele>
        <time>2013-02-10T10:01:50Z</time>
      </trkpt>
      <trkpt lat="43.00632" lon="1.75191">
        <ele>541.84020996094</ele>
        <time>2013-02-10T10:01:57Z</time>
      </trkpt>
      <trkpt lat="43.00634" lon="1.7519">
        <ele>542.80151367188</ele>
        <time>2013-02-10T10:01:59Z</time>
      </trkpt>
      <trkpt lat="43.00639" lon="1.75185">
        <ele>545.20483398438</ele>
        <time>2013-02-10T10:02:06Z</time>
      </trkpt>
      <trkpt lat="43.00644" lon="1.75186">
        <ele>548.0888671875</ele>
        <time>2013-02-10T10:02:13Z</time>
      </trkpt>
      <trkpt lat="43.00648" lon="1.75187">
        <ele>549.53076171875</ele>
        <time>2013-02-10T10:02:19Z</time>
      </trkpt>
      <trkpt lat="43.00655" lon="1.75191">
        <ele>550.4921875</ele>
        <time>2013-02-10T10:02:25Z</time>
      </trkpt>
      <trkpt lat="43.00656" lon="1.75191">
        <ele>550.97265625</ele>
        <time>2013-02-10T10:02:26Z</time>
      </trkpt>
      <trkpt lat="43.00661" lon="1.75193">
        <ele>550.97265625</ele>
        <time>2013-02-10T10:02:31Z</time>
      </trkpt>
      <trkpt lat="43.0067" lon="1.75199">
        <ele>550.4921875</ele>
        <time>2013-02-10T10:02:39Z</time>
      </trkpt>
      <trkpt lat="43.00673" lon="1.75201">
        <ele>550.4921875</ele>
        <time>2013-02-10T10:02:42Z</time>
      </trkpt>
      <trkpt lat="43.00676" lon="1.75201">
        <ele>550.4921875</ele>
        <time>2013-02-10T10:02:45Z</time>
      </trkpt>
      <trkpt lat="43.00684" lon="1.75199">
        <ele>550.97265625</ele>
        <time>2013-02-10T10:02:50Z</time>
      </trkpt>
      <trkpt lat="43.00691" lon="1.75188">
        <ele>551.45336914062</ele>
        <time>2013-02-10T10:02:55Z</time>
      </trkpt>
      <trkpt lat="43.00697" lon="1.75184">
        <ele>550.97265625</ele>
        <time>2013-02-10T10:02:58Z</time>
      </trkpt>
      <trkpt lat="43.00703" lon="1.75177">
        <ele>550.97265625</ele>
        <time>2013-02-10T10:03:02Z</time>
      </trkpt>
      <trkpt lat="43.00708" lon="1.75172">
        <ele>550.4921875</ele>
        <time>2013-02-10T10:03:05Z</time>
      </trkpt>
      <trkpt lat="43.00717" lon="1.75165">
        <ele>548.5693359375</ele>
        <time>2013-02-10T10:03:10Z</time>
      </trkpt>
      <trkpt lat="43.00723" lon="1.75156">
        <ele>547.12744140625</ele>
        <time>2013-02-10T10:03:15Z</time>
      </trkpt>
      <trkpt lat="43.00728" lon="1.75141">
        <ele>544.72424316406</ele>
        <time>2013-02-10T10:03:21Z</time>
      </trkpt>
      <trkpt lat="43.00729" lon="1.75139">
        <ele>544.24365234375</ele>
        <time>2013-02-10T10:03:22Z</time>
      </trkpt>
      <trkpt lat="43.00731" lon="1.75131">
        <ele>543.28210449219</ele>
        <time>2013-02-10T10:03:25Z</time>
      </trkpt>
      <trkpt lat="43.00738" lon="1.75123">
        <ele>543.28210449219</ele>
        <time>2013-02-10T10:03:30Z</time>
      </trkpt>
      <trkpt lat="43.00745" lon="1.75114">
        <ele>544.72424316406</ele>
        <time>2013-02-10T10:03:38Z</time>
      </trkpt>
      <trkpt lat="43.00749" lon="1.75107">
        <ele>546.16625976562</ele>
        <time>2013-02-10T10:03:43Z</time>
      </trkpt>
      <trkpt lat="43.00753" lon="1.75104">
        <ele>548.0888671875</ele>
        <time>2013-02-10T10:03:47Z</time>
      </trkpt>
      <trkpt lat="43.00752" lon="1.75101">
        <ele>547.60815429688</ele>
        <time>2013-02-10T10:03:50Z</time>
      </trkpt>
      <trkpt lat="43.00755" lon="1.75093">
        <ele>549.53076171875</ele>
        <time>2013-02-10T10:03:57Z</time>
      </trkpt>
      <trkpt lat="43.00759" lon="1.75091">
        <ele>551.93408203125</ele>
        <time>2013-02-10T10:04:03Z</time>
      </trkpt>
      <trkpt lat="43.00763" lon="1.75092">
        <ele>554.33740234375</ele>
        <time>2013-02-10T10:04:09Z</time>
      </trkpt>
      <trkpt lat="43.00765" lon="1.75091">
        <ele>556.26000976562</ele>
        <time>2013-02-10T10:04:13Z</time>
      </trkpt>
      <trkpt lat="43.0077" lon="1.75088">
        <ele>558.18286132812</ele>
        <time>2013-02-10T10:04:20Z</time>
      </trkpt>
      <trkpt lat="43.00774" lon="1.75083">
        <ele>558.66333007812</ele>
        <time>2013-02-10T10:04:26Z</time>
      </trkpt>
      <trkpt lat="43.00778" lon="1.75078">
        <ele>559.14404296875</ele>
        <time>2013-02-10T10:04:32Z</time>
      </trkpt>
      <trkpt lat="43.00782" lon="1.75072">
        <ele>560.5859375</ele>
        <time>2013-02-10T10:04:38Z</time>
      </trkpt>
      <trkpt lat="43.00785" lon="1.75068">
        <ele>562.50854492188</ele>
        <time>2013-02-10T10:04:44Z</time>
      </trkpt>
      <trkpt lat="43.00786" lon="1.75066">
        <ele>563.95043945312</ele>
        <time>2013-02-10T10:04:48Z</time>
      </trkpt>
      <trkpt lat="43.00787" lon="1.75064">
        <ele>564.91186523438</ele>
        <time>2013-02-10T10:04:55Z</time>
      </trkpt>
      <trkpt lat="43.00788" lon="1.75058">
        <ele>566.35375976562</ele>
        <time>2013-02-10T10:05:02Z</time>
      </trkpt>
      <trkpt lat="43.0079" lon="1.75055">
        <ele>567.79565429688</ele>
        <time>2013-02-10T10:05:06Z</time>
      </trkpt>
      <trkpt lat="43.00793" lon="1.75053">
        <ele>568.75708007812</ele>
        <time>2013-02-10T10:05:11Z</time>
      </trkpt>
      <trkpt lat="43.00798" lon="1.7505">
        <ele>569.23779296875</ele>
        <time>2013-02-10T10:05:18Z</time>
      </trkpt>
      <trkpt lat="43.00802" lon="1.75047">
        <ele>571.16040039062</ele>
        <time>2013-02-10T10:05:24Z</time>
      </trkpt>
      <trkpt lat="43.00807" lon="1.75039">
        <ele>571.64086914062</ele>
        <time>2013-02-10T10:05:31Z</time>
      </trkpt>
      <trkpt lat="43.00809" lon="1.75036">
        <ele>572.12182617188</ele>
        <time>2013-02-10T10:05:33Z</time>
      </trkpt>
      <trkpt lat="43.00812" lon="1.75029">
        <ele>572.12182617188</ele>
        <time>2013-02-10T10:05:39Z</time>
      </trkpt>
      <trkpt lat="43.00814" lon="1.75017">
        <ele>572.6025390625</ele>
        <time>2013-02-10T10:05:48Z</time>
      </trkpt>
      <trkpt lat="43.00816" lon="1.75013">
        <ele>573.08325195312</ele>
        <time>2013-02-10T10:05:52Z</time>
      </trkpt>
      <trkpt lat="43.00816" lon="1.75011">
        <ele>572.6025390625</ele>
        <time>2013-02-10T10:05:53Z</time>
      </trkpt>
      <trkpt lat="43.00821" lon="1.75005">
        <ele>574.52514648438</ele>
        <time>2013-02-10T10:05:59Z</time>
      </trkpt>
      <trkpt lat="43.00825" lon="1.75">
        <ele>575.486328125</ele>
        <time>2013-02-10T10:06:05Z</time>
      </trkpt>
      <trkpt lat="43.00832" lon="1.7499">
        <ele>576.92846679688</ele>
        <time>2013-02-10T10:06:13Z</time>
      </trkpt>
      <trkpt lat="43.00835" lon="1.74988">
        <ele>577.4091796875</ele>
        <time>2013-02-10T10:06:15Z</time>
      </trkpt>
      <trkpt lat="43.00838" lon="1.7498">
        <ele>577.4091796875</ele>
        <time>2013-02-10T10:06:19Z</time>
      </trkpt>
      <trkpt lat="43.00846" lon="1.74969">
        <ele>577.8896484375</ele>
        <time>2013-02-10T10:06:24Z</time>
      </trkpt>
      <trkpt lat="43.00856" lon="1.74954">
        <ele>575.96704101562</ele>
        <time>2013-02-10T10:06:30Z</time>
      </trkpt>
      <trkpt lat="43.00864" lon="1.74942">
        <ele>573.08325195312</ele>
        <time>2013-02-10T10:06:35Z</time>
      </trkpt>
      <trkpt lat="43.00874" lon="1.74933">
        <ele>570.6796875</ele>
        <time>2013-02-10T10:06:41Z</time>
      </trkpt>
      <trkpt lat="43.00876" lon="1.7493">
        <ele>571.16040039062</ele>
        <time>2013-02-10T10:06:42Z</time>
      </trkpt>
      <trkpt lat="43.00887" lon="1.74919">
        <ele>569.71850585938</ele>
        <time>2013-02-10T10:06:48Z</time>
      </trkpt>
      <trkpt lat="43.00888" lon="1.74917">
        <ele>569.23779296875</ele>
        <time>2013-02-10T10:06:49Z</time>
      </trkpt>
      <trkpt lat="43.00889" lon="1.74909">
        <ele>568.2763671875</ele>
        <time>2013-02-10T10:06:53Z</time>
      </trkpt>
      <trkpt lat="43.00896" lon="1.74896">
        <ele>566.83447265625</ele>
        <time>2013-02-10T10:06:59Z</time>
      </trkpt>
      <trkpt lat="43.00901" lon="1.74886">
        <ele>566.83447265625</ele>
        <time>2013-02-10T10:07:03Z</time>
      </trkpt>
      <trkpt lat="43.00904" lon="1.74882">
        <ele>567.31518554688</ele>
        <time>2013-02-10T10:07:06Z</time>
      </trkpt>
      <trkpt lat="43.00907" lon="1.74874">
        <ele>571.64086914062</ele>
        <time>2013-02-10T10:07:11Z</time>
      </trkpt>
      <trkpt lat="43.00908" lon="1.74873">
        <ele>573.08325195312</ele>
        <time>2013-02-10T10:07:12Z</time>
      </trkpt>
      <trkpt lat="43.00913" lon="1.74866">
        <ele>576.92846679688</ele>
        <time>2013-02-10T10:07:20Z</time>
      </trkpt>
      <trkpt lat="43.00915" lon="1.74864">
        <ele>580.29296875</ele>
        <time>2013-02-10T10:07:24Z</time>
      </trkpt>
      <trkpt lat="43.00919" lon="1.74862">
        <ele>583.65747070312</ele>
        <time>2013-02-10T10:07:31Z</time>
      </trkpt>
      <trkpt lat="43.00922" lon="1.74861">
        <ele>586.54150390625</ele>
        <time>2013-02-10T10:07:37Z</time>
      </trkpt>
      <trkpt lat="43.00927" lon="1.74861">
        <ele>588.46435546875</ele>
        <time>2013-02-10T10:07:43Z</time>
      </trkpt>
      <trkpt lat="43.00931" lon="1.74859">
        <ele>589.90625</ele>
        <time>2013-02-10T10:07:50Z</time>
      </trkpt>
      <trkpt lat="43.00936" lon="1.74859">
        <ele>590.38696289062</ele>
        <time>2013-02-10T10:07:55Z</time>
      </trkpt>
      <trkpt lat="43.00941" lon="1.74862">
        <ele>589.90625</ele>
        <time>2013-02-10T10:08:00Z</time>
      </trkpt>
      <trkpt lat="43.00951" lon="1.7487">
        <ele>589.90625</ele>
        <time>2013-02-10T10:08:05Z</time>
      </trkpt>
      <trkpt lat="43.00959" lon="1.74875">
        <ele>589.90625</ele>
        <time>2013-02-10T10:08:08Z</time>
      </trkpt>
      <trkpt lat="43.00973" lon="1.74883">
        <ele>589.90625</ele>
        <time>2013-02-10T10:08:14Z</time>
      </trkpt>
      <trkpt lat="43.0098" lon="1.74889">
        <ele>589.42553710938</ele>
        <time>2013-02-10T10:08:18Z</time>
      </trkpt>
      <trkpt lat="43.00986" lon="1.74894">
        <ele>587.9833984375</ele>
        <time>2013-02-10T10:08:21Z</time>
      </trkpt>
      <trkpt lat="43.00992" lon="1.74898">
        <ele>587.02197265625</ele>
        <time>2013-02-10T10:08:25Z</time>
      </trkpt>
      <trkpt lat="43.00999" lon="1.74908">
        <ele>584.13818359375</ele>
        <time>2013-02-10T10:08:31Z</time>
      </trkpt>
      <trkpt lat="43.01009" lon="1.74906">
        <ele>581.25439453125</ele>
        <time>2013-02-10T10:08:35Z</time>
      </trkpt>
      <trkpt lat="43.01017" lon="1.74904">
        <ele>578.85107421875</ele>
        <time>2013-02-10T10:08:38Z</time>
      </trkpt>
      <trkpt lat="43.01025" lon="1.74902">
        <ele>575.486328125</ele>
        <time>2013-02-10T10:08:43Z</time>
      </trkpt>
      <trkpt lat="43.01038" lon="1.74898">
        <ele>572.6025390625</ele>
        <time>2013-02-10T10:08:48Z</time>
      </trkpt>
      <trkpt lat="43.01049" lon="1.74894">
        <ele>569.71850585938</ele>
        <time>2013-02-10T10:08:52Z</time>
      </trkpt>
      <trkpt lat="43.01067" lon="1.74889">
        <ele>567.31518554688</ele>
        <time>2013-02-10T10:08:58Z</time>
      </trkpt>
      <trkpt lat="43.0108" lon="1.74885">
        <ele>565.392578125</ele>
        <time>2013-02-10T10:09:03Z</time>
      </trkpt>
      <trkpt lat="43.01087" lon="1.74881">
        <ele>568.2763671875</ele>
        <time>2013-02-10T10:09:08Z</time>
      </trkpt>
      <trkpt lat="43.01094" lon="1.74879">
        <ele>568.75708007812</ele>
        <time>2013-02-10T10:09:17Z</time>
      </trkpt>
      <trkpt lat="43.011" lon="1.74876">
        <ele>570.19897460938</ele>
        <time>2013-02-10T10:09:21Z</time>
      </trkpt>
      <trkpt lat="43.01108" lon="1.74873">
        <ele>572.6025390625</ele>
        <time>2013-02-10T10:09:26Z</time>
      </trkpt>
      <trkpt lat="43.01115" lon="1.74869">
        <ele>574.04443359375</ele>
        <time>2013-02-10T10:09:33Z</time>
      </trkpt>
      <trkpt lat="43.01117" lon="1.74869">
        <ele>574.52514648438</ele>
        <time>2013-02-10T10:09:35Z</time>
      </trkpt>
      <trkpt lat="43.01125" lon="1.74873">
        <ele>575.486328125</ele>
        <time>2013-02-10T10:09:41Z</time>
      </trkpt>
      <trkpt lat="43.01133" lon="1.74875">
        <ele>576.44775390625</ele>
        <time>2013-02-10T10:09:45Z</time>
      </trkpt>
      <trkpt lat="43.01141" lon="1.74879">
        <ele>575.96704101562</ele>
        <time>2013-02-10T10:09:49Z</time>
      </trkpt>
      <trkpt lat="43.01151" lon="1.7489">
        <ele>577.4091796875</ele>
        <time>2013-02-10T10:09:55Z</time>
      </trkpt>
      <trkpt lat="43.01157" lon="1.74894">
        <ele>577.8896484375</ele>
        <time>2013-02-10T10:09:58Z</time>
      </trkpt>
      <trkpt lat="43.01167" lon="1.74899">
        <ele>578.37036132812</ele>
        <time>2013-02-10T10:10:04Z</time>
      </trkpt>
      <trkpt lat="43.0117" lon="1.74899">
        <ele>578.37036132812</ele>
        <time>2013-02-10T10:10:05Z</time>
      </trkpt>
      <trkpt lat="43.01181" lon="1.749">
        <ele>575.96704101562</ele>
        <time>2013-02-10T10:10:11Z</time>
      </trkpt>
      <trkpt lat="43.01193" lon="1.74902">
        <ele>574.04443359375</ele>
        <time>2013-02-10T10:10:17Z</time>
      </trkpt>
      <trkpt lat="43.01198" lon="1.74903">
        <ele>574.52514648438</ele>
        <time>2013-02-10T10:10:20Z</time>
      </trkpt>
      <trkpt lat="43.01208" lon="1.74901">
        <ele>575.005859375</ele>
        <time>2013-02-10T10:10:26Z</time>
      </trkpt>
      <trkpt lat="43.0122" lon="1.74897">
        <ele>574.52514648438</ele>
        <time>2013-02-10T10:10:31Z</time>
      </trkpt>
      <trkpt lat="43.01236" lon="1.74892">
        <ele>573.08325195312</ele>
        <time>2013-02-10T10:10:37Z</time>
      </trkpt>
      <trkpt lat="43.01239" lon="1.74892">
        <ele>572.6025390625</ele>
        <time>2013-02-10T10:10:38Z</time>
      </trkpt>
      <trkpt lat="43.01247" lon="1.74887">
        <ele>571.16040039062</ele>
        <time>2013-02-10T10:10:43Z</time>
      </trkpt>
      <trkpt lat="43.01252" lon="1.74886">
        <ele>571.16040039062</ele>
        <time>2013-02-10T10:10:47Z</time>
      </trkpt>
      <trkpt lat="43.01257" lon="1.74884">
        <ele>572.12182617188</ele>
        <time>2013-02-10T10:10:52Z</time>
      </trkpt>
      <trkpt lat="43.01264" lon="1.74879">
        <ele>575.96704101562</ele>
        <time>2013-02-10T10:10:59Z</time>
      </trkpt>
      <trkpt lat="43.01267" lon="1.74876">
        <ele>577.4091796875</ele>
        <time>2013-02-10T10:11:03Z</time>
      </trkpt>
      <trkpt lat="43.01272" lon="1.74872">
        <ele>580.29296875</ele>
        <time>2013-02-10T10:11:12Z</time>
      </trkpt>
      <trkpt lat="43.01276" lon="1.74868">
        <ele>581.25439453125</ele>
        <time>2013-02-10T10:11:19Z</time>
      </trkpt>
      <trkpt lat="43.01279" lon="1.74864">
        <ele>581.73486328125</ele>
        <time>2013-02-10T10:11:25Z</time>
      </trkpt>
      <trkpt lat="43.01284" lon="1.74861">
        <ele>584.13818359375</ele>
        <time>2013-02-10T10:11:32Z</time>
      </trkpt>
      <trkpt lat="43.01287" lon="1.74864">
        <ele>585.580078125</ele>
        <time>2013-02-10T10:11:38Z</time>
      </trkpt>
      <trkpt lat="43.01291" lon="1.7487">
        <ele>587.50268554688</ele>
        <time>2013-02-10T10:11:46Z</time>
      </trkpt>
      <trkpt lat="43.01295" lon="1.7487">
        <ele>587.9833984375</ele>
        <time>2013-02-10T10:11:53Z</time>
      </trkpt>
      <trkpt lat="43.01299" lon="1.74868">
        <ele>588.94506835938</ele>
        <time>2013-02-10T10:12:00Z</time>
      </trkpt>
      <trkpt lat="43.01303" lon="1.74867">
        <ele>590.86743164062</ele>
        <time>2013-02-10T10:12:06Z</time>
      </trkpt>
      <trkpt lat="43.01306" lon="1.74864">
        <ele>593.27075195312</ele>
        <time>2013-02-10T10:12:13Z</time>
      </trkpt>
      <trkpt lat="43.01308" lon="1.7486">
        <ele>593.27075195312</ele>
        <time>2013-02-10T10:12:20Z</time>
      </trkpt>
      <trkpt lat="43.01312" lon="1.74857">
        <ele>593.27075195312</ele>
        <time>2013-02-10T10:12:26Z</time>
      </trkpt>
      <trkpt lat="43.01315" lon="1.74857">
        <ele>593.75146484375</ele>
        <time>2013-02-10T10:12:30Z</time>
      </trkpt>
      <trkpt lat="43.01317" lon="1.74854">
        <ele>594.71264648438</ele>
        <time>2013-02-10T10:12:36Z</time>
      </trkpt>
      <trkpt lat="43.01322" lon="1.74852">
        <ele>596.63549804688</ele>
        <time>2013-02-10T10:12:43Z</time>
      </trkpt>
      <trkpt lat="43.01326" lon="1.7485">
        <ele>599.51928710938</ele>
        <time>2013-02-10T10:12:49Z</time>
      </trkpt>
      <trkpt lat="43.01331" lon="1.74848">
        <ele>602.40307617188</ele>
        <time>2013-02-10T10:12:56Z</time>
      </trkpt>
      <trkpt lat="43.01336" lon="1.74846">
        <ele>604.806640625</ele>
        <time>2013-02-10T10:13:03Z</time>
      </trkpt>
      <trkpt lat="43.0134" lon="1.74841">
        <ele>607.2099609375</ele>
        <time>2013-02-10T10:13:10Z</time>
      </trkpt>
      <trkpt lat="43.01342" lon="1.7484">
        <ele>608.65185546875</ele>
        <time>2013-02-10T10:13:15Z</time>
      </trkpt>
      <trkpt lat="43.01345" lon="1.74837">
        <ele>609.61328125</ele>
        <time>2013-02-10T10:13:20Z</time>
      </trkpt>
      <trkpt lat="43.01348" lon="1.74837">
        <ele>611.53588867188</ele>
        <time>2013-02-10T10:13:26Z</time>
      </trkpt>
      <trkpt lat="43.01355" lon="1.74834">
        <ele>612.0166015625</ele>
        <time>2013-02-10T10:13:33Z</time>
      </trkpt>
      <trkpt lat="43.0136" lon="1.74831">
        <ele>612.97778320312</ele>
        <time>2013-02-10T10:13:39Z</time>
      </trkpt>
      <trkpt lat="43.01364" lon="1.74828">
        <ele>613.93896484375</ele>
        <time>2013-02-10T10:13:46Z</time>
      </trkpt>
      <trkpt lat="43.01369" lon="1.74826">
        <ele>613.93896484375</ele>
        <time>2013-02-10T10:13:53Z</time>
      </trkpt>
      <trkpt lat="43.01374" lon="1.74822">
        <ele>615.86181640625</ele>
        <time>2013-02-10T10:14:01Z</time>
      </trkpt>
      <trkpt lat="43.0138" lon="1.74818">
        <ele>616.82299804688</ele>
        <time>2013-02-10T10:14:09Z</time>
      </trkpt>
      <trkpt lat="43.01383" lon="1.74819">
        <ele>617.7841796875</ele>
        <time>2013-02-10T10:14:14Z</time>
      </trkpt>
      <trkpt lat="43.01386" lon="1.7482">
        <ele>618.74560546875</ele>
        <time>2013-02-10T10:14:21Z</time>
      </trkpt>
      <trkpt lat="43.01389" lon="1.74822">
        <ele>619.70703125</ele>
        <time>2013-02-10T10:14:26Z</time>
      </trkpt>
      <trkpt lat="43.01392" lon="1.74821">
        <ele>620.66845703125</ele>
        <time>2013-02-10T10:14:32Z</time>
      </trkpt>
      <trkpt lat="43.01395" lon="1.74821">
        <ele>621.14916992188</ele>
        <time>2013-02-10T10:14:38Z</time>
      </trkpt>
      <trkpt lat="43.014" lon="1.74823">
        <ele>621.62963867188</ele>
        <time>2013-02-10T10:14:46Z</time>
      </trkpt>
      <trkpt lat="43.01405" lon="1.74825">
        <ele>624.513671875</ele>
        <time>2013-02-10T10:14:52Z</time>
      </trkpt>
      <trkpt lat="43.01408" lon="1.74825">
        <ele>625.95556640625</ele>
        <time>2013-02-10T10:14:57Z</time>
      </trkpt>
      <trkpt lat="43.01412" lon="1.74826">
        <ele>627.87817382812</ele>
        <time>2013-02-10T10:15:03Z</time>
      </trkpt>
      <trkpt lat="43.01417" lon="1.7483">
        <ele>628.83959960938</ele>
        <time>2013-02-10T10:15:11Z</time>
      </trkpt>
      <trkpt lat="43.01424" lon="1.7483">
        <ele>629.80078125</ele>
        <time>2013-02-10T10:15:18Z</time>
      </trkpt>
      <trkpt lat="43.01429" lon="1.74828">
        <ele>631.24291992188</ele>
        <time>2013-02-10T10:15:22Z</time>
      </trkpt>
      <trkpt lat="43.01432" lon="1.74828">
        <ele>631.24291992188</ele>
        <time>2013-02-10T10:15:24Z</time>
      </trkpt>
      <trkpt lat="43.01439" lon="1.74825">
        <ele>631.24291992188</ele>
        <time>2013-02-10T10:15:30Z</time>
      </trkpt>
      <trkpt lat="43.01445" lon="1.74823">
        <ele>632.2041015625</ele>
        <time>2013-02-10T10:15:36Z</time>
      </trkpt>
      <trkpt lat="43.01451" lon="1.74823">
        <ele>634.607421875</ele>
        <time>2013-02-10T10:15:44Z</time>
      </trkpt>
      <trkpt lat="43.01459" lon="1.74823">
        <ele>633.64599609375</ele>
        <time>2013-02-10T10:15:50Z</time>
      </trkpt>
      <trkpt lat="43.01469" lon="1.74825">
        <ele>633.64599609375</ele>
        <time>2013-02-10T10:15:55Z</time>
      </trkpt>
      <trkpt lat="43.01487" lon="1.74825">
        <ele>635.08813476562</ele>
        <time>2013-02-10T10:16:03Z</time>
      </trkpt>
      <trkpt lat="43.01498" lon="1.7483">
        <ele>632.68481445312</ele>
        <time>2013-02-10T10:16:07Z</time>
      </trkpt>
      <trkpt lat="43.01512" lon="1.74834">
        <ele>630.76220703125</ele>
        <time>2013-02-10T10:16:13Z</time>
      </trkpt>
      <trkpt lat="43.01514" lon="1.74834">
        <ele>630.28149414062</ele>
        <time>2013-02-10T10:16:14Z</time>
      </trkpt>
      <trkpt lat="43.0153" lon="1.74843">
        <ele>627.87817382812</ele>
        <time>2013-02-10T10:16:21Z</time>
      </trkpt>
      <trkpt lat="43.01548" lon="1.74852">
        <ele>624.99438476562</ele>
        <time>2013-02-10T10:16:27Z</time>
      </trkpt>
      <trkpt lat="43.01564" lon="1.74863">
        <ele>623.07177734375</ele>
        <time>2013-02-10T10:16:33Z</time>
      </trkpt>
      <trkpt lat="43.01573" lon="1.7487">
        <ele>622.1103515625</ele>
        <time>2013-02-10T10:16:37Z</time>
      </trkpt>
      <trkpt lat="43.01585" lon="1.74881">
        <ele>621.14916992188</ele>
        <time>2013-02-10T10:16:42Z</time>
      </trkpt>
      <trkpt lat="43.01596" lon="1.7489">
        <ele>620.18774414062</ele>
        <time>2013-02-10T10:16:46Z</time>
      </trkpt>
      <trkpt lat="43.01608" lon="1.74902">
        <ele>617.7841796875</ele>
        <time>2013-02-10T10:16:51Z</time>
      </trkpt>
      <trkpt lat="43.0161" lon="1.74905">
        <ele>617.3037109375</ele>
        <time>2013-02-10T10:16:52Z</time>
      </trkpt>
      <trkpt lat="43.01623" lon="1.74912">
        <ele>616.34228515625</ele>
        <time>2013-02-10T10:16:57Z</time>
      </trkpt>
      <trkpt lat="43.01631" lon="1.74922">
        <ele>616.34228515625</ele>
        <time>2013-02-10T10:17:01Z</time>
      </trkpt>
      <trkpt lat="43.01635" lon="1.74928">
        <ele>615.38110351562</ele>
        <time>2013-02-10T10:17:03Z</time>
      </trkpt>
      <trkpt lat="43.01646" lon="1.74945">
        <ele>613.93896484375</ele>
        <time>2013-02-10T10:17:08Z</time>
      </trkpt>
      <trkpt lat="43.01649" lon="1.74949">
        <ele>613.45849609375</ele>
        <time>2013-02-10T10:17:09Z</time>
      </trkpt>
      <trkpt lat="43.01661" lon="1.74962">
        <ele>611.05517578125</ele>
        <time>2013-02-10T10:17:14Z</time>
      </trkpt>
      <trkpt lat="43.01675" lon="1.74972">
        <ele>609.13256835938</ele>
        <time>2013-02-10T10:17:19Z</time>
      </trkpt>
      <trkpt lat="43.01685" lon="1.7498">
        <ele>607.69067382812</ele>
        <time>2013-02-10T10:17:24Z</time>
      </trkpt>
      <trkpt lat="43.01694" lon="1.74995">
        <ele>604.806640625</ele>
        <time>2013-02-10T10:17:28Z</time>
      </trkpt>
      <trkpt lat="43.01703" lon="1.75008">
        <ele>601.92260742188</ele>
        <time>2013-02-10T10:17:33Z</time>
      </trkpt>
      <trkpt lat="43.01714" lon="1.75019">
        <ele>599.51928710938</ele>
        <time>2013-02-10T10:17:37Z</time>
      </trkpt>
      <trkpt lat="43.01724" lon="1.75031">
        <ele>597.11596679688</ele>
        <time>2013-02-10T10:17:41Z</time>
      </trkpt>
      <trkpt lat="43.01731" lon="1.75044">
        <ele>597.11596679688</ele>
        <time>2013-02-10T10:17:45Z</time>
      </trkpt>
      <trkpt lat="43.0174" lon="1.75059">
        <ele>596.63549804688</ele>
        <time>2013-02-10T10:17:49Z</time>
      </trkpt>
      <trkpt lat="43.01748" lon="1.75081">
        <ele>597.11596679688</ele>
        <time>2013-02-10T10:17:54Z</time>
      </trkpt>
      <trkpt lat="43.01756" lon="1.751">
        <ele>595.67407226562</ele>
        <time>2013-02-10T10:17:59Z</time>
      </trkpt>
      <trkpt lat="43.01764" lon="1.75108">
        <ele>595.193359375</ele>
        <time>2013-02-10T10:18:03Z</time>
      </trkpt>
      <trkpt lat="43.01772" lon="1.75122">
        <ele>591.82885742188</ele>
        <time>2013-02-10T10:18:08Z</time>
      </trkpt>
      <trkpt lat="43.01785" lon="1.75136">
        <ele>588.46435546875</ele>
        <time>2013-02-10T10:18:14Z</time>
      </trkpt>
      <trkpt lat="43.01793" lon="1.75143">
        <ele>587.02197265625</ele>
        <time>2013-02-10T10:18:18Z</time>
      </trkpt>
      <trkpt lat="43.01801" lon="1.75149">
        <ele>585.580078125</ele>
        <time>2013-02-10T10:18:22Z</time>
      </trkpt>
      <trkpt lat="43.01812" lon="1.75158">
        <ele>583.1767578125</ele>
        <time>2013-02-10T10:18:27Z</time>
      </trkpt>
      <trkpt lat="43.0182" lon="1.75167">
        <ele>580.29296875</ele>
        <time>2013-02-10T10:18:32Z</time>
      </trkpt>
      <trkpt lat="43.01828" lon="1.75174">
        <ele>577.4091796875</ele>
        <time>2013-02-10T10:18:36Z</time>
      </trkpt>
      <trkpt lat="43.01838" lon="1.75178">
        <ele>575.486328125</ele>
        <time>2013-02-10T10:18:40Z</time>
      </trkpt>
      <trkpt lat="43.01848" lon="1.75189">
        <ele>573.08325195312</ele>
        <time>2013-02-10T10:18:45Z</time>
      </trkpt>
      <trkpt lat="43.01862" lon="1.752">
        <ele>570.6796875</ele>
        <time>2013-02-10T10:18:50Z</time>
      </trkpt>
      <trkpt lat="43.01878" lon="1.75213">
        <ele>568.2763671875</ele>
        <time>2013-02-10T10:18:56Z</time>
      </trkpt>
      <trkpt lat="43.01886" lon="1.75223">
        <ele>565.87329101562</ele>
        <time>2013-02-10T10:19:00Z</time>
      </trkpt>
      <trkpt lat="43.01898" lon="1.75237">
        <ele>564.43115234375</ele>
        <time>2013-02-10T10:19:06Z</time>
      </trkpt>
      <trkpt lat="43.01909" lon="1.7525">
        <ele>562.9892578125</ele>
        <time>2013-02-10T10:19:11Z</time>
      </trkpt>
      <trkpt lat="43.01923" lon="1.75266">
        <ele>561.06665039062</ele>
        <time>2013-02-10T10:19:17Z</time>
      </trkpt>
      <trkpt lat="43.01931" lon="1.75282">
        <ele>560.10522460938</ele>
        <time>2013-02-10T10:19:22Z</time>
      </trkpt>
      <trkpt lat="43.01941" lon="1.75296">
        <ele>557.7021484375</ele>
        <time>2013-02-10T10:19:27Z</time>
      </trkpt>
      <trkpt lat="43.01949" lon="1.75308">
        <ele>559.14404296875</ele>
        <time>2013-02-10T10:19:31Z</time>
      </trkpt>
      <trkpt lat="43.01957" lon="1.7532">
        <ele>558.66333007812</ele>
        <time>2013-02-10T10:19:35Z</time>
      </trkpt>
      <trkpt lat="43.01962" lon="1.7533">
        <ele>560.10522460938</ele>
        <time>2013-02-10T10:19:38Z</time>
      </trkpt>
      <trkpt lat="43.01969" lon="1.75341">
        <ele>559.62475585938</ele>
        <time>2013-02-10T10:19:42Z</time>
      </trkpt>
      <trkpt lat="43.01978" lon="1.75345">
        <ele>561.06665039062</ele>
        <time>2013-02-10T10:19:47Z</time>
      </trkpt>
      <trkpt lat="43.0199" lon="1.7535">
        <ele>557.7021484375</ele>
        <time>2013-02-10T10:19:53Z</time>
      </trkpt>
      <trkpt lat="43.01996" lon="1.75352">
        <ele>556.26000976562</ele>
        <time>2013-02-10T10:19:57Z</time>
      </trkpt>
      <trkpt lat="43.02001" lon="1.75357">
        <ele>553.3759765625</ele>
        <time>2013-02-10T10:20:01Z</time>
      </trkpt>
      <trkpt lat="43.02008" lon="1.75358">
        <ele>552.41455078125</ele>
        <time>2013-02-10T10:20:05Z</time>
      </trkpt>
      <trkpt lat="43.02015" lon="1.75363">
        <ele>549.05004882812</ele>
        <time>2013-02-10T10:20:10Z</time>
      </trkpt>
      <trkpt lat="43.02024" lon="1.75366">
        <ele>546.64685058594</ele>
        <time>2013-02-10T10:20:16Z</time>
      </trkpt>
      <trkpt lat="43.02031" lon="1.75368">
        <ele>545.685546875</ele>
        <time>2013-02-10T10:20:20Z</time>
      </trkpt>
      <trkpt lat="43.0204" lon="1.75374">
        <ele>542.32092285156</ele>
        <time>2013-02-10T10:20:25Z</time>
      </trkpt>
      <trkpt lat="43.02052" lon="1.75381">
        <ele>539.43688964844</ele>
        <time>2013-02-10T10:20:30Z</time>
      </trkpt>
      <trkpt lat="43.02064" lon="1.75386">
        <ele>536.55310058594</ele>
        <time>2013-02-10T10:20:35Z</time>
      </trkpt>
      <trkpt lat="43.02078" lon="1.75393">
        <ele>535.11096191406</ele>
        <time>2013-02-10T10:20:40Z</time>
      </trkpt>
      <trkpt lat="43.02094" lon="1.75402">
        <ele>531.26574707031</ele>
        <time>2013-02-10T10:20:46Z</time>
      </trkpt>
      <trkpt lat="43.02105" lon="1.75409">
        <ele>527.42041015625</ele>
        <time>2013-02-10T10:20:50Z</time>
      </trkpt>
      <trkpt lat="43.02118" lon="1.75417">
        <ele>523.09460449219</ele>
        <time>2013-02-10T10:20:55Z</time>
      </trkpt>
      <trkpt lat="43.02129" lon="1.75425">
        <ele>519.72985839844</ele>
        <time>2013-02-10T10:20:59Z</time>
      </trkpt>
      <trkpt lat="43.02134" lon="1.7543">
        <ele>517.80725097656</ele>
        <time>2013-02-10T10:21:01Z</time>
      </trkpt>
      <trkpt lat="43.02143" lon="1.75441">
        <ele>516.365234375</ele>
        <time>2013-02-10T10:21:05Z</time>
      </trkpt>
      <trkpt lat="43.02159" lon="1.75458">
        <ele>515.40405273438</ele>
        <time>2013-02-10T10:21:12Z</time>
      </trkpt>
      <trkpt lat="43.02168" lon="1.75468">
        <ele>514.44262695312</ele>
        <time>2013-02-10T10:21:16Z</time>
      </trkpt>
      <trkpt lat="43.02176" lon="1.75479">
        <ele>514.92333984375</ele>
        <time>2013-02-10T10:21:20Z</time>
      </trkpt>
      <trkpt lat="43.02186" lon="1.7548">
        <ele>515.40405273438</ele>
        <time>2013-02-10T10:21:24Z</time>
      </trkpt>
      <trkpt lat="43.022" lon="1.75484">
        <ele>516.84594726562</ele>
        <time>2013-02-10T10:21:29Z</time>
      </trkpt>
      <trkpt lat="43.02214" lon="1.75489">
        <ele>518.7685546875</ele>
        <time>2013-02-10T10:21:34Z</time>
      </trkpt>
      <trkpt lat="43.02217" lon="1.7549">
        <ele>518.7685546875</ele>
        <time>2013-02-10T10:21:35Z</time>
      </trkpt>
      <trkpt lat="43.0223" lon="1.75497">
        <ele>517.80725097656</ele>
        <time>2013-02-10T10:21:40Z</time>
      </trkpt>
      <trkpt lat="43.02242" lon="1.75505">
        <ele>516.365234375</ele>
        <time>2013-02-10T10:21:44Z</time>
      </trkpt>
      <trkpt lat="43.02256" lon="1.75509">
        <ele>514.44262695312</ele>
        <time>2013-02-10T10:21:50Z</time>
      </trkpt>
      <trkpt lat="43.02258" lon="1.75511">
        <ele>513.96203613281</ele>
        <time>2013-02-10T10:21:51Z</time>
      </trkpt>
      <trkpt lat="43.02269" lon="1.75522">
        <ele>511.55871582031</ele>
        <time>2013-02-10T10:21:56Z</time>
      </trkpt>
      <trkpt lat="43.02277" lon="1.75524">
        <ele>512.52001953125</ele>
        <time>2013-02-10T10:21:59Z</time>
      </trkpt>
      <trkpt lat="43.02295" lon="1.75525">
        <ele>515.40405273438</ele>
        <time>2013-02-10T10:22:05Z</time>
      </trkpt>
      <trkpt lat="43.02302" lon="1.75524">
        <ele>513.4814453125</ele>
        <time>2013-02-10T10:22:08Z</time>
      </trkpt>
      <trkpt lat="43.02313" lon="1.75525">
        <ele>511.55871582031</ele>
        <time>2013-02-10T10:22:13Z</time>
      </trkpt>
      <trkpt lat="43.02322" lon="1.75523">
        <ele>508.19409179688</ele>
        <time>2013-02-10T10:22:17Z</time>
      </trkpt>
      <trkpt lat="43.02325" lon="1.75524">
        <ele>506.75207519531</ele>
        <time>2013-02-10T10:22:18Z</time>
      </trkpt>
      <trkpt lat="43.02339" lon="1.75528">
        <ele>505.31018066406</ele>
        <time>2013-02-10T10:22:23Z</time>
      </trkpt>
      <trkpt lat="43.02344" lon="1.75528">
        <ele>504.82946777344</ele>
        <time>2013-02-10T10:22:25Z</time>
      </trkpt>
      <trkpt lat="43.02358" lon="1.75525">
        <ele>504.34887695312</ele>
        <time>2013-02-10T10:22:31Z</time>
      </trkpt>
      <trkpt lat="43.0236" lon="1.75524">
        <ele>504.34887695312</ele>
        <time>2013-02-10T10:22:32Z</time>
      </trkpt>
      <trkpt lat="43.02365" lon="1.75518">
        <ele>502.90673828125</ele>
        <time>2013-02-10T10:22:35Z</time>
      </trkpt>
      <trkpt lat="43.02374" lon="1.75511">
        <ele>499.0615234375</ele>
        <time>2013-02-10T10:22:40Z</time>
      </trkpt>
      <trkpt lat="43.02376" lon="1.75509">
        <ele>498.10034179688</ele>
        <time>2013-02-10T10:22:42Z</time>
      </trkpt>
      <trkpt lat="43.02386" lon="1.75497">
        <ele>493.77429199219</ele>
        <time>2013-02-10T10:22:50Z</time>
      </trkpt>
      <trkpt lat="43.02386" lon="1.75491">
        <ele>490.89038085938</ele>
        <time>2013-02-10T10:22:54Z</time>
      </trkpt>
      <trkpt lat="43.02389" lon="1.75486">
        <ele>488.48718261719</ele>
        <time>2013-02-10T10:22:58Z</time>
      </trkpt>
      <trkpt lat="43.02393" lon="1.75482">
        <ele>484.1611328125</ele>
        <time>2013-02-10T10:23:04Z</time>
      </trkpt>
      <trkpt lat="43.02393" lon="1.75482">
        <ele>483.68041992188</ele>
        <time>2013-02-10T10:23:05Z</time>
      </trkpt>
      <trkpt lat="43.02396" lon="1.75476">
        <ele>481.27722167969</ele>
        <time>2013-02-10T10:23:11Z</time>
      </trkpt>
      <trkpt lat="43.02396" lon="1.75472">
        <ele>479.3544921875</ele>
        <time>2013-02-10T10:23:15Z</time>
      </trkpt>
      <trkpt lat="43.02397" lon="1.75465">
        <ele>477.43188476562</ele>
        <time>2013-02-10T10:23:20Z</time>
      </trkpt>
      <trkpt lat="43.0239" lon="1.75455">
        <ele>475.02868652344</ele>
        <time>2013-02-10T10:23:25Z</time>
      </trkpt>
      <trkpt lat="43.02383" lon="1.75446">
        <ele>471.66394042969</ele>
        <time>2013-02-10T10:23:29Z</time>
      </trkpt>
      <trkpt lat="43.02371" lon="1.75434">
        <ele>466.37670898438</ele>
        <time>2013-02-10T10:23:34Z</time>
      </trkpt>
      <trkpt lat="43.02364" lon="1.75427">
        <ele>463.49279785156</ele>
        <time>2013-02-10T10:23:37Z</time>
      </trkpt>
      <trkpt lat="43.02353" lon="1.75416">
        <ele>459.64758300781</ele>
        <time>2013-02-10T10:23:42Z</time>
      </trkpt>
      <trkpt lat="43.0235" lon="1.75414">
        <ele>458.68615722656</ele>
        <time>2013-02-10T10:23:43Z</time>
      </trkpt>
      <trkpt lat="43.02338" lon="1.75399">
        <ele>456.28295898438</ele>
        <time>2013-02-10T10:23:49Z</time>
      </trkpt>
      <trkpt lat="43.02329" lon="1.75391">
        <ele>453.87963867188</ele>
        <time>2013-02-10T10:23:53Z</time>
      </trkpt>
      <trkpt lat="43.0232" lon="1.75381">
        <ele>451.47631835938</ele>
        <time>2013-02-10T10:23:57Z</time>
      </trkpt>
      <trkpt lat="43.0231" lon="1.75369">
        <ele>450.03442382812</ele>
        <time>2013-02-10T10:24:02Z</time>
      </trkpt>
      <trkpt lat="43.02306" lon="1.75366">
        <ele>449.5537109375</ele>
        <time>2013-02-10T10:24:04Z</time>
      </trkpt>
      <trkpt lat="43.02306" lon="1.75361">
        <ele>448.11181640625</ele>
        <time>2013-02-10T10:24:07Z</time>
      </trkpt>
      <trkpt lat="43.02313" lon="1.75362">
        <ele>449.07299804688</ele>
        <time>2013-02-10T10:24:11Z</time>
      </trkpt>
      <trkpt lat="43.02326" lon="1.75364">
        <ele>450.03442382812</ele>
        <time>2013-02-10T10:24:16Z</time>
      </trkpt>
      <trkpt lat="43.02331" lon="1.75363">
        <ele>450.03442382812</ele>
        <time>2013-02-10T10:24:21Z</time>
      </trkpt>
      <trkpt lat="43.02335" lon="1.75363">
        <ele>449.07299804688</ele>
        <time>2013-02-10T10:24:23Z</time>
      </trkpt>
      <trkpt lat="43.02345" lon="1.75369">
        <ele>442.34387207031</ele>
        <time>2013-02-10T10:24:29Z</time>
      </trkpt>
      <trkpt lat="43.02356" lon="1.75376">
        <ele>437.537109375</ele>
        <time>2013-02-10T10:24:34Z</time>
      </trkpt>
      <trkpt lat="43.02367" lon="1.75381">
        <ele>433.21130371094</ele>
        <time>2013-02-10T10:24:38Z</time>
      </trkpt>
      <trkpt lat="43.02378" lon="1.75383">
        <ele>429.84655761719</ele>
        <time>2013-02-10T10:24:43Z</time>
      </trkpt>
      <trkpt lat="43.02392" lon="1.75386">
        <ele>426.48205566406</ele>
        <time>2013-02-10T10:24:48Z</time>
      </trkpt>
      <trkpt lat="43.02401" lon="1.75387">
        <ele>425.52075195312</ele>
        <time>2013-02-10T10:24:52Z</time>
      </trkpt>
      <trkpt lat="43.02411" lon="1.75389">
        <ele>425.04016113281</ele>
        <time>2013-02-10T10:24:56Z</time>
      </trkpt>
      <trkpt lat="43.02423" lon="1.75391">
        <ele>426.00134277344</ele>
        <time>2013-02-10T10:25:01Z</time>
      </trkpt>
      <trkpt lat="43.02432" lon="1.75393">
        <ele>428.88537597656</ele>
        <time>2013-02-10T10:25:05Z</time>
      </trkpt>
      <trkpt lat="43.0244" lon="1.75394">
        <ele>428.88537597656</ele>
        <time>2013-02-10T10:25:08Z</time>
      </trkpt>
      <trkpt lat="43.02451" lon="1.75395">
        <ele>433.21130371094</ele>
        <time>2013-02-10T10:25:12Z</time>
      </trkpt>
      <trkpt lat="43.02464" lon="1.75395">
        <ele>439.45971679688</ele>
        <time>2013-02-10T10:25:16Z</time>
      </trkpt>
      <trkpt lat="43.02475" lon="1.75397">
        <ele>436.57592773438</ele>
        <time>2013-02-10T10:25:21Z</time>
      </trkpt>
      <trkpt lat="43.02489" lon="1.75397">
        <ele>440.42126464844</ele>
        <time>2013-02-10T10:25:26Z</time>
      </trkpt>
      <trkpt lat="43.02501" lon="1.75397">
        <ele>444.7470703125</ele>
        <time>2013-02-10T10:25:31Z</time>
      </trkpt>
      <trkpt lat="43.02517" lon="1.75399">
        <ele>445.22766113281</ele>
        <time>2013-02-10T10:25:37Z</time>
      </trkpt>
      <trkpt lat="43.02533" lon="1.75399">
        <ele>443.30505371094</ele>
        <time>2013-02-10T10:25:43Z</time>
      </trkpt>
      <trkpt lat="43.02542" lon="1.75396">
        <ele>445.22766113281</ele>
        <time>2013-02-10T10:25:47Z</time>
      </trkpt>
      <trkpt lat="43.02557" lon="1.75391">
        <ele>446.66967773438</ele>
        <time>2013-02-10T10:25:53Z</time>
      </trkpt>
      <trkpt lat="43.02571" lon="1.75384">
        <ele>448.11181640625</ele>
        <time>2013-02-10T10:25:59Z</time>
      </trkpt>
      <trkpt lat="43.02584" lon="1.75378">
        <ele>448.59240722656</ele>
        <time>2013-02-10T10:26:04Z</time>
      </trkpt>
      <trkpt lat="43.02593" lon="1.75373">
        <ele>448.59240722656</ele>
        <time>2013-02-10T10:26:08Z</time>
      </trkpt>
      <trkpt lat="43.02605" lon="1.75368">
        <ele>447.63098144531</ele>
        <time>2013-02-10T10:26:13Z</time>
      </trkpt>
      <trkpt lat="43.02621" lon="1.75359">
        <ele>444.7470703125</ele>
        <time>2013-02-10T10:26:20Z</time>
      </trkpt>
      <trkpt lat="43.02628" lon="1.75356">
        <ele>442.82446289062</ele>
        <time>2013-02-10T10:26:23Z</time>
      </trkpt>
      <trkpt lat="43.02643" lon="1.75351">
        <ele>438.97912597656</ele>
        <time>2013-02-10T10:26:29Z</time>
      </trkpt>
      <trkpt lat="43.02658" lon="1.75348">
        <ele>433.69189453125</ele>
        <time>2013-02-10T10:26:35Z</time>
      </trkpt>
      <trkpt lat="43.0267" lon="1.75346">
        <ele>429.36596679688</ele>
        <time>2013-02-10T10:26:40Z</time>
      </trkpt>
      <trkpt lat="43.02679" lon="1.75344">
        <ele>428.88537597656</ele>
        <time>2013-02-10T10:26:44Z</time>
      </trkpt>
      <trkpt lat="43.02689" lon="1.7534">
        <ele>427.443359375</ele>
        <time>2013-02-10T10:26:49Z</time>
      </trkpt>
      <trkpt lat="43.02701" lon="1.75336">
        <ele>430.32727050781</ele>
        <time>2013-02-10T10:26:54Z</time>
      </trkpt>
      <trkpt lat="43.0271" lon="1.75334">
        <ele>429.84655761719</ele>
        <time>2013-02-10T10:26:58Z</time>
      </trkpt>
      <trkpt lat="43.02711" lon="1.75333">
        <ele>429.36596679688</ele>
        <time>2013-02-10T10:26:59Z</time>
      </trkpt>
      <trkpt lat="43.02724" lon="1.75331">
        <ele>428.88537597656</ele>
        <time>2013-02-10T10:27:04Z</time>
      </trkpt>
      <trkpt lat="43.02731" lon="1.7533">
        <ele>428.40466308594</ele>
        <time>2013-02-10T10:27:06Z</time>
      </trkpt>
      <trkpt lat="43.02748" lon="1.75328">
        <ele>424.55944824219</ele>
        <time>2013-02-10T10:27:13Z</time>
      </trkpt>
      <trkpt lat="43.02761" lon="1.75328">
        <ele>419.75280761719</ele>
        <time>2013-02-10T10:27:17Z</time>
      </trkpt>
      <trkpt lat="43.02776" lon="1.75331">
        <ele>409.65905761719</ele>
        <time>2013-02-10T10:27:23Z</time>
      </trkpt>
      <trkpt lat="43.02786" lon="1.75332">
        <ele>409.65905761719</ele>
        <time>2013-02-10T10:27:27Z</time>
      </trkpt>
      <trkpt lat="43.028" lon="1.75331">
        <ele>406.77490234375</ele>
        <time>2013-02-10T10:27:32Z</time>
      </trkpt>
      <trkpt lat="43.02813" lon="1.75331">
        <ele>404.37170410156</ele>
        <time>2013-02-10T10:27:37Z</time>
      </trkpt>
      <trkpt lat="43.02824" lon="1.7533">
        <ele>402.9296875</ele>
        <time>2013-02-10T10:27:41Z</time>
      </trkpt>
      <trkpt lat="43.0284" lon="1.75334">
        <ele>401.96850585938</ele>
        <time>2013-02-10T10:27:47Z</time>
      </trkpt>
      <trkpt lat="43.02849" lon="1.75337">
        <ele>401.96850585938</ele>
        <time>2013-02-10T10:27:51Z</time>
      </trkpt>
      <trkpt lat="43.02861" lon="1.7534">
        <ele>401.00708007812</ele>
        <time>2013-02-10T10:27:56Z</time>
      </trkpt>
      <trkpt lat="43.02863" lon="1.75341">
        <ele>401.00708007812</ele>
        <time>2013-02-10T10:27:57Z</time>
      </trkpt>
      <trkpt lat="43.02878" lon="1.75344">
        <ele>402.44909667969</ele>
        <time>2013-02-10T10:28:02Z</time>
      </trkpt>
      <trkpt lat="43.02889" lon="1.75347">
        <ele>403.41040039062</ele>
        <time>2013-02-10T10:28:06Z</time>
      </trkpt>
      <trkpt lat="43.02901" lon="1.75348">
        <ele>405.3330078125</ele>
        <time>2013-02-10T10:28:11Z</time>
      </trkpt>
      <trkpt lat="43.02913" lon="1.75351">
        <ele>405.81372070312</ele>
        <time>2013-02-10T10:28:16Z</time>
      </trkpt>
      <trkpt lat="43.02925" lon="1.75354">
        <ele>403.89111328125</ele>
        <time>2013-02-10T10:28:20Z</time>
      </trkpt>
      <trkpt lat="43.02937" lon="1.75356">
        <ele>403.41040039062</ele>
        <time>2013-02-10T10:28:24Z</time>
      </trkpt>
      <trkpt lat="43.0294" lon="1.75355">
        <ele>403.89111328125</ele>
        <time>2013-02-10T10:28:25Z</time>
      </trkpt>
      <trkpt lat="43.02954" lon="1.75361">
        <ele>401.48779296875</ele>
        <time>2013-02-10T10:28:31Z</time>
      </trkpt>
      <trkpt lat="43.02961" lon="1.75365">
        <ele>401.96850585938</ele>
        <time>2013-02-10T10:28:34Z</time>
      </trkpt>
      <trkpt lat="43.02973" lon="1.75375">
        <ele>399.08435058594</ele>
        <time>2013-02-10T10:28:40Z</time>
      </trkpt>
      <trkpt lat="43.02982" lon="1.75382">
        <ele>398.60375976562</ele>
        <time>2013-02-10T10:28:44Z</time>
      </trkpt>
      <trkpt lat="43.02993" lon="1.75391">
        <ele>398.12316894531</ele>
        <time>2013-02-10T10:28:49Z</time>
      </trkpt>
      <trkpt lat="43.03001" lon="1.75402">
        <ele>397.64245605469</ele>
        <time>2013-02-10T10:28:54Z</time>
      </trkpt>
      <trkpt lat="43.03003" lon="1.75404">
        <ele>397.64245605469</ele>
        <time>2013-02-10T10:28:55Z</time>
      </trkpt>
      <trkpt lat="43.03014" lon="1.75416">
        <ele>396.68115234375</ele>
        <time>2013-02-10T10:29:00Z</time>
      </trkpt>
      <trkpt lat="43.03023" lon="1.75425">
        <ele>395.71984863281</ele>
        <time>2013-02-10T10:29:04Z</time>
      </trkpt>
      <trkpt lat="43.03036" lon="1.75439">
        <ele>394.75854492188</ele>
        <time>2013-02-10T10:29:10Z</time>
      </trkpt>
      <trkpt lat="43.03046" lon="1.75446">
        <ele>395.23913574219</ele>
        <time>2013-02-10T10:29:15Z</time>
      </trkpt>
      <trkpt lat="43.03053" lon="1.75458">
        <ele>394.75854492188</ele>
        <time>2013-02-10T10:29:19Z</time>
      </trkpt>
      <trkpt lat="43.03061" lon="1.75469">
        <ele>395.23913574219</ele>
        <time>2013-02-10T10:29:24Z</time>
      </trkpt>
      <trkpt lat="43.03071" lon="1.75482">
        <ele>393.79724121094</ele>
        <time>2013-02-10T10:29:30Z</time>
      </trkpt>
      <trkpt lat="43.03082" lon="1.75488">
        <ele>391.87451171875</ele>
        <time>2013-02-10T10:29:35Z</time>
      </trkpt>
      <trkpt lat="43.03099" lon="1.75502">
        <ele>388.99060058594</ele>
        <time>2013-02-10T10:29:42Z</time>
      </trkpt>
      <trkpt lat="43.03112" lon="1.75515">
        <ele>387.06799316406</ele>
        <time>2013-02-10T10:29:47Z</time>
      </trkpt>
      <trkpt lat="43.03117" lon="1.75529">
        <ele>385.14538574219</ele>
        <time>2013-02-10T10:29:51Z</time>
      </trkpt>
      <trkpt lat="43.03125" lon="1.75543">
        <ele>385.14538574219</ele>
        <time>2013-02-10T10:29:56Z</time>
      </trkpt>
      <trkpt lat="43.03131" lon="1.75558">
        <ele>385.6259765625</ele>
        <time>2013-02-10T10:30:00Z</time>
      </trkpt>
      <trkpt lat="43.03136" lon="1.75571">
        <ele>385.6259765625</ele>
        <time>2013-02-10T10:30:04Z</time>
      </trkpt>
      <trkpt lat="43.03143" lon="1.75587">
        <ele>387.06799316406</ele>
        <time>2013-02-10T10:30:09Z</time>
      </trkpt>
      <trkpt lat="43.03152" lon="1.75602">
        <ele>389.47119140625</ele>
        <time>2013-02-10T10:30:14Z</time>
      </trkpt>
      <trkpt lat="43.03161" lon="1.75623">
        <ele>390.91320800781</ele>
        <time>2013-02-10T10:30:20Z</time>
      </trkpt>
      <trkpt lat="43.03168" lon="1.75642">
        <ele>391.87451171875</ele>
        <time>2013-02-10T10:30:26Z</time>
      </trkpt>
      <trkpt lat="43.03172" lon="1.75656">
        <ele>393.31652832031</ele>
        <time>2013-02-10T10:30:30Z</time>
      </trkpt>
      <trkpt lat="43.03172" lon="1.75664">
        <ele>393.31652832031</ele>
        <time>2013-02-10T10:30:32Z</time>
      </trkpt>
      <trkpt lat="43.0318" lon="1.75682">
        <ele>394.27795410156</ele>
        <time>2013-02-10T10:30:39Z</time>
      </trkpt>
      <trkpt lat="43.03186" lon="1.75696">
        <ele>394.27795410156</ele>
        <time>2013-02-10T10:30:44Z</time>
      </trkpt>
      <trkpt lat="43.03191" lon="1.75714">
        <ele>391.39379882812</ele>
        <time>2013-02-10T10:30:50Z</time>
      </trkpt>
      <trkpt lat="43.03193" lon="1.75728">
        <ele>388.51000976562</ele>
        <time>2013-02-10T10:30:54Z</time>
      </trkpt>
      <trkpt lat="43.03199" lon="1.75746">
        <ele>386.10668945312</ele>
        <time>2013-02-10T10:31:00Z</time>
      </trkpt>
      <trkpt lat="43.03205" lon="1.75765">
        <ele>382.74206542969</ele>
        <time>2013-02-10T10:31:06Z</time>
      </trkpt>
      <trkpt lat="43.03208" lon="1.75771">
        <ele>382.26135253906</ele>
        <time>2013-02-10T10:31:08Z</time>
      </trkpt>
      <trkpt lat="43.03212" lon="1.75784">
        <ele>380.81945800781</ele>
        <time>2013-02-10T10:31:12Z</time>
      </trkpt>
      <trkpt lat="43.03217" lon="1.75809">
        <ele>377.45483398438</ele>
        <time>2013-02-10T10:31:18Z</time>
      </trkpt>
      <trkpt lat="43.03218" lon="1.7582">
        <ele>376.97424316406</ele>
        <time>2013-02-10T10:31:22Z</time>
      </trkpt>
      <trkpt lat="43.03223" lon="1.75836">
        <ele>375.05151367188</ele>
        <time>2013-02-10T10:31:27Z</time>
      </trkpt>
      <trkpt lat="43.03226" lon="1.75851">
        <ele>374.57080078125</ele>
        <time>2013-02-10T10:31:31Z</time>
      </trkpt>
      <trkpt lat="43.03228" lon="1.75867">
        <ele>374.57080078125</ele>
        <time>2013-02-10T10:31:35Z</time>
      </trkpt>
      <trkpt lat="43.03228" lon="1.75886">
        <ele>375.05151367188</ele>
        <time>2013-02-10T10:31:40Z</time>
      </trkpt>
      <trkpt lat="43.03228" lon="1.759">
        <ele>376.01281738281</ele>
        <time>2013-02-10T10:31:44Z</time>
      </trkpt>
      <trkpt lat="43.03228" lon="1.75919">
        <ele>376.01281738281</ele>
        <time>2013-02-10T10:31:49Z</time>
      </trkpt>
      <trkpt lat="43.03222" lon="1.75935">
        <ele>376.97424316406</ele>
        <time>2013-02-10T10:31:54Z</time>
      </trkpt>
      <trkpt lat="43.0322" lon="1.75943">
        <ele>377.93542480469</ele>
        <time>2013-02-10T10:31:56Z</time>
      </trkpt>
      <trkpt lat="43.03214" lon="1.75958">
        <ele>380.81945800781</ele>
        <time>2013-02-10T10:32:01Z</time>
      </trkpt>
      <trkpt lat="43.03209" lon="1.7597">
        <ele>383.22265625</ele>
        <time>2013-02-10T10:32:05Z</time>
      </trkpt>
      <trkpt lat="43.03205" lon="1.75986">
        <ele>383.22265625</ele>
        <time>2013-02-10T10:32:11Z</time>
      </trkpt>
      <trkpt lat="43.03201" lon="1.76003">
        <ele>381.78063964844</ele>
        <time>2013-02-10T10:32:17Z</time>
      </trkpt>
      <trkpt lat="43.03197" lon="1.76023">
        <ele>380.81945800781</ele>
        <time>2013-02-10T10:32:24Z</time>
      </trkpt>
      <trkpt lat="43.03193" lon="1.76038">
        <ele>380.81945800781</ele>
        <time>2013-02-10T10:32:29Z</time>
      </trkpt>
      <trkpt lat="43.03191" lon="1.7605">
        <ele>382.74206542969</ele>
        <time>2013-02-10T10:32:33Z</time>
      </trkpt>
      <trkpt lat="43.03186" lon="1.76065">
        <ele>385.14538574219</ele>
        <time>2013-02-10T10:32:37Z</time>
      </trkpt>
      <trkpt lat="43.03181" lon="1.76081">
        <ele>386.58740234375</ele>
        <time>2013-02-10T10:32:42Z</time>
      </trkpt>
      <trkpt lat="43.03176" lon="1.76096">
        <ele>386.10668945312</ele>
        <time>2013-02-10T10:32:47Z</time>
      </trkpt>
      <trkpt lat="43.03176" lon="1.76109">
        <ele>383.22265625</ele>
        <time>2013-02-10T10:32:51Z</time>
      </trkpt>
      <trkpt lat="43.03174" lon="1.76122">
        <ele>381.30004882812</ele>
        <time>2013-02-10T10:32:55Z</time>
      </trkpt>
      <trkpt lat="43.03169" lon="1.76142">
        <ele>380.33874511719</ele>
        <time>2013-02-10T10:33:01Z</time>
      </trkpt>
      <trkpt lat="43.03163" lon="1.76157">
        <ele>379.85803222656</ele>
        <time>2013-02-10T10:33:06Z</time>
      </trkpt>
      <trkpt lat="43.03156" lon="1.76176">
        <ele>382.26135253906</ele>
        <time>2013-02-10T10:33:11Z</time>
      </trkpt>
      <trkpt lat="43.03148" lon="1.76192">
        <ele>382.74206542969</ele>
        <time>2013-02-10T10:33:17Z</time>
      </trkpt>
      <trkpt lat="43.0314" lon="1.76205">
        <ele>381.30004882812</ele>
        <time>2013-02-10T10:33:22Z</time>
      </trkpt>
      <trkpt lat="43.03132" lon="1.76225">
        <ele>381.30004882812</ele>
        <time>2013-02-10T10:33:28Z</time>
      </trkpt>
      <trkpt lat="43.03123" lon="1.76245">
        <ele>378.89685058594</ele>
        <time>2013-02-10T10:33:35Z</time>
      </trkpt>
      <trkpt lat="43.0312" lon="1.76249">
        <ele>377.93542480469</ele>
        <time>2013-02-10T10:33:37Z</time>
      </trkpt>
      <trkpt lat="43.03114" lon="1.76261">
        <ele>376.97424316406</ele>
        <time>2013-02-10T10:33:42Z</time>
      </trkpt>
      <trkpt lat="43.03112" lon="1.76264">
        <ele>376.01281738281</ele>
        <time>2013-02-10T10:33:43Z</time>
      </trkpt>
      <trkpt lat="43.03105" lon="1.76283">
        <ele>375.05151367188</ele>
        <time>2013-02-10T10:33:49Z</time>
      </trkpt>
      <trkpt lat="43.03098" lon="1.763">
        <ele>372.64819335938</ele>
        <time>2013-02-10T10:33:54Z</time>
      </trkpt>
      <trkpt lat="43.03091" lon="1.76317">
        <ele>369.28369140625</ele>
        <time>2013-02-10T10:33:59Z</time>
      </trkpt>
      <trkpt lat="43.03087" lon="1.76335">
        <ele>370.24487304688</ele>
        <time>2013-02-10T10:34:03Z</time>
      </trkpt>
      <trkpt lat="43.0308" lon="1.76353">
        <ele>367.36096191406</ele>
        <time>2013-02-10T10:34:08Z</time>
      </trkpt>
      <trkpt lat="43.03075" lon="1.76369">
        <ele>363.03503417969</ele>
        <time>2013-02-10T10:34:13Z</time>
      </trkpt>
      <trkpt lat="43.0307" lon="1.76387">
        <ele>359.67041015625</ele>
        <time>2013-02-10T10:34:18Z</time>
      </trkpt>
      <trkpt lat="43.03065" lon="1.76401">
        <ele>358.22839355469</ele>
        <time>2013-02-10T10:34:22Z</time>
      </trkpt>
      <trkpt lat="43.03068" lon="1.76419">
        <ele>357.26708984375</ele>
        <time>2013-02-10T10:34:27Z</time>
      </trkpt>
      <trkpt lat="43.03075" lon="1.76436">
        <ele>357.74780273438</ele>
        <time>2013-02-10T10:34:32Z</time>
      </trkpt>
      <trkpt lat="43.03078" lon="1.7645">
        <ele>356.78637695312</ele>
        <time>2013-02-10T10:34:36Z</time>
      </trkpt>
      <trkpt lat="43.03082" lon="1.76463">
        <ele>356.30578613281</ele>
        <time>2013-02-10T10:34:40Z</time>
      </trkpt>
      <trkpt lat="43.03086" lon="1.76479">
        <ele>356.78637695312</ele>
        <time>2013-02-10T10:34:45Z</time>
      </trkpt>
      <trkpt lat="43.03092" lon="1.76494">
        <ele>357.74780273438</ele>
        <time>2013-02-10T10:34:50Z</time>
      </trkpt>
      <trkpt lat="43.03098" lon="1.76506">
        <ele>357.74780273438</ele>
        <time>2013-02-10T10:34:55Z</time>
      </trkpt>
      <trkpt lat="43.03099" lon="1.76511">
        <ele>357.74780273438</ele>
        <time>2013-02-10T10:34:57Z</time>
      </trkpt>
      <trkpt lat="43.03101" lon="1.76517">
        <ele>357.74780273438</ele>
        <time>2013-02-10T10:35:01Z</time>
      </trkpt>
      <trkpt lat="43.03102" lon="1.76523">
        <ele>357.74780273438</ele>
        <time>2013-02-10T10:35:04Z</time>
      </trkpt>
      <trkpt lat="43.03103" lon="1.76533">
        <ele>356.78637695312</ele>
        <time>2013-02-10T10:35:10Z</time>
      </trkpt>
      <trkpt lat="43.03105" lon="1.76535">
        <ele>357.74780273438</ele>
        <time>2013-02-10T10:35:15Z</time>
      </trkpt>
      <trkpt lat="43.0311" lon="1.76527">
        <ele>358.22839355469</ele>
        <time>2013-02-10T10:35:23Z</time>
      </trkpt>
      <trkpt lat="43.03115" lon="1.76518">
        <ele>358.22839355469</ele>
        <time>2013-02-10T10:35:30Z</time>
      </trkpt>
      <trkpt lat="43.0312" lon="1.76506">
        <ele>358.22839355469</ele>
        <time>2013-02-10T10:35:38Z</time>
      </trkpt>
      <trkpt lat="43.03125" lon="1.76497">
        <ele>354.86376953125</ele>
        <time>2013-02-10T10:35:45Z</time>
      </trkpt>
      <trkpt lat="43.03128" lon="1.76492">
        <ele>352.94116210938</ele>
        <time>2013-02-10T10:35:49Z</time>
      </trkpt>
      <trkpt lat="43.0313" lon="1.76487">
        <ele>350.53784179688</ele>
        <time>2013-02-10T10:35:53Z</time>
      </trkpt>
      <trkpt lat="43.03133" lon="1.76476">
        <ele>354.38317871094</ele>
        <time>2013-02-10T10:35:59Z</time>
      </trkpt>
      <trkpt lat="43.03136" lon="1.76465">
        <ele>355.8251953125</ele>
        <time>2013-02-10T10:36:06Z</time>
      </trkpt>
      <trkpt lat="43.03139" lon="1.7646">
        <ele>356.30578613281</ele>
        <time>2013-02-10T10:36:10Z</time>
      </trkpt>
      <trkpt lat="43.03144" lon="1.76449">
        <ele>356.30578613281</ele>
        <time>2013-02-10T10:36:17Z</time>
      </trkpt>
      <trkpt lat="43.03151" lon="1.76436">
        <ele>359.67041015625</ele>
        <time>2013-02-10T10:36:27Z</time>
      </trkpt>
      <trkpt lat="43.03156" lon="1.76426">
        <ele>362.55432128906</ele>
        <time>2013-02-10T10:36:33Z</time>
      </trkpt>
      <trkpt lat="43.03162" lon="1.76411">
        <ele>362.55432128906</ele>
        <time>2013-02-10T10:36:42Z</time>
      </trkpt>
      <trkpt lat="43.0317" lon="1.76395">
        <ele>362.55432128906</ele>
        <time>2013-02-10T10:36:48Z</time>
      </trkpt>
      <trkpt lat="43.03177" lon="1.76378">
        <ele>361.59313964844</ele>
        <time>2013-02-10T10:36:53Z</time>
      </trkpt>
      <trkpt lat="43.03183" lon="1.76366">
        <ele>362.07373046875</ele>
        <time>2013-02-10T10:36:57Z</time>
      </trkpt>
      <trkpt lat="43.03189" lon="1.76355">
        <ele>363.03503417969</ele>
        <time>2013-02-10T10:37:01Z</time>
      </trkpt>
      <trkpt lat="43.03193" lon="1.76344">
        <ele>363.99633789062</ele>
        <time>2013-02-10T10:37:05Z</time>
      </trkpt>
      <trkpt lat="43.03197" lon="1.76337">
        <ele>364.95764160156</ele>
        <time>2013-02-10T10:37:08Z</time>
      </trkpt>
      <trkpt lat="43.03203" lon="1.76327">
        <ele>364.95764160156</ele>
        <time>2013-02-10T10:37:12Z</time>
      </trkpt>
      <trkpt lat="43.03209" lon="1.76318">
        <ele>365.43835449219</ele>
        <time>2013-02-10T10:37:16Z</time>
      </trkpt>
      <trkpt lat="43.03213" lon="1.76309">
        <ele>366.39953613281</ele>
        <time>2013-02-10T10:37:23Z</time>
      </trkpt>
      <trkpt lat="43.03214" lon="1.76308">
        <ele>366.39953613281</ele>
        <time>2013-02-10T10:37:24Z</time>
      </trkpt>
      <trkpt lat="43.03215" lon="1.76305">
        <ele>366.88024902344</ele>
        <time>2013-02-10T10:37:26Z</time>
      </trkpt>
      <trkpt lat="43.03216" lon="1.763">
        <ele>368.80297851562</ele>
        <time>2013-02-10T10:37:30Z</time>
      </trkpt>
      <trkpt lat="43.03221" lon="1.7629">
        <ele>369.28369140625</ele>
        <time>2013-02-10T10:37:34Z</time>
      </trkpt>
      <trkpt lat="43.03225" lon="1.7628">
        <ele>369.76428222656</ele>
        <time>2013-02-10T10:37:38Z</time>
      </trkpt>
      <trkpt lat="43.03231" lon="1.76266">
        <ele>370.24487304688</ele>
        <time>2013-02-10T10:37:44Z</time>
      </trkpt>
      <trkpt lat="43.03238" lon="1.76254">
        <ele>370.7255859375</ele>
        <time>2013-02-10T10:37:49Z</time>
      </trkpt>
      <trkpt lat="43.03238" lon="1.76251">
        <ele>370.7255859375</ele>
        <time>2013-02-10T10:37:50Z</time>
      </trkpt>
      <trkpt lat="43.03239" lon="1.76239">
        <ele>370.7255859375</ele>
        <time>2013-02-10T10:37:56Z</time>
      </trkpt>
      <trkpt lat="43.03241" lon="1.76228">
        <ele>369.76428222656</ele>
        <time>2013-02-10T10:38:03Z</time>
      </trkpt>
      <trkpt lat="43.0324" lon="1.7622">
        <ele>370.7255859375</ele>
        <time>2013-02-10T10:38:08Z</time>
      </trkpt>
      <trkpt lat="43.03241" lon="1.76216">
        <ele>370.7255859375</ele>
        <time>2013-02-10T10:38:11Z</time>
      </trkpt>
      <trkpt lat="43.03244" lon="1.76207">
        <ele>369.76428222656</ele>
        <time>2013-02-10T10:38:17Z</time>
      </trkpt>
      <trkpt lat="43.03245" lon="1.76202">
        <ele>369.28369140625</ele>
        <time>2013-02-10T10:38:20Z</time>
      </trkpt>
      <trkpt lat="43.03246" lon="1.76198">
        <ele>368.80297851562</ele>
        <time>2013-02-10T10:38:23Z</time>
      </trkpt>
      <trkpt lat="43.03249" lon="1.76185">
        <ele>369.28369140625</ele>
        <time>2013-02-10T10:38:31Z</time>
      </trkpt>
      <trkpt lat="43.03252" lon="1.76179">
        <ele>370.24487304688</ele>
        <time>2013-02-10T10:38:36Z</time>
      </trkpt>
      <trkpt lat="43.03257" lon="1.76169">
        <ele>376.49353027344</ele>
        <time>2013-02-10T10:38:44Z</time>
      </trkpt>
      <trkpt lat="43.03258" lon="1.76168">
        <ele>376.97424316406</ele>
        <time>2013-02-10T10:38:45Z</time>
      </trkpt>
      <trkpt lat="43.0326" lon="1.76159">
        <ele>382.26135253906</ele>
        <time>2013-02-10T10:38:52Z</time>
      </trkpt>
      <trkpt lat="43.03265" lon="1.76148">
        <ele>384.18408203125</ele>
        <time>2013-02-10T10:39:01Z</time>
      </trkpt>
      <trkpt lat="43.03272" lon="1.76137">
        <ele>386.10668945312</ele>
        <time>2013-02-10T10:39:11Z</time>
      </trkpt>
      <trkpt lat="43.03275" lon="1.7613">
        <ele>386.58740234375</ele>
        <time>2013-02-10T10:39:18Z</time>
      </trkpt>
      <trkpt lat="43.03278" lon="1.7612">
        <ele>388.029296875</ele>
        <time>2013-02-10T10:39:25Z</time>
      </trkpt>
      <trkpt lat="43.03279" lon="1.76117">
        <ele>387.06799316406</ele>
        <time>2013-02-10T10:39:28Z</time>
      </trkpt>
      <trkpt lat="43.03284" lon="1.76109">
        <ele>386.10668945312</ele>
        <time>2013-02-10T10:39:35Z</time>
      </trkpt>
      <trkpt lat="43.03289" lon="1.76101">
        <ele>387.06799316406</ele>
        <time>2013-02-10T10:39:41Z</time>
      </trkpt>
      <trkpt lat="43.03294" lon="1.76091">
        <ele>387.54858398438</ele>
        <time>2013-02-10T10:39:48Z</time>
      </trkpt>
      <trkpt lat="43.03295" lon="1.76089">
        <ele>387.06799316406</ele>
        <time>2013-02-10T10:39:50Z</time>
      </trkpt>
      <trkpt lat="43.03299" lon="1.76091">
        <ele>389.95190429688</ele>
        <time>2013-02-10T10:39:57Z</time>
      </trkpt>
      <trkpt lat="43.03302" lon="1.76097">
        <ele>393.31652832031</ele>
        <time>2013-02-10T10:40:02Z</time>
      </trkpt>
      <trkpt lat="43.03305" lon="1.76102">
        <ele>395.71984863281</ele>
        <time>2013-02-10T10:40:08Z</time>
      </trkpt>
      <trkpt lat="43.0331" lon="1.76102">
        <ele>401.48779296875</ele>
        <time>2013-02-10T10:40:13Z</time>
      </trkpt>
      <trkpt lat="43.03315" lon="1.76099">
        <ele>402.9296875</ele>
        <time>2013-02-10T10:40:19Z</time>
      </trkpt>
      <trkpt lat="43.03322" lon="1.76093">
        <ele>400.52648925781</ele>
        <time>2013-02-10T10:40:28Z</time>
      </trkpt>
      <trkpt lat="43.03329" lon="1.76091">
        <ele>402.9296875</ele>
        <time>2013-02-10T10:40:33Z</time>
      </trkpt>
      <trkpt lat="43.03333" lon="1.76091">
        <ele>405.3330078125</ele>
        <time>2013-02-10T10:40:37Z</time>
      </trkpt>
      <trkpt lat="43.03341" lon="1.7609">
        <ele>409.17834472656</ele>
        <time>2013-02-10T10:40:45Z</time>
      </trkpt>
      <trkpt lat="43.0335" lon="1.76088">
        <ele>411.10095214844</ele>
        <time>2013-02-10T10:40:53Z</time>
      </trkpt>
      <trkpt lat="43.03357" lon="1.76085">
        <ele>415.90747070312</ele>
        <time>2013-02-10T10:41:01Z</time>
      </trkpt>
      <trkpt lat="43.0336" lon="1.76085">
        <ele>416.86889648438</ele>
        <time>2013-02-10T10:41:03Z</time>
      </trkpt>
      <trkpt lat="43.03368" lon="1.76085">
        <ele>413.98486328125</ele>
        <time>2013-02-10T10:41:09Z</time>
      </trkpt>
      <trkpt lat="43.03381" lon="1.76082">
        <ele>412.54284667969</ele>
        <time>2013-02-10T10:41:19Z</time>
      </trkpt>
      <trkpt lat="43.03391" lon="1.7608">
        <ele>412.54284667969</ele>
        <time>2013-02-10T10:41:26Z</time>
      </trkpt>
      <trkpt lat="43.03399" lon="1.76083">
        <ele>414.46545410156</ele>
        <time>2013-02-10T10:41:32Z</time>
      </trkpt>
      <trkpt lat="43.03406" lon="1.76091">
        <ele>415.90747070312</ele>
        <time>2013-02-10T10:41:38Z</time>
      </trkpt>
      <trkpt lat="43.03409" lon="1.76097">
        <ele>416.38818359375</ele>
        <time>2013-02-10T10:41:41Z</time>
      </trkpt>
      <trkpt lat="43.03416" lon="1.76114">
        <ele>416.38818359375</ele>
        <time>2013-02-10T10:41:49Z</time>
      </trkpt>
      <trkpt lat="43.03416" lon="1.76115">
        <ele>416.38818359375</ele>
        <time>2013-02-10T10:41:50Z</time>
      </trkpt>
      <trkpt lat="43.03421" lon="1.76124">
        <ele>416.86889648438</ele>
        <time>2013-02-10T10:41:55Z</time>
      </trkpt>
      <trkpt lat="43.03424" lon="1.76133">
        <ele>417.349609375</ele>
        <time>2013-02-10T10:42:00Z</time>
      </trkpt>
      <trkpt lat="43.03429" lon="1.76138">
        <ele>417.349609375</ele>
        <time>2013-02-10T10:42:05Z</time>
      </trkpt>
      <trkpt lat="43.03431" lon="1.76146">
        <ele>417.83020019531</ele>
        <time>2013-02-10T10:42:09Z</time>
      </trkpt>
      <trkpt lat="43.03434" lon="1.7615">
        <ele>418.79150390625</ele>
        <time>2013-02-10T10:42:12Z</time>
      </trkpt>
      <trkpt lat="43.03437" lon="1.76155">
        <ele>418.79150390625</ele>
        <time>2013-02-10T10:42:16Z</time>
      </trkpt>
      <trkpt lat="43.0344" lon="1.7616">
        <ele>419.75280761719</ele>
        <time>2013-02-10T10:42:20Z</time>
      </trkpt>
      <trkpt lat="43.03442" lon="1.76163">
        <ele>420.2333984375</ele>
        <time>2013-02-10T10:42:22Z</time>
      </trkpt>
      <trkpt lat="43.03448" lon="1.76169">
        <ele>419.75280761719</ele>
        <time>2013-02-10T10:42:28Z</time>
      </trkpt>
      <trkpt lat="43.03449" lon="1.76175">
        <ele>419.75280761719</ele>
        <time>2013-02-10T10:42:31Z</time>
      </trkpt>
      <trkpt lat="43.0345" lon="1.76188">
        <ele>420.71411132812</ele>
        <time>2013-02-10T10:42:37Z</time>
      </trkpt>
      <trkpt lat="43.0345" lon="1.762">
        <ele>422.63671875</ele>
        <time>2013-02-10T10:42:42Z</time>
      </trkpt>
      <trkpt lat="43.0345" lon="1.76211">
        <ele>425.04016113281</ele>
        <time>2013-02-10T10:42:48Z</time>
      </trkpt>
      <trkpt lat="43.0345" lon="1.76216">
        <ele>426.00134277344</ele>
        <time>2013-02-10T10:42:50Z</time>
      </trkpt>
      <trkpt lat="43.03449" lon="1.76232">
        <ele>425.52075195312</ele>
        <time>2013-02-10T10:42:55Z</time>
      </trkpt>
      <trkpt lat="43.03451" lon="1.76252">
        <ele>425.52075195312</ele>
        <time>2013-02-10T10:43:01Z</time>
      </trkpt>
      <trkpt lat="43.03456" lon="1.76265">
        <ele>426.48205566406</ele>
        <time>2013-02-10T10:43:06Z</time>
      </trkpt>
      <trkpt lat="43.03459" lon="1.76285">
        <ele>428.88537597656</ele>
        <time>2013-02-10T10:43:12Z</time>
      </trkpt>
      <trkpt lat="43.03459" lon="1.76304">
        <ele>428.40466308594</ele>
        <time>2013-02-10T10:43:17Z</time>
      </trkpt>
      <trkpt lat="43.03462" lon="1.76318">
        <ele>425.52075195312</ele>
        <time>2013-02-10T10:43:21Z</time>
      </trkpt>
      <trkpt lat="43.03465" lon="1.76321">
        <ele>424.07873535156</ele>
        <time>2013-02-10T10:43:23Z</time>
      </trkpt>
      <trkpt lat="43.03471" lon="1.7633">
        <ele>422.63671875</ele>
        <time>2013-02-10T10:43:27Z</time>
      </trkpt>
      <trkpt lat="43.03479" lon="1.76347">
        <ele>421.67541503906</ele>
        <time>2013-02-10T10:43:34Z</time>
      </trkpt>
      <trkpt lat="43.03484" lon="1.76363">
        <ele>421.19482421875</ele>
        <time>2013-02-10T10:43:40Z</time>
      </trkpt>
      <trkpt lat="43.03488" lon="1.7638">
        <ele>421.19482421875</ele>
        <time>2013-02-10T10:43:46Z</time>
      </trkpt>
      <trkpt lat="43.03492" lon="1.76398">
        <ele>420.71411132812</ele>
        <time>2013-02-10T10:43:52Z</time>
      </trkpt>
      <trkpt lat="43.03493" lon="1.76402">
        <ele>420.71411132812</ele>
        <time>2013-02-10T10:43:53Z</time>
      </trkpt>
      <trkpt lat="43.035" lon="1.76418">
        <ele>419.75280761719</ele>
        <time>2013-02-10T10:43:58Z</time>
      </trkpt>
      <trkpt lat="43.03506" lon="1.76432">
        <ele>418.79150390625</ele>
        <time>2013-02-10T10:44:03Z</time>
      </trkpt>
      <trkpt lat="43.03511" lon="1.76442">
        <ele>417.83020019531</ele>
        <time>2013-02-10T10:44:07Z</time>
      </trkpt>
      <trkpt lat="43.03515" lon="1.76451">
        <ele>417.349609375</ele>
        <time>2013-02-10T10:44:10Z</time>
      </trkpt>
      <trkpt lat="43.03518" lon="1.76462">
        <ele>416.38818359375</ele>
        <time>2013-02-10T10:44:13Z</time>
      </trkpt>
      <trkpt lat="43.03525" lon="1.76476">
        <ele>417.349609375</ele>
        <time>2013-02-10T10:44:19Z</time>
      </trkpt>
      <trkpt lat="43.03528" lon="1.76491">
        <ele>416.38818359375</ele>
        <time>2013-02-10T10:44:24Z</time>
      </trkpt>
      <trkpt lat="43.03531" lon="1.76503">
        <ele>416.38818359375</ele>
        <time>2013-02-10T10:44:28Z</time>
      </trkpt>
      <trkpt lat="43.03533" lon="1.76513">
        <ele>416.86889648438</ele>
        <time>2013-02-10T10:44:31Z</time>
      </trkpt>
      <trkpt lat="43.03534" lon="1.76537">
        <ele>419.27221679688</ele>
        <time>2013-02-10T10:44:37Z</time>
      </trkpt>
      <trkpt lat="43.03538" lon="1.76554">
        <ele>416.86889648438</ele>
        <time>2013-02-10T10:44:42Z</time>
      </trkpt>
      <trkpt lat="43.03544" lon="1.76571">
        <ele>414.94616699219</ele>
        <time>2013-02-10T10:44:47Z</time>
      </trkpt>
      <trkpt lat="43.03551" lon="1.76585">
        <ele>412.54284667969</ele>
        <time>2013-02-10T10:44:52Z</time>
      </trkpt>
      <trkpt lat="43.03564" lon="1.76592">
        <ele>412.06225585938</ele>
        <time>2013-02-10T10:44:56Z</time>
      </trkpt>
      <trkpt lat="43.03568" lon="1.76593">
        <ele>411.58166503906</ele>
        <time>2013-02-10T10:44:57Z</time>
      </trkpt>
      <trkpt lat="43.03574" lon="1.76613">
        <ele>407.736328125</ele>
        <time>2013-02-10T10:45:03Z</time>
      </trkpt>
      <trkpt lat="43.0358" lon="1.76626">
        <ele>404.85229492188</ele>
        <time>2013-02-10T10:45:07Z</time>
      </trkpt>
      <trkpt lat="43.03584" lon="1.7663">
        <ele>403.89111328125</ele>
        <time>2013-02-10T10:45:09Z</time>
      </trkpt>
      <trkpt lat="43.0359" lon="1.76648">
        <ele>403.41040039062</ele>
        <time>2013-02-10T10:45:15Z</time>
      </trkpt>
      <trkpt lat="43.03597" lon="1.76662">
        <ele>401.96850585938</ele>
        <time>2013-02-10T10:45:20Z</time>
      </trkpt>
      <trkpt lat="43.03602" lon="1.76671">
        <ele>401.48779296875</ele>
        <time>2013-02-10T10:45:24Z</time>
      </trkpt>
      <trkpt lat="43.03605" lon="1.76681">
        <ele>400.52648925781</ele>
        <time>2013-02-10T10:45:28Z</time>
      </trkpt>
      <trkpt lat="43.03606" lon="1.76686">
        <ele>400.52648925781</ele>
        <time>2013-02-10T10:45:30Z</time>
      </trkpt>
      <trkpt lat="43.03613" lon="1.76703">
        <ele>399.56506347656</ele>
        <time>2013-02-10T10:45:36Z</time>
      </trkpt>
      <trkpt lat="43.03617" lon="1.76711">
        <ele>398.60375976562</ele>
        <time>2013-02-10T10:45:39Z</time>
      </trkpt>
      <trkpt lat="43.03625" lon="1.76734">
        <ele>394.27795410156</ele>
        <time>2013-02-10T10:45:46Z</time>
      </trkpt>
      <trkpt lat="43.03632" lon="1.76751">
        <ele>391.39379882812</ele>
        <time>2013-02-10T10:45:51Z</time>
      </trkpt>
      <trkpt lat="43.03638" lon="1.76763">
        <ele>390.4326171875</ele>
        <time>2013-02-10T10:45:55Z</time>
      </trkpt>
      <trkpt lat="43.03639" lon="1.76768">
        <ele>390.4326171875</ele>
        <time>2013-02-10T10:45:56Z</time>
      </trkpt>
      <trkpt lat="43.03639" lon="1.76788">
        <ele>389.95190429688</ele>
        <time>2013-02-10T10:46:01Z</time>
      </trkpt>
      <trkpt lat="43.03638" lon="1.76791">
        <ele>389.47119140625</ele>
        <time>2013-02-10T10:46:02Z</time>
      </trkpt>
      <trkpt lat="43.0364" lon="1.76801">
        <ele>390.4326171875</ele>
        <time>2013-02-10T10:46:06Z</time>
      </trkpt>
      <trkpt lat="43.03642" lon="1.76816">
        <ele>390.91320800781</ele>
        <time>2013-02-10T10:46:12Z</time>
      </trkpt>
      <trkpt lat="43.03643" lon="1.76831">
        <ele>392.35534667969</ele>
        <time>2013-02-10T10:46:17Z</time>
      </trkpt>
      <trkpt lat="43.03643" lon="1.7685">
        <ele>392.8359375</ele>
        <time>2013-02-10T10:46:23Z</time>
      </trkpt>
      <trkpt lat="43.03645" lon="1.76865">
        <ele>393.31652832031</ele>
        <time>2013-02-10T10:46:28Z</time>
      </trkpt>
      <trkpt lat="43.03646" lon="1.76881">
        <ele>392.8359375</ele>
        <time>2013-02-10T10:46:34Z</time>
      </trkpt>
      <trkpt lat="43.03646" lon="1.76898">
        <ele>391.39379882812</ele>
        <time>2013-02-10T10:46:39Z</time>
      </trkpt>
      <trkpt lat="43.03648" lon="1.7692">
        <ele>389.47119140625</ele>
        <time>2013-02-10T10:46:45Z</time>
      </trkpt>
      <trkpt lat="43.03652" lon="1.76942">
        <ele>388.029296875</ele>
        <time>2013-02-10T10:46:51Z</time>
      </trkpt>
      <trkpt lat="43.03654" lon="1.76947">
        <ele>386.58740234375</ele>
        <time>2013-02-10T10:46:53Z</time>
      </trkpt>
      <trkpt lat="43.0366" lon="1.7696">
        <ele>382.74206542969</ele>
        <time>2013-02-10T10:46:58Z</time>
      </trkpt>
      <trkpt lat="43.03666" lon="1.76969">
        <ele>380.81945800781</ele>
        <time>2013-02-10T10:47:02Z</time>
      </trkpt>
      <trkpt lat="43.03674" lon="1.76979">
        <ele>378.89685058594</ele>
        <time>2013-02-10T10:47:06Z</time>
      </trkpt>
      <trkpt lat="43.03679" lon="1.76986">
        <ele>377.93542480469</ele>
        <time>2013-02-10T10:47:09Z</time>
      </trkpt>
      <trkpt lat="43.03686" lon="1.77003">
        <ele>377.93542480469</ele>
        <time>2013-02-10T10:47:14Z</time>
      </trkpt>
      <trkpt lat="43.03687" lon="1.77005">
        <ele>377.93542480469</ele>
        <time>2013-02-10T10:47:15Z</time>
      </trkpt>
      <trkpt lat="43.03698" lon="1.77023">
        <ele>377.45483398438</ele>
        <time>2013-02-10T10:47:22Z</time>
      </trkpt>
      <trkpt lat="43.03705" lon="1.77039">
        <ele>377.45483398438</ele>
        <time>2013-02-10T10:47:27Z</time>
      </trkpt>
      <trkpt lat="43.03709" lon="1.77051">
        <ele>378.41613769531</ele>
        <time>2013-02-10T10:47:31Z</time>
      </trkpt>
      <trkpt lat="43.03712" lon="1.77066">
        <ele>377.93542480469</ele>
        <time>2013-02-10T10:47:35Z</time>
      </trkpt>
      <trkpt lat="43.03718" lon="1.77081">
        <ele>376.49353027344</ele>
        <time>2013-02-10T10:47:40Z</time>
      </trkpt>
      <trkpt lat="43.03725" lon="1.77091">
        <ele>375.53210449219</ele>
        <time>2013-02-10T10:47:44Z</time>
      </trkpt>
      <trkpt lat="43.03732" lon="1.77102">
        <ele>373.60949707031</ele>
        <time>2013-02-10T10:47:48Z</time>
      </trkpt>
      <trkpt lat="43.0374" lon="1.77111">
        <ele>371.68688964844</ele>
        <time>2013-02-10T10:47:52Z</time>
      </trkpt>
      <trkpt lat="43.03747" lon="1.77123">
        <ele>371.20629882812</ele>
        <time>2013-02-10T10:47:56Z</time>
      </trkpt>
      <trkpt lat="43.03755" lon="1.77137">
        <ele>368.80297851562</ele>
        <time>2013-02-10T10:48:01Z</time>
      </trkpt>
      <trkpt lat="43.03762" lon="1.77152">
        <ele>365.9189453125</ele>
        <time>2013-02-10T10:48:06Z</time>
      </trkpt>
      <trkpt lat="43.03764" lon="1.77159">
        <ele>364.95764160156</ele>
        <time>2013-02-10T10:48:08Z</time>
      </trkpt>
      <trkpt lat="43.0377" lon="1.77173">
        <ele>363.03503417969</ele>
        <time>2013-02-10T10:48:13Z</time>
      </trkpt>
      <trkpt lat="43.03779" lon="1.77186">
        <ele>361.11242675781</ele>
        <time>2013-02-10T10:48:18Z</time>
      </trkpt>
      <trkpt lat="43.0379" lon="1.77196">
        <ele>359.67041015625</ele>
        <time>2013-02-10T10:48:23Z</time>
      </trkpt>
      <trkpt lat="43.03798" lon="1.77206">
        <ele>359.67041015625</ele>
        <time>2013-02-10T10:48:27Z</time>
      </trkpt>
      <trkpt lat="43.03804" lon="1.77219">
        <ele>358.708984375</ele>
        <time>2013-02-10T10:48:32Z</time>
      </trkpt>
      <trkpt lat="43.03807" lon="1.7723">
        <ele>358.708984375</ele>
        <time>2013-02-10T10:48:35Z</time>
      </trkpt>
      <trkpt lat="43.03811" lon="1.7725">
        <ele>357.74780273438</ele>
        <time>2013-02-10T10:48:40Z</time>
      </trkpt>
      <trkpt lat="43.03818" lon="1.77256">
        <ele>357.74780273438</ele>
        <time>2013-02-10T10:48:43Z</time>
      </trkpt>
      <trkpt lat="43.0383" lon="1.77273">
        <ele>356.30578613281</ele>
        <time>2013-02-10T10:48:50Z</time>
      </trkpt>
      <trkpt lat="43.03839" lon="1.77289">
        <ele>355.34448242188</ele>
        <time>2013-02-10T10:48:56Z</time>
      </trkpt>
      <trkpt lat="43.03842" lon="1.77299">
        <ele>354.86376953125</ele>
        <time>2013-02-10T10:48:59Z</time>
      </trkpt>
      <trkpt lat="43.03851" lon="1.77312">
        <ele>353.421875</ele>
        <time>2013-02-10T10:49:04Z</time>
      </trkpt>
      <trkpt lat="43.03854" lon="1.77315">
        <ele>352.46057128906</ele>
        <time>2013-02-10T10:49:06Z</time>
      </trkpt>
      <trkpt lat="43.03864" lon="1.77327">
        <ele>351.49914550781</ele>
        <time>2013-02-10T10:49:12Z</time>
      </trkpt>
      <trkpt lat="43.03869" lon="1.77341">
        <ele>349.09582519531</ele>
        <time>2013-02-10T10:49:17Z</time>
      </trkpt>
      <trkpt lat="43.03872" lon="1.77347">
        <ele>348.13464355469</ele>
        <time>2013-02-10T10:49:19Z</time>
      </trkpt>
      <trkpt lat="43.03876" lon="1.77363">
        <ele>343.80859375</ele>
        <time>2013-02-10T10:49:25Z</time>
      </trkpt>
      <trkpt lat="43.0388" lon="1.77375">
        <ele>340.44409179688</ele>
        <time>2013-02-10T10:49:29Z</time>
      </trkpt>
      <trkpt lat="43.03892" lon="1.77394">
        <ele>338.521484375</ele>
        <time>2013-02-10T10:49:35Z</time>
      </trkpt>
      <trkpt lat="43.039" lon="1.77404">
        <ele>336.1181640625</ele>
        <time>2013-02-10T10:49:39Z</time>
      </trkpt>
      <trkpt lat="43.0391" lon="1.77414">
        <ele>333.23413085938</ele>
        <time>2013-02-10T10:49:44Z</time>
      </trkpt>
      <trkpt lat="43.03915" lon="1.77424">
        <ele>332.27282714844</ele>
        <time>2013-02-10T10:49:47Z</time>
      </trkpt>
      <trkpt lat="43.03925" lon="1.77431">
        <ele>331.79211425781</ele>
        <time>2013-02-10T10:49:51Z</time>
      </trkpt>
      <trkpt lat="43.03941" lon="1.77435">
        <ele>332.27282714844</ele>
        <time>2013-02-10T10:49:57Z</time>
      </trkpt>
      <trkpt lat="43.03949" lon="1.77441">
        <ele>330.83093261719</ele>
        <time>2013-02-10T10:50:02Z</time>
      </trkpt>
      <trkpt lat="43.03959" lon="1.77447">
        <ele>332.75354003906</ele>
        <time>2013-02-10T10:50:08Z</time>
      </trkpt>
      <trkpt lat="43.03968" lon="1.77456">
        <ele>335.15673828125</ele>
        <time>2013-02-10T10:50:14Z</time>
      </trkpt>
      <trkpt lat="43.03976" lon="1.7746">
        <ele>337.07946777344</ele>
        <time>2013-02-10T10:50:18Z</time>
      </trkpt>
      <trkpt lat="43.03985" lon="1.7747">
        <ele>337.56005859375</ele>
        <time>2013-02-10T10:50:23Z</time>
      </trkpt>
      <trkpt lat="43.03989" lon="1.77475">
        <ele>337.56005859375</ele>
        <time>2013-02-10T10:50:25Z</time>
      </trkpt>
      <trkpt lat="43.03992" lon="1.77487">
        <ele>338.04077148438</ele>
        <time>2013-02-10T10:50:29Z</time>
      </trkpt>
      <trkpt lat="43.03998" lon="1.77492">
        <ele>337.56005859375</ele>
        <time>2013-02-10T10:50:32Z</time>
      </trkpt>
      <trkpt lat="43.04001" lon="1.77494">
        <ele>337.56005859375</ele>
        <time>2013-02-10T10:50:35Z</time>
      </trkpt>
      <trkpt lat="43.04004" lon="1.77494">
        <ele>336.59887695312</ele>
        <time>2013-02-10T10:50:40Z</time>
      </trkpt>
      <trkpt lat="43.04003" lon="1.77488">
        <ele>335.63732910156</ele>
        <time>2013-02-10T10:50:46Z</time>
      </trkpt>
      <trkpt lat="43.04" lon="1.77479">
        <ele>336.1181640625</ele>
        <time>2013-02-10T10:50:53Z</time>
      </trkpt>
      <trkpt lat="43.04002" lon="1.77471">
        <ele>338.04077148438</ele>
        <time>2013-02-10T10:51:00Z</time>
      </trkpt>
      <trkpt lat="43.04005" lon="1.77462">
        <ele>339.96337890625</ele>
        <time>2013-02-10T10:51:08Z</time>
      </trkpt>
      <trkpt lat="43.04012" lon="1.77452">
        <ele>340.92468261719</ele>
        <time>2013-02-10T10:51:18Z</time>
      </trkpt>
      <trkpt lat="43.04017" lon="1.77441">
        <ele>341.88598632812</ele>
        <time>2013-02-10T10:51:27Z</time>
      </trkpt>
      <trkpt lat="43.04022" lon="1.77433">
        <ele>344.28942871094</ele>
        <time>2013-02-10T10:51:34Z</time>
      </trkpt>
      <trkpt lat="43.04024" lon="1.77425">
        <ele>346.69262695312</ele>
        <time>2013-02-10T10:51:40Z</time>
      </trkpt>
      <trkpt lat="43.04025" lon="1.7742">
        <ele>346.21203613281</ele>
        <time>2013-02-10T10:51:44Z</time>
      </trkpt>
      <trkpt lat="43.04029" lon="1.77411">
        <ele>345.25061035156</ele>
        <time>2013-02-10T10:51:52Z</time>
      </trkpt>
      <trkpt lat="43.04033" lon="1.774">
        <ele>344.77001953125</ele>
        <time>2013-02-10T10:52:01Z</time>
      </trkpt>
      <trkpt lat="43.04035" lon="1.77392">
        <ele>346.69262695312</ele>
        <time>2013-02-10T10:52:08Z</time>
      </trkpt>
      <trkpt lat="43.04036" lon="1.77384">
        <ele>348.615234375</ele>
        <time>2013-02-10T10:52:15Z</time>
      </trkpt>
      <trkpt lat="43.04039" lon="1.77375">
        <ele>350.05725097656</ele>
        <time>2013-02-10T10:52:22Z</time>
      </trkpt>
      <trkpt lat="43.04046" lon="1.77366">
        <ele>354.38317871094</ele>
        <time>2013-02-10T10:52:31Z</time>
      </trkpt>
      <trkpt lat="43.04055" lon="1.77362">
        <ele>356.78637695312</ele>
        <time>2013-02-10T10:52:40Z</time>
      </trkpt>
      <trkpt lat="43.04064" lon="1.77364">
        <ele>357.26708984375</ele>
        <time>2013-02-10T10:52:49Z</time>
      </trkpt>
      <trkpt lat="43.0407" lon="1.77364">
        <ele>358.22839355469</ele>
        <time>2013-02-10T10:52:57Z</time>
      </trkpt>
      <trkpt lat="43.04073" lon="1.77357">
        <ele>361.11242675781</ele>
        <time>2013-02-10T10:53:04Z</time>
      </trkpt>
      <trkpt lat="43.04074" lon="1.77348">
        <ele>363.99633789062</ele>
        <time>2013-02-10T10:53:13Z</time>
      </trkpt>
      <trkpt lat="43.04078" lon="1.77338">
        <ele>366.39953613281</ele>
        <time>2013-02-10T10:53:22Z</time>
      </trkpt>
      <trkpt lat="43.04081" lon="1.7733">
        <ele>368.322265625</ele>
        <time>2013-02-10T10:53:30Z</time>
      </trkpt>
      <trkpt lat="43.04085" lon="1.77324">
        <ele>371.20629882812</ele>
        <time>2013-02-10T10:53:38Z</time>
      </trkpt>
      <trkpt lat="43.0409" lon="1.77323">
        <ele>373.12890625</ele>
        <time>2013-02-10T10:53:45Z</time>
      </trkpt>
      <trkpt lat="43.04097" lon="1.77327">
        <ele>373.60949707031</ele>
        <time>2013-02-10T10:53:51Z</time>
      </trkpt>
      <trkpt lat="43.04106" lon="1.77336">
        <ele>374.57080078125</ele>
        <time>2013-02-10T10:54:02Z</time>
      </trkpt>
      <trkpt lat="43.04107" lon="1.77337">
        <ele>374.57080078125</ele>
        <time>2013-02-10T10:54:03Z</time>
      </trkpt>
      <trkpt lat="43.04112" lon="1.7734">
        <ele>374.57080078125</ele>
        <time>2013-02-10T10:54:07Z</time>
      </trkpt>
      <trkpt lat="43.04115" lon="1.77344">
        <ele>376.49353027344</ele>
        <time>2013-02-10T10:54:12Z</time>
      </trkpt>
      <trkpt lat="43.04118" lon="1.77347">
        <ele>376.97424316406</ele>
        <time>2013-02-10T10:54:18Z</time>
      </trkpt>
      <trkpt lat="43.04123" lon="1.77351">
        <ele>377.93542480469</ele>
        <time>2013-02-10T10:54:25Z</time>
      </trkpt>
      <trkpt lat="43.04123" lon="1.7735">
        <ele>377.93542480469</ele>
        <time>2013-02-10T10:54:33Z</time>
      </trkpt>
      <trkpt lat="43.04123" lon="1.77348">
        <ele>377.93542480469</ele>
        <time>2013-02-10T10:54:49Z</time>
      </trkpt>
      <trkpt lat="43.04124" lon="1.77337">
        <ele>378.89685058594</ele>
        <time>2013-02-10T10:54:56Z</time>
      </trkpt>
      <trkpt lat="43.04123" lon="1.77329">
        <ele>378.89685058594</ele>
        <time>2013-02-10T10:55:01Z</time>
      </trkpt>
      <trkpt lat="43.0412" lon="1.77313">
        <ele>380.33874511719</ele>
        <time>2013-02-10T10:55:10Z</time>
      </trkpt>
      <trkpt lat="43.04119" lon="1.77308">
        <ele>381.30004882812</ele>
        <time>2013-02-10T10:55:14Z</time>
      </trkpt>
      <trkpt lat="43.04115" lon="1.77297">
        <ele>383.22265625</ele>
        <time>2013-02-10T10:55:21Z</time>
      </trkpt>
      <trkpt lat="43.04115" lon="1.77291">
        <ele>384.66479492188</ele>
        <time>2013-02-10T10:55:26Z</time>
      </trkpt>
      <trkpt lat="43.04115" lon="1.77286">
        <ele>385.6259765625</ele>
        <time>2013-02-10T10:55:29Z</time>
      </trkpt>
      <trkpt lat="43.0411" lon="1.77272">
        <ele>387.06799316406</ele>
        <time>2013-02-10T10:55:39Z</time>
      </trkpt>
      <trkpt lat="43.04105" lon="1.77262">
        <ele>388.99060058594</ele>
        <time>2013-02-10T10:55:47Z</time>
      </trkpt>
      <trkpt lat="43.04105" lon="1.7725">
        <ele>389.95190429688</ele>
        <time>2013-02-10T10:55:56Z</time>
      </trkpt>
      <trkpt lat="43.04104" lon="1.77244">
        <ele>389.95190429688</ele>
        <time>2013-02-10T10:56:02Z</time>
      </trkpt>
      <trkpt lat="43.04102" lon="1.77235">
        <ele>389.95190429688</ele>
        <time>2013-02-10T10:56:09Z</time>
      </trkpt>
      <trkpt lat="43.04099" lon="1.77228">
        <ele>392.35534667969</ele>
        <time>2013-02-10T10:56:15Z</time>
      </trkpt>
      <trkpt lat="43.04097" lon="1.77221">
        <ele>393.79724121094</ele>
        <time>2013-02-10T10:56:22Z</time>
      </trkpt>
      <trkpt lat="43.04096" lon="1.77216">
        <ele>394.75854492188</ele>
        <time>2013-02-10T10:56:26Z</time>
      </trkpt>
      <trkpt lat="43.04094" lon="1.77209">
        <ele>396.68115234375</ele>
        <time>2013-02-10T10:56:33Z</time>
      </trkpt>
      <trkpt lat="43.04094" lon="1.77203">
        <ele>396.68115234375</ele>
        <time>2013-02-10T10:56:39Z</time>
      </trkpt>
      <trkpt lat="43.04095" lon="1.77198">
        <ele>396.68115234375</ele>
        <time>2013-02-10T10:56:44Z</time>
      </trkpt>
      <trkpt lat="43.04095" lon="1.77194">
        <ele>397.16174316406</ele>
        <time>2013-02-10T10:56:48Z</time>
      </trkpt>
      <trkpt lat="43.04097" lon="1.77188">
        <ele>398.12316894531</ele>
        <time>2013-02-10T10:56:54Z</time>
      </trkpt>
      <trkpt lat="43.04099" lon="1.77182">
        <ele>397.16174316406</ele>
        <time>2013-02-10T10:56:59Z</time>
      </trkpt>
      <trkpt lat="43.04099" lon="1.77176">
        <ele>397.16174316406</ele>
        <time>2013-02-10T10:57:05Z</time>
      </trkpt>
      <trkpt lat="43.04099" lon="1.77169">
        <ele>396.68115234375</ele>
        <time>2013-02-10T10:57:11Z</time>
      </trkpt>
      <trkpt lat="43.041" lon="1.77165">
        <ele>396.68115234375</ele>
        <time>2013-02-10T10:57:14Z</time>
      </trkpt>
      <trkpt lat="43.041" lon="1.77162">
        <ele>397.16174316406</ele>
        <time>2013-02-10T10:57:18Z</time>
      </trkpt>
      <trkpt lat="43.04099" lon="1.77153">
        <ele>398.12316894531</ele>
        <time>2013-02-10T10:57:25Z</time>
      </trkpt>
      <trkpt lat="43.04096" lon="1.77146">
        <ele>400.52648925781</ele>
        <time>2013-02-10T10:57:32Z</time>
      </trkpt>
      <trkpt lat="43.04091" lon="1.77143">
        <ele>401.00708007812</ele>
        <time>2013-02-10T10:57:39Z</time>
      </trkpt>
      <trkpt lat="43.04084" lon="1.77145">
        <ele>401.48779296875</ele>
        <time>2013-02-10T10:57:46Z</time>
      </trkpt>
      <trkpt lat="43.04079" lon="1.77146">
        <ele>401.48779296875</ele>
        <time>2013-02-10T10:57:52Z</time>
      </trkpt>
      <trkpt lat="43.04074" lon="1.7715">
        <ele>402.9296875</ele>
        <time>2013-02-10T10:57:58Z</time>
      </trkpt>
      <trkpt lat="43.04073" lon="1.77151">
        <ele>403.41040039062</ele>
        <time>2013-02-10T10:57:59Z</time>
      </trkpt>
      <trkpt lat="43.04068" lon="1.77158">
        <ele>407.25561523438</ele>
        <time>2013-02-10T10:58:05Z</time>
      </trkpt>
      <trkpt lat="43.04068" lon="1.77159">
        <ele>407.25561523438</ele>
        <time>2013-02-10T10:58:06Z</time>
      </trkpt>
      <trkpt lat="43.04066" lon="1.77163">
        <ele>409.17834472656</ele>
        <time>2013-02-10T10:58:10Z</time>
      </trkpt>
      <trkpt lat="43.0406" lon="1.77168">
        <ele>411.10095214844</ele>
        <time>2013-02-10T10:58:16Z</time>
      </trkpt>
      <trkpt lat="43.04058" lon="1.77169">
        <ele>411.58166503906</ele>
        <time>2013-02-10T10:58:18Z</time>
      </trkpt>
      <trkpt lat="43.04048" lon="1.77169">
        <ele>415.90747070312</ele>
        <time>2013-02-10T10:58:28Z</time>
      </trkpt>
      <trkpt lat="43.04041" lon="1.77166">
        <ele>417.349609375</ele>
        <time>2013-02-10T10:58:38Z</time>
      </trkpt>
      <trkpt lat="43.04034" lon="1.77162">
        <ele>418.79150390625</ele>
        <time>2013-02-10T10:58:46Z</time>
      </trkpt>
      <trkpt lat="43.04031" lon="1.77161">
        <ele>419.75280761719</ele>
        <time>2013-02-10T10:58:51Z</time>
      </trkpt>
      <trkpt lat="43.04026" lon="1.77158">
        <ele>421.67541503906</ele>
        <time>2013-02-10T10:58:58Z</time>
      </trkpt>
      <trkpt lat="43.0402" lon="1.77155">
        <ele>423.11743164062</ele>
        <time>2013-02-10T10:59:06Z</time>
      </trkpt>
      <trkpt lat="43.04016" lon="1.77151">
        <ele>425.04016113281</ele>
        <time>2013-02-10T10:59:12Z</time>
      </trkpt>
      <trkpt lat="43.04008" lon="1.77142">
        <ele>426.96276855469</ele>
        <time>2013-02-10T10:59:22Z</time>
      </trkpt>
      <trkpt lat="43.04003" lon="1.77135">
        <ele>428.88537597656</ele>
        <time>2013-02-10T10:59:30Z</time>
      </trkpt>
      <trkpt lat="43.03999" lon="1.77128">
        <ele>430.80798339844</ele>
        <time>2013-02-10T10:59:38Z</time>
      </trkpt>
      <trkpt lat="43.03996" lon="1.77123">
        <ele>432.25</ele>
        <time>2013-02-10T10:59:44Z</time>
      </trkpt>
      <trkpt lat="43.03992" lon="1.77118">
        <ele>433.69189453125</ele>
        <time>2013-02-10T10:59:51Z</time>
      </trkpt>
      <trkpt lat="43.03987" lon="1.7711">
        <ele>435.61450195312</ele>
        <time>2013-02-10T10:59:59Z</time>
      </trkpt>
      <trkpt lat="43.03983" lon="1.77103">
        <ele>437.05651855469</ele>
        <time>2013-02-10T11:00:06Z</time>
      </trkpt>
      <trkpt lat="43.03982" lon="1.77101">
        <ele>437.537109375</ele>
        <time>2013-02-10T11:00:10Z</time>
      </trkpt>
      <trkpt lat="43.03982" lon="1.77096">
        <ele>438.49853515625</ele>
        <time>2013-02-10T11:00:15Z</time>
      </trkpt>
      <trkpt lat="43.03986" lon="1.77094">
        <ele>440.42126464844</ele>
        <time>2013-02-10T11:00:20Z</time>
      </trkpt>
      <trkpt lat="43.03992" lon="1.77094">
        <ele>439.9404296875</ele>
        <time>2013-02-10T11:00:26Z</time>
      </trkpt>
      <trkpt lat="43.03996" lon="1.77095">
        <ele>440.42126464844</ele>
        <time>2013-02-10T11:00:30Z</time>
      </trkpt>
      <trkpt lat="43.04007" lon="1.77093">
        <ele>439.45971679688</ele>
        <time>2013-02-10T11:00:41Z</time>
      </trkpt>
      <trkpt lat="43.04012" lon="1.77092">
        <ele>439.45971679688</ele>
        <time>2013-02-10T11:00:46Z</time>
      </trkpt>
      <trkpt lat="43.0402" lon="1.77093">
        <ele>440.90185546875</ele>
        <time>2013-02-10T11:00:52Z</time>
      </trkpt>
      <trkpt lat="43.0403" lon="1.77093">
        <ele>442.34387207031</ele>
        <time>2013-02-10T11:01:00Z</time>
      </trkpt>
      <trkpt lat="43.04035" lon="1.77088">
        <ele>444.7470703125</ele>
        <time>2013-02-10T11:01:07Z</time>
      </trkpt>
      <trkpt lat="43.04036" lon="1.77087">
        <ele>444.7470703125</ele>
        <time>2013-02-10T11:01:08Z</time>
      </trkpt>
      <trkpt lat="43.04036" lon="1.7708">
        <ele>446.18908691406</ele>
        <time>2013-02-10T11:01:14Z</time>
      </trkpt>
      <trkpt lat="43.04034" lon="1.77072">
        <ele>448.59240722656</ele>
        <time>2013-02-10T11:01:21Z</time>
      </trkpt>
      <trkpt lat="43.04032" lon="1.77064">
        <ele>451.47631835938</ele>
        <time>2013-02-10T11:01:27Z</time>
      </trkpt>
      <trkpt lat="43.04027" lon="1.77056">
        <ele>452.91821289062</ele>
        <time>2013-02-10T11:01:36Z</time>
      </trkpt>
      <trkpt lat="43.04021" lon="1.77048">
        <ele>453.87963867188</ele>
        <time>2013-02-10T11:01:45Z</time>
      </trkpt>
      <trkpt lat="43.04014" lon="1.77038">
        <ele>456.76354980469</ele>
        <time>2013-02-10T11:01:56Z</time>
      </trkpt>
      <trkpt lat="43.04009" lon="1.7703">
        <ele>458.20556640625</ele>
        <time>2013-02-10T11:02:04Z</time>
      </trkpt>
      <trkpt lat="43.04005" lon="1.77023">
        <ele>460.12817382812</ele>
        <time>2013-02-10T11:02:11Z</time>
      </trkpt>
      <trkpt lat="43.04002" lon="1.77015">
        <ele>461.57019042969</ele>
        <time>2013-02-10T11:02:18Z</time>
      </trkpt>
      <trkpt lat="43.03998" lon="1.77008">
        <ele>463.97338867188</ele>
        <time>2013-02-10T11:02:25Z</time>
      </trkpt>
      <trkpt lat="43.03995" lon="1.77">
        <ele>465.89611816406</ele>
        <time>2013-02-10T11:02:33Z</time>
      </trkpt>
      <trkpt lat="43.03993" lon="1.76996">
        <ele>466.37670898438</ele>
        <time>2013-02-10T11:02:38Z</time>
      </trkpt>
      <trkpt lat="43.03991" lon="1.76989">
        <ele>467.33813476562</ele>
        <time>2013-02-10T11:02:45Z</time>
      </trkpt>
      <trkpt lat="43.03991" lon="1.76984">
        <ele>469.2607421875</ele>
        <time>2013-02-10T11:02:51Z</time>
      </trkpt>
      <trkpt lat="43.03992" lon="1.76977">
        <ele>470.70263671875</ele>
        <time>2013-02-10T11:02:57Z</time>
      </trkpt>
      <trkpt lat="43.03993" lon="1.76971">
        <ele>472.14465332031</ele>
        <time>2013-02-10T11:03:02Z</time>
      </trkpt>
      <trkpt lat="43.03994" lon="1.76964">
        <ele>473.58666992188</ele>
        <time>2013-02-10T11:03:09Z</time>
      </trkpt>
      <trkpt lat="43.03993" lon="1.76959">
        <ele>475.02868652344</ele>
        <time>2013-02-10T11:03:14Z</time>
      </trkpt>
      <trkpt lat="43.0399" lon="1.76954">
        <ele>475.50927734375</ele>
        <time>2013-02-10T11:03:20Z</time>
      </trkpt>
      <trkpt lat="43.03986" lon="1.76947">
        <ele>476.95129394531</ele>
        <time>2013-02-10T11:03:27Z</time>
      </trkpt>
      <trkpt lat="43.0398" lon="1.76942">
        <ele>477.91247558594</ele>
        <time>2013-02-10T11:03:35Z</time>
      </trkpt>
      <trkpt lat="43.03973" lon="1.76935">
        <ele>478.87390136719</ele>
        <time>2013-02-10T11:03:45Z</time>
      </trkpt>
      <trkpt lat="43.03969" lon="1.76926">
        <ele>480.31591796875</ele>
        <time>2013-02-10T11:03:53Z</time>
      </trkpt>
      <trkpt lat="43.03963" lon="1.76916">
        <ele>481.27722167969</ele>
        <time>2013-02-10T11:04:03Z</time>
      </trkpt>
      <trkpt lat="43.03961" lon="1.76907">
        <ele>481.7578125</ele>
        <time>2013-02-10T11:04:11Z</time>
      </trkpt>
      <trkpt lat="43.03957" lon="1.769">
        <ele>483.68041992188</ele>
        <time>2013-02-10T11:04:18Z</time>
      </trkpt>
      <trkpt lat="43.03956" lon="1.76892">
        <ele>484.64184570312</ele>
        <time>2013-02-10T11:04:25Z</time>
      </trkpt>
      <trkpt lat="43.03955" lon="1.76888">
        <ele>485.60302734375</ele>
        <time>2013-02-10T11:04:30Z</time>
      </trkpt>
      <trkpt lat="43.03954" lon="1.76882">
        <ele>486.564453125</ele>
        <time>2013-02-10T11:04:37Z</time>
      </trkpt>
      <trkpt lat="43.03952" lon="1.76876">
        <ele>487.04504394531</ele>
        <time>2013-02-10T11:04:44Z</time>
      </trkpt>
      <trkpt lat="43.03951" lon="1.76869">
        <ele>488.48718261719</ele>
        <time>2013-02-10T11:04:49Z</time>
      </trkpt>
      <trkpt lat="43.03951" lon="1.76868">
        <ele>489.44836425781</ele>
        <time>2013-02-10T11:04:52Z</time>
      </trkpt>
      <trkpt lat="43.03949" lon="1.76861">
        <ele>490.40979003906</ele>
        <time>2013-02-10T11:04:59Z</time>
      </trkpt>
      <trkpt lat="43.03947" lon="1.76854">
        <ele>492.33239746094</ele>
        <time>2013-02-10T11:05:06Z</time>
      </trkpt>
      <trkpt lat="43.03945" lon="1.76846">
        <ele>494.25500488281</ele>
        <time>2013-02-10T11:05:15Z</time>
      </trkpt>
      <trkpt lat="43.03942" lon="1.76839">
        <ele>496.177734375</ele>
        <time>2013-02-10T11:05:23Z</time>
      </trkpt>
      <trkpt lat="43.0394" lon="1.76832">
        <ele>497.61962890625</ele>
        <time>2013-02-10T11:05:32Z</time>
      </trkpt>
      <trkpt lat="43.03939" lon="1.76825">
        <ele>499.54223632812</ele>
        <time>2013-02-10T11:05:40Z</time>
      </trkpt>
      <trkpt lat="43.03937" lon="1.76815">
        <ele>500.98413085938</ele>
        <time>2013-02-10T11:05:50Z</time>
      </trkpt>
      <trkpt lat="43.03935" lon="1.7681">
        <ele>501.94555664062</ele>
        <time>2013-02-10T11:05:56Z</time>
      </trkpt>
      <trkpt lat="43.03937" lon="1.76803">
        <ele>504.34887695312</ele>
        <time>2013-02-10T11:06:03Z</time>
      </trkpt>
      <trkpt lat="43.03939" lon="1.76797">
        <ele>506.271484375</ele>
        <time>2013-02-10T11:06:09Z</time>
      </trkpt>
      <trkpt lat="43.03941" lon="1.76792">
        <ele>507.71350097656</ele>
        <time>2013-02-10T11:06:14Z</time>
      </trkpt>
      <trkpt lat="43.03939" lon="1.76788">
        <ele>509.63610839844</ele>
        <time>2013-02-10T11:06:19Z</time>
      </trkpt>
      <trkpt lat="43.03938" lon="1.76782">
        <ele>511.07800292969</ele>
        <time>2013-02-10T11:06:25Z</time>
      </trkpt>
      <trkpt lat="43.03936" lon="1.76777">
        <ele>513.4814453125</ele>
        <time>2013-02-10T11:06:32Z</time>
      </trkpt>
      <trkpt lat="43.03936" lon="1.76769">
        <ele>515.88464355469</ele>
        <time>2013-02-10T11:06:40Z</time>
      </trkpt>
      <trkpt lat="43.03935" lon="1.76764">
        <ele>517.32666015625</ele>
        <time>2013-02-10T11:06:45Z</time>
      </trkpt>
      <trkpt lat="43.03935" lon="1.76761">
        <ele>518.28784179688</ele>
        <time>2013-02-10T11:06:49Z</time>
      </trkpt>
      <trkpt lat="43.03936" lon="1.76751">
        <ele>519.72985839844</ele>
        <time>2013-02-10T11:06:56Z</time>
      </trkpt>
      <trkpt lat="43.03936" lon="1.76743">
        <ele>521.17199707031</ele>
        <time>2013-02-10T11:07:03Z</time>
      </trkpt>
      <trkpt lat="43.0394" lon="1.76734">
        <ele>523.09460449219</ele>
        <time>2013-02-10T11:07:11Z</time>
      </trkpt>
      <trkpt lat="43.03942" lon="1.76725">
        <ele>524.53649902344</ele>
        <time>2013-02-10T11:07:18Z</time>
      </trkpt>
      <trkpt lat="43.03944" lon="1.76717">
        <ele>525.97839355469</ele>
        <time>2013-02-10T11:07:24Z</time>
      </trkpt>
      <trkpt lat="43.03944" lon="1.76712">
        <ele>525.97839355469</ele>
        <time>2013-02-10T11:07:28Z</time>
      </trkpt>
      <trkpt lat="43.03945" lon="1.76702">
        <ele>527.42041015625</ele>
        <time>2013-02-10T11:07:35Z</time>
      </trkpt>
      <trkpt lat="43.03945" lon="1.76701">
        <ele>527.42041015625</ele>
        <time>2013-02-10T11:07:36Z</time>
      </trkpt>
      <trkpt lat="43.03941" lon="1.76691">
        <ele>528.86254882812</ele>
        <time>2013-02-10T11:07:44Z</time>
      </trkpt>
      <trkpt lat="43.03938" lon="1.76687">
        <ele>529.34313964844</ele>
        <time>2013-02-10T11:07:47Z</time>
      </trkpt>
      <trkpt lat="43.03938" lon="1.7668">
        <ele>528.86254882812</ele>
        <time>2013-02-10T11:07:53Z</time>
      </trkpt>
      <trkpt lat="43.03939" lon="1.76673">
        <ele>529.34313964844</ele>
        <time>2013-02-10T11:08:00Z</time>
      </trkpt>
      <trkpt lat="43.03938" lon="1.76666">
        <ele>531.26574707031</ele>
        <time>2013-02-10T11:08:05Z</time>
      </trkpt>
      <trkpt lat="43.03937" lon="1.7666">
        <ele>532.22705078125</ele>
        <time>2013-02-10T11:08:12Z</time>
      </trkpt>
      <trkpt lat="43.03938" lon="1.76654">
        <ele>531.74633789062</ele>
        <time>2013-02-10T11:08:17Z</time>
      </trkpt>
      <trkpt lat="43.03941" lon="1.7665">
        <ele>531.74633789062</ele>
        <time>2013-02-10T11:08:20Z</time>
      </trkpt>
      <trkpt lat="43.03948" lon="1.76655">
        <ele>530.78515625</ele>
        <time>2013-02-10T11:08:25Z</time>
      </trkpt>
      <trkpt lat="43.03951" lon="1.76659">
        <ele>530.78515625</ele>
        <time>2013-02-10T11:08:27Z</time>
      </trkpt>
      <trkpt lat="43.03962" lon="1.7666">
        <ele>527.90100097656</ele>
        <time>2013-02-10T11:08:34Z</time>
      </trkpt>
      <trkpt lat="43.03962" lon="1.76659">
        <ele>527.42041015625</ele>
        <time>2013-02-10T11:08:35Z</time>
      </trkpt>
      <trkpt lat="43.03966" lon="1.76657">
        <ele>524.53649902344</ele>
        <time>2013-02-10T11:08:40Z</time>
      </trkpt>
      <trkpt lat="43.0397" lon="1.76655">
        <ele>523.5751953125</ele>
        <time>2013-02-10T11:08:43Z</time>
      </trkpt>
      <trkpt lat="43.03973" lon="1.76643">
        <ele>518.28784179688</ele>
        <time>2013-02-10T11:08:50Z</time>
      </trkpt>
      <trkpt lat="43.03973" lon="1.76632">
        <ele>516.365234375</ele>
        <time>2013-02-10T11:08:55Z</time>
      </trkpt>
      <trkpt lat="43.03976" lon="1.76625">
        <ele>512.52001953125</ele>
        <time>2013-02-10T11:09:00Z</time>
      </trkpt>
      <trkpt lat="43.03978" lon="1.76624">
        <ele>511.55871582031</ele>
        <time>2013-02-10T11:09:01Z</time>
      </trkpt>
      <trkpt lat="43.03981" lon="1.76618">
        <ele>503.8681640625</ele>
        <time>2013-02-10T11:09:08Z</time>
      </trkpt>
      <trkpt lat="43.0398" lon="1.76612">
        <ele>502.42614746094</ele>
        <time>2013-02-10T11:09:13Z</time>
      </trkpt>
      <trkpt lat="43.03982" lon="1.76609">
        <ele>502.42614746094</ele>
        <time>2013-02-10T11:09:17Z</time>
      </trkpt>
      <trkpt lat="43.03982" lon="1.76602">
        <ele>501.94555664062</ele>
        <time>2013-02-10T11:09:21Z</time>
      </trkpt>
      <trkpt lat="43.03987" lon="1.76593">
        <ele>497.61962890625</ele>
        <time>2013-02-10T11:09:26Z</time>
      </trkpt>
      <trkpt lat="43.03988" lon="1.76591">
        <ele>495.69689941406</ele>
        <time>2013-02-10T11:09:28Z</time>
      </trkpt>
      <trkpt lat="43.03992" lon="1.76586">
        <ele>494.25500488281</ele>
        <time>2013-02-10T11:09:33Z</time>
      </trkpt>
      <trkpt lat="43.03998" lon="1.76582">
        <ele>492.33239746094</ele>
        <time>2013-02-10T11:09:38Z</time>
      </trkpt>
      <trkpt lat="43.04006" lon="1.76582">
        <ele>490.40979003906</ele>
        <time>2013-02-10T11:09:43Z</time>
      </trkpt>
      <trkpt lat="43.04013" lon="1.76588">
        <ele>488.9677734375</ele>
        <time>2013-02-10T11:09:49Z</time>
      </trkpt>
      <trkpt lat="43.04021" lon="1.76588">
        <ele>485.60302734375</ele>
        <time>2013-02-10T11:09:54Z</time>
      </trkpt>
      <trkpt lat="43.04028" lon="1.76591">
        <ele>482.71923828125</ele>
        <time>2013-02-10T11:09:59Z</time>
      </trkpt>
      <trkpt lat="43.04033" lon="1.76592">
        <ele>481.27722167969</ele>
        <time>2013-02-10T11:10:02Z</time>
      </trkpt>
      <trkpt lat="43.0404" lon="1.7659">
        <ele>478.39318847656</ele>
        <time>2013-02-10T11:10:09Z</time>
      </trkpt>
      <trkpt lat="43.04045" lon="1.76589">
        <ele>475.50927734375</ele>
        <time>2013-02-10T11:10:13Z</time>
      </trkpt>
      <trkpt lat="43.04052" lon="1.76589">
        <ele>473.10607910156</ele>
        <time>2013-02-10T11:10:18Z</time>
      </trkpt>
      <trkpt lat="43.04053" lon="1.76588">
        <ele>472.14465332031</ele>
        <time>2013-02-10T11:10:19Z</time>
      </trkpt>
      <trkpt lat="43.04056" lon="1.76587">
        <ele>471.18334960938</ele>
        <time>2013-02-10T11:10:22Z</time>
      </trkpt>
      <trkpt lat="43.04063" lon="1.76589">
        <ele>468.78002929688</ele>
        <time>2013-02-10T11:10:27Z</time>
      </trkpt>
      <trkpt lat="43.04068" lon="1.76597">
        <ele>467.81872558594</ele>
        <time>2013-02-10T11:10:33Z</time>
      </trkpt>
      <trkpt lat="43.04068" lon="1.766">
        <ele>468.29931640625</ele>
        <time>2013-02-10T11:10:35Z</time>
      </trkpt>
      <trkpt lat="43.04069" lon="1.76603">
        <ele>468.78002929688</ele>
        <time>2013-02-10T11:10:37Z</time>
      </trkpt>
      <trkpt lat="43.04071" lon="1.7661">
        <ele>470.70263671875</ele>
        <time>2013-02-10T11:10:43Z</time>
      </trkpt>
      <trkpt lat="43.0407" lon="1.76618">
        <ele>470.22192382812</ele>
        <time>2013-02-10T11:10:49Z</time>
      </trkpt>
      <trkpt lat="43.0407" lon="1.7662">
        <ele>469.74133300781</ele>
        <time>2013-02-10T11:10:50Z</time>
      </trkpt>
      <trkpt lat="43.0407" lon="1.76628">
        <ele>471.66394042969</ele>
        <time>2013-02-10T11:10:54Z</time>
      </trkpt>
      <trkpt lat="43.04078" lon="1.76641">
        <ele>470.22192382812</ele>
        <time>2013-02-10T11:11:02Z</time>
      </trkpt>
      <trkpt lat="43.04081" lon="1.76648">
        <ele>469.2607421875</ele>
        <time>2013-02-10T11:11:07Z</time>
      </trkpt>
      <trkpt lat="43.0408" lon="1.7665">
        <ele>469.74133300781</ele>
        <time>2013-02-10T11:11:10Z</time>
      </trkpt>
      <trkpt lat="43.04081" lon="1.76662">
        <ele>472.14465332031</ele>
        <time>2013-02-10T11:11:18Z</time>
      </trkpt>
      <trkpt lat="43.04084" lon="1.76671">
        <ele>471.18334960938</ele>
        <time>2013-02-10T11:11:23Z</time>
      </trkpt>
      <trkpt lat="43.04086" lon="1.76681">
        <ele>472.62536621094</ele>
        <time>2013-02-10T11:11:29Z</time>
      </trkpt>
      <trkpt lat="43.0409" lon="1.76694">
        <ele>472.14465332031</ele>
        <time>2013-02-10T11:11:35Z</time>
      </trkpt>
      <trkpt lat="43.04088" lon="1.76706">
        <ele>471.66394042969</ele>
        <time>2013-02-10T11:11:39Z</time>
      </trkpt>
      <trkpt lat="43.04089" lon="1.76719">
        <ele>472.62536621094</ele>
        <time>2013-02-10T11:11:43Z</time>
      </trkpt>
      <trkpt lat="43.04092" lon="1.7673">
        <ele>474.06726074219</ele>
        <time>2013-02-10T11:11:49Z</time>
      </trkpt>
      <trkpt lat="43.04092" lon="1.76731">
        <ele>473.58666992188</ele>
        <time>2013-02-10T11:11:50Z</time>
      </trkpt>
      <trkpt lat="43.04091" lon="1.76733">
        <ele>473.58666992188</ele>
        <time>2013-02-10T11:11:53Z</time>
      </trkpt>
      <trkpt lat="43.04092" lon="1.76744">
        <ele>473.58666992188</ele>
        <time>2013-02-10T11:11:59Z</time>
      </trkpt>
      <trkpt lat="43.04095" lon="1.76753">
        <ele>474.06726074219</ele>
        <time>2013-02-10T11:12:05Z</time>
      </trkpt>
      <trkpt lat="43.04095" lon="1.76758">
        <ele>474.06726074219</ele>
        <time>2013-02-10T11:12:08Z</time>
      </trkpt>
      <trkpt lat="43.04095" lon="1.76773">
        <ele>475.02868652344</ele>
        <time>2013-02-10T11:12:15Z</time>
      </trkpt>
      <trkpt lat="43.0409" lon="1.76783">
        <ele>475.02868652344</ele>
        <time>2013-02-10T11:12:19Z</time>
      </trkpt>
      <trkpt lat="43.04088" lon="1.76786">
        <ele>475.02868652344</ele>
        <time>2013-02-10T11:12:20Z</time>
      </trkpt>
      <trkpt lat="43.04079" lon="1.76795">
        <ele>475.50927734375</ele>
        <time>2013-02-10T11:12:26Z</time>
      </trkpt>
      <trkpt lat="43.04066" lon="1.76809">
        <ele>475.98986816406</ele>
        <time>2013-02-10T11:12:33Z</time>
      </trkpt>
      <trkpt lat="43.04058" lon="1.76818">
        <ele>475.02868652344</ele>
        <time>2013-02-10T11:12:37Z</time>
      </trkpt>
      <trkpt lat="43.04049" lon="1.76827">
        <ele>475.02868652344</ele>
        <time>2013-02-10T11:12:42Z</time>
      </trkpt>
      <trkpt lat="43.04044" lon="1.76834">
        <ele>474.54797363281</ele>
        <time>2013-02-10T11:12:45Z</time>
      </trkpt>
      <trkpt lat="43.0404" lon="1.76847">
        <ele>473.58666992188</ele>
        <time>2013-02-10T11:12:49Z</time>
      </trkpt>
      <trkpt lat="43.04028" lon="1.76871">
        <ele>470.70263671875</ele>
        <time>2013-02-10T11:12:56Z</time>
      </trkpt>
      <trkpt lat="43.04023" lon="1.76884">
        <ele>470.22192382812</ele>
        <time>2013-02-10T11:13:00Z</time>
      </trkpt>
      <trkpt lat="43.04021" lon="1.76895">
        <ele>470.22192382812</ele>
        <time>2013-02-10T11:13:04Z</time>
      </trkpt>
      <trkpt lat="43.04018" lon="1.76905">
        <ele>472.14465332031</ele>
        <time>2013-02-10T11:13:10Z</time>
      </trkpt>
      <trkpt lat="43.04014" lon="1.76912">
        <ele>473.10607910156</ele>
        <time>2013-02-10T11:13:15Z</time>
      </trkpt>
      <trkpt lat="43.04008" lon="1.76922">
        <ele>472.62536621094</ele>
        <time>2013-02-10T11:13:20Z</time>
      </trkpt>
      <trkpt lat="43.04001" lon="1.76933">
        <ele>473.10607910156</ele>
        <time>2013-02-10T11:13:26Z</time>
      </trkpt>
      <trkpt lat="43.03995" lon="1.76948">
        <ele>473.10607910156</ele>
        <time>2013-02-10T11:13:32Z</time>
      </trkpt>
      <trkpt lat="43.03991" lon="1.76966">
        <ele>471.66394042969</ele>
        <time>2013-02-10T11:13:38Z</time>
      </trkpt>
      <trkpt lat="43.03989" lon="1.76972">
        <ele>471.18334960938</ele>
        <time>2013-02-10T11:13:40Z</time>
      </trkpt>
      <trkpt lat="43.0399" lon="1.76988">
        <ele>469.74133300781</ele>
        <time>2013-02-10T11:13:45Z</time>
      </trkpt>
      <trkpt lat="43.03992" lon="1.76994">
        <ele>468.78002929688</ele>
        <time>2013-02-10T11:13:47Z</time>
      </trkpt>
      <trkpt lat="43.04003" lon="1.77017">
        <ele>462.05078125</ele>
        <time>2013-02-10T11:13:55Z</time>
      </trkpt>
      <trkpt lat="43.04011" lon="1.7703">
        <ele>458.68615722656</ele>
        <time>2013-02-10T11:14:00Z</time>
      </trkpt>
      <trkpt lat="43.0402" lon="1.77044">
        <ele>455.32153320312</ele>
        <time>2013-02-10T11:14:05Z</time>
      </trkpt>
      <trkpt lat="43.04028" lon="1.77057">
        <ele>451.95703125</ele>
        <time>2013-02-10T11:14:10Z</time>
      </trkpt>
      <trkpt lat="43.04033" lon="1.77065">
        <ele>449.07299804688</ele>
        <time>2013-02-10T11:14:13Z</time>
      </trkpt>
      <trkpt lat="43.04036" lon="1.77084">
        <ele>445.22766113281</ele>
        <time>2013-02-10T11:14:19Z</time>
      </trkpt>
      <trkpt lat="43.0403" lon="1.77094">
        <ele>442.82446289062</ele>
        <time>2013-02-10T11:14:23Z</time>
      </trkpt>
      <trkpt lat="43.04015" lon="1.77092">
        <ele>439.9404296875</ele>
        <time>2013-02-10T11:14:29Z</time>
      </trkpt>
      <trkpt lat="43.04003" lon="1.77092">
        <ele>438.97912597656</ele>
        <time>2013-02-10T11:14:34Z</time>
      </trkpt>
      <trkpt lat="43.03991" lon="1.77092">
        <ele>437.537109375</ele>
        <time>2013-02-10T11:14:39Z</time>
      </trkpt>
      <trkpt lat="43.03981" lon="1.77093">
        <ele>436.09521484375</ele>
        <time>2013-02-10T11:14:44Z</time>
      </trkpt>
      <trkpt lat="43.03983" lon="1.77104">
        <ele>435.13391113281</ele>
        <time>2013-02-10T11:14:48Z</time>
      </trkpt>
      <trkpt lat="43.03994" lon="1.77118">
        <ele>435.13391113281</ele>
        <time>2013-02-10T11:14:54Z</time>
      </trkpt>
      <trkpt lat="43.04002" lon="1.77128">
        <ele>434.17260742188</ele>
        <time>2013-02-10T11:14:58Z</time>
      </trkpt>
      <trkpt lat="43.04006" lon="1.77133">
        <ele>433.21130371094</ele>
        <time>2013-02-10T11:15:00Z</time>
      </trkpt>
      <trkpt lat="43.04014" lon="1.77145">
        <ele>430.32727050781</ele>
        <time>2013-02-10T11:15:05Z</time>
      </trkpt>
      <trkpt lat="43.04024" lon="1.77155">
        <ele>425.52075195312</ele>
        <time>2013-02-10T11:15:11Z</time>
      </trkpt>
      <trkpt lat="43.04032" lon="1.77158">
        <ele>421.67541503906</ele>
        <time>2013-02-10T11:15:16Z</time>
      </trkpt>
      <trkpt lat="43.04041" lon="1.77163">
        <ele>416.86889648438</ele>
        <time>2013-02-10T11:15:21Z</time>
      </trkpt>
      <trkpt lat="43.04052" lon="1.77168">
        <ele>412.06225585938</ele>
        <time>2013-02-10T11:15:27Z</time>
      </trkpt>
      <trkpt lat="43.04057" lon="1.77168">
        <ele>410.62023925781</ele>
        <time>2013-02-10T11:15:29Z</time>
      </trkpt>
      <trkpt lat="43.04068" lon="1.7716">
        <ele>408.69763183594</ele>
        <time>2013-02-10T11:15:35Z</time>
      </trkpt>
      <trkpt lat="43.04078" lon="1.77149">
        <ele>406.29431152344</ele>
        <time>2013-02-10T11:15:40Z</time>
      </trkpt>
      <trkpt lat="43.04087" lon="1.77144">
        <ele>404.37170410156</ele>
        <time>2013-02-10T11:15:44Z</time>
      </trkpt>
      <trkpt lat="43.04097" lon="1.77149">
        <ele>400.52648925781</ele>
        <time>2013-02-10T11:15:49Z</time>
      </trkpt>
      <trkpt lat="43.04101" lon="1.77164">
        <ele>397.16174316406</ele>
        <time>2013-02-10T11:15:54Z</time>
      </trkpt>
      <trkpt lat="43.04097" lon="1.77185">
        <ele>393.31652832031</ele>
        <time>2013-02-10T11:16:01Z</time>
      </trkpt>
      <trkpt lat="43.04092" lon="1.772">
        <ele>390.4326171875</ele>
        <time>2013-02-10T11:16:06Z</time>
      </trkpt>
      <trkpt lat="43.04092" lon="1.77204">
        <ele>389.95190429688</ele>
        <time>2013-02-10T11:16:07Z</time>
      </trkpt>
      <trkpt lat="43.04096" lon="1.77215">
        <ele>388.029296875</ele>
        <time>2013-02-10T11:16:13Z</time>
      </trkpt>
      <trkpt lat="43.04099" lon="1.77221">
        <ele>387.54858398438</ele>
        <time>2013-02-10T11:16:16Z</time>
      </trkpt>
      <trkpt lat="43.04102" lon="1.77231">
        <ele>387.06799316406</ele>
        <time>2013-02-10T11:16:21Z</time>
      </trkpt>
      <trkpt lat="43.04104" lon="1.77242">
        <ele>386.10668945312</ele>
        <time>2013-02-10T11:16:25Z</time>
      </trkpt>
      <trkpt lat="43.04107" lon="1.77246">
        <ele>385.6259765625</ele>
        <time>2013-02-10T11:16:27Z</time>
      </trkpt>
      <trkpt lat="43.04108" lon="1.77264">
        <ele>382.74206542969</ele>
        <time>2013-02-10T11:16:34Z</time>
      </trkpt>
      <trkpt lat="43.04112" lon="1.77278">
        <ele>381.30004882812</ele>
        <time>2013-02-10T11:16:39Z</time>
      </trkpt>
      <trkpt lat="43.04115" lon="1.77282">
        <ele>380.81945800781</ele>
        <time>2013-02-10T11:16:41Z</time>
      </trkpt>
      <trkpt lat="43.04119" lon="1.77299">
        <ele>378.89685058594</ele>
        <time>2013-02-10T11:16:47Z</time>
      </trkpt>
      <trkpt lat="43.04124" lon="1.77313">
        <ele>378.41613769531</ele>
        <time>2013-02-10T11:16:52Z</time>
      </trkpt>
      <trkpt lat="43.04124" lon="1.77326">
        <ele>377.45483398438</ele>
        <time>2013-02-10T11:16:56Z</time>
      </trkpt>
      <trkpt lat="43.04126" lon="1.77337">
        <ele>377.45483398438</ele>
        <time>2013-02-10T11:17:01Z</time>
      </trkpt>
      <trkpt lat="43.04129" lon="1.7735">
        <ele>377.45483398438</ele>
        <time>2013-02-10T11:17:09Z</time>
      </trkpt>
      <trkpt lat="43.0413" lon="1.77353">
        <ele>377.45483398438</ele>
        <time>2013-02-10T11:17:15Z</time>
      </trkpt>
      <trkpt lat="43.04131" lon="1.77355">
        <ele>377.45483398438</ele>
        <time>2013-02-10T11:17:21Z</time>
      </trkpt>
      <trkpt lat="43.04139" lon="1.77364">
        <ele>375.53210449219</ele>
        <time>2013-02-10T11:17:27Z</time>
      </trkpt>
      <trkpt lat="43.0414" lon="1.77366">
        <ele>375.05151367188</ele>
        <time>2013-02-10T11:17:28Z</time>
      </trkpt>
      <trkpt lat="43.04144" lon="1.77371">
        <ele>372.64819335938</ele>
        <time>2013-02-10T11:17:32Z</time>
      </trkpt>
      <trkpt lat="43.04146" lon="1.77381">
        <ele>369.76428222656</ele>
        <time>2013-02-10T11:17:36Z</time>
      </trkpt>
      <trkpt lat="43.04144" lon="1.774">
        <ele>366.88024902344</ele>
        <time>2013-02-10T11:17:42Z</time>
      </trkpt>
      <trkpt lat="43.04149" lon="1.77418">
        <ele>366.39953613281</ele>
        <time>2013-02-10T11:17:47Z</time>
      </trkpt>
      <trkpt lat="43.04157" lon="1.77432">
        <ele>366.39953613281</ele>
        <time>2013-02-10T11:17:52Z</time>
      </trkpt>
      <trkpt lat="43.04167" lon="1.77445">
        <ele>364.95764160156</ele>
        <time>2013-02-10T11:17:57Z</time>
      </trkpt>
      <trkpt lat="43.04177" lon="1.77457">
        <ele>363.99633789062</ele>
        <time>2013-02-10T11:18:02Z</time>
      </trkpt>
      <trkpt lat="43.04184" lon="1.7747">
        <ele>362.07373046875</ele>
        <time>2013-02-10T11:18:07Z</time>
      </trkpt>
      <trkpt lat="43.04189" lon="1.77489">
        <ele>359.18969726562</ele>
        <time>2013-02-10T11:18:13Z</time>
      </trkpt>
      <trkpt lat="43.04191" lon="1.77503">
        <ele>356.78637695312</ele>
        <time>2013-02-10T11:18:17Z</time>
      </trkpt>
      <trkpt lat="43.04188" lon="1.77524">
        <ele>353.421875</ele>
        <time>2013-02-10T11:18:23Z</time>
      </trkpt>
      <trkpt lat="43.04191" lon="1.77533">
        <ele>351.97985839844</ele>
        <time>2013-02-10T11:18:27Z</time>
      </trkpt>
      <trkpt lat="43.04198" lon="1.77546">
        <ele>348.615234375</ele>
        <time>2013-02-10T11:18:32Z</time>
      </trkpt>
      <trkpt lat="43.04205" lon="1.77557">
        <ele>347.17321777344</ele>
        <time>2013-02-10T11:18:36Z</time>
      </trkpt>
      <trkpt lat="43.04212" lon="1.77567">
        <ele>345.25061035156</ele>
        <time>2013-02-10T11:18:41Z</time>
      </trkpt>
      <trkpt lat="43.04222" lon="1.7758">
        <ele>341.88598632812</ele>
        <time>2013-02-10T11:18:47Z</time>
      </trkpt>
      <trkpt lat="43.04228" lon="1.77594">
        <ele>340.44409179688</ele>
        <time>2013-02-10T11:18:52Z</time>
      </trkpt>
      <trkpt lat="43.04235" lon="1.77605">
        <ele>338.04077148438</ele>
        <time>2013-02-10T11:18:57Z</time>
      </trkpt>
      <trkpt lat="43.04245" lon="1.77616">
        <ele>336.59887695312</ele>
        <time>2013-02-10T11:19:03Z</time>
      </trkpt>
      <trkpt lat="43.04249" lon="1.77606">
        <ele>335.15673828125</ele>
        <time>2013-02-10T11:19:08Z</time>
      </trkpt>
      <trkpt lat="43.04249" lon="1.77592">
        <ele>334.19543457031</ele>
        <time>2013-02-10T11:19:12Z</time>
      </trkpt>
      <trkpt lat="43.04248" lon="1.77585">
        <ele>334.19543457031</ele>
        <time>2013-02-10T11:19:14Z</time>
      </trkpt>
      <trkpt lat="43.04256" lon="1.77582">
        <ele>333.71472167969</ele>
        <time>2013-02-10T11:19:18Z</time>
      </trkpt>
      <trkpt lat="43.04258" lon="1.77584">
        <ele>333.23413085938</ele>
        <time>2013-02-10T11:19:19Z</time>
      </trkpt>
      <trkpt lat="43.04261" lon="1.7759">
        <ele>332.27282714844</ele>
        <time>2013-02-10T11:19:21Z</time>
      </trkpt>
      <trkpt lat="43.04261" lon="1.77605">
        <ele>332.27282714844</ele>
        <time>2013-02-10T11:19:26Z</time>
      </trkpt>
      <trkpt lat="43.0426" lon="1.77608">
        <ele>332.27282714844</ele>
        <time>2013-02-10T11:19:27Z</time>
      </trkpt>
      <trkpt lat="43.04258" lon="1.77621">
        <ele>333.71472167969</ele>
        <time>2013-02-10T11:19:35Z</time>
      </trkpt>
      <trkpt lat="43.04258" lon="1.77623">
        <ele>333.71472167969</ele>
        <time>2013-02-10T11:19:36Z</time>
      </trkpt>
      <trkpt lat="43.04255" lon="1.77635">
        <ele>335.63732910156</ele>
        <time>2013-02-10T11:19:44Z</time>
      </trkpt>
      <trkpt lat="43.04253" lon="1.77644">
        <ele>336.59887695312</ele>
        <time>2013-02-10T11:19:50Z</time>
      </trkpt>
      <trkpt lat="43.04244" lon="1.77657">
        <ele>336.1181640625</ele>
        <time>2013-02-10T11:19:56Z</time>
      </trkpt>
      <trkpt lat="43.04241" lon="1.77657">
        <ele>335.63732910156</ele>
        <time>2013-02-10T11:19:57Z</time>
      </trkpt>
      <trkpt lat="43.04229" lon="1.77661">
        <ele>333.71472167969</ele>
        <time>2013-02-10T11:20:02Z</time>
      </trkpt>
      <trkpt lat="43.04216" lon="1.77663">
        <ele>331.79211425781</ele>
        <time>2013-02-10T11:20:07Z</time>
      </trkpt>
      <trkpt lat="43.04205" lon="1.77661">
        <ele>329.38891601562</ele>
        <time>2013-02-10T11:20:12Z</time>
      </trkpt>
      <trkpt lat="43.04195" lon="1.77659">
        <ele>328.42761230469</ele>
        <time>2013-02-10T11:20:16Z</time>
      </trkpt>
      <trkpt lat="43.04185" lon="1.77659">
        <ele>326.5048828125</ele>
        <time>2013-02-10T11:20:20Z</time>
      </trkpt>
      <trkpt lat="43.04182" lon="1.77659">
        <ele>326.02416992188</ele>
        <time>2013-02-10T11:20:21Z</time>
      </trkpt>
      <trkpt lat="43.04173" lon="1.77658">
        <ele>325.54357910156</ele>
        <time>2013-02-10T11:20:25Z</time>
      </trkpt>
      <trkpt lat="43.0416" lon="1.77662">
        <ele>324.58227539062</ele>
        <time>2013-02-10T11:20:30Z</time>
      </trkpt>
      <trkpt lat="43.04149" lon="1.77663">
        <ele>323.14038085938</ele>
        <time>2013-02-10T11:20:34Z</time>
      </trkpt>
      <trkpt lat="43.04144" lon="1.77663">
        <ele>323.14038085938</ele>
        <time>2013-02-10T11:20:36Z</time>
      </trkpt>
      <trkpt lat="43.04131" lon="1.7768">
        <ele>324.1015625</ele>
        <time>2013-02-10T11:20:42Z</time>
      </trkpt>
      <trkpt lat="43.04128" lon="1.77687">
        <ele>324.1015625</ele>
        <time>2013-02-10T11:20:44Z</time>
      </trkpt>
      <trkpt lat="43.0412" lon="1.77699">
        <ele>324.58227539062</ele>
        <time>2013-02-10T11:20:48Z</time>
      </trkpt>
      <trkpt lat="43.0411" lon="1.77697">
        <ele>324.58227539062</ele>
        <time>2013-02-10T11:20:52Z</time>
      </trkpt>
      <trkpt lat="43.04108" lon="1.77696">
        <ele>324.58227539062</ele>
        <time>2013-02-10T11:20:53Z</time>
      </trkpt>
      <trkpt lat="43.041" lon="1.77696">
        <ele>323.62097167969</ele>
        <time>2013-02-10T11:20:57Z</time>
      </trkpt>
      <trkpt lat="43.04084" lon="1.7769">
        <ele>322.65966796875</ele>
        <time>2013-02-10T11:21:04Z</time>
      </trkpt>
      <trkpt lat="43.04071" lon="1.77689">
        <ele>325.54357910156</ele>
        <time>2013-02-10T11:21:09Z</time>
      </trkpt>
      <trkpt lat="43.04069" lon="1.77688">
        <ele>325.54357910156</ele>
        <time>2013-02-10T11:21:10Z</time>
      </trkpt>
      <trkpt lat="43.04062" lon="1.77697">
        <ele>325.06298828125</ele>
        <time>2013-02-10T11:21:15Z</time>
      </trkpt>
      <trkpt lat="43.0406" lon="1.77704">
        <ele>325.06298828125</ele>
        <time>2013-02-10T11:21:17Z</time>
      </trkpt>
      <trkpt lat="43.04055" lon="1.77719">
        <ele>327.46618652344</ele>
        <time>2013-02-10T11:21:22Z</time>
      </trkpt>
      <trkpt lat="43.04053" lon="1.77732">
        <ele>328.42761230469</ele>
        <time>2013-02-10T11:21:26Z</time>
      </trkpt>
      <trkpt lat="43.0405" lon="1.77748">
        <ele>327.94677734375</ele>
        <time>2013-02-10T11:21:31Z</time>
      </trkpt>
      <trkpt lat="43.04047" lon="1.7776">
        <ele>328.42761230469</ele>
        <time>2013-02-10T11:21:35Z</time>
      </trkpt>
      <trkpt lat="43.04046" lon="1.77773">
        <ele>328.42761230469</ele>
        <time>2013-02-10T11:21:39Z</time>
      </trkpt>
      <trkpt lat="43.04046" lon="1.7778">
        <ele>328.90832519531</ele>
        <time>2013-02-10T11:21:41Z</time>
      </trkpt>
      <trkpt lat="43.04048" lon="1.77795">
        <ele>328.42761230469</ele>
        <time>2013-02-10T11:21:45Z</time>
      </trkpt>
      <trkpt lat="43.04049" lon="1.77811">
        <ele>327.46618652344</ele>
        <time>2013-02-10T11:21:50Z</time>
      </trkpt>
      <trkpt lat="43.04044" lon="1.77821">
        <ele>326.98559570312</ele>
        <time>2013-02-10T11:21:54Z</time>
      </trkpt>
      <trkpt lat="43.04034" lon="1.77833">
        <ele>326.5048828125</ele>
        <time>2013-02-10T11:21:59Z</time>
      </trkpt>
      <trkpt lat="43.04026" lon="1.77843">
        <ele>326.02416992188</ele>
        <time>2013-02-10T11:22:04Z</time>
      </trkpt>
      <trkpt lat="43.04017" lon="1.77856">
        <ele>326.02416992188</ele>
        <time>2013-02-10T11:22:09Z</time>
      </trkpt>
      <trkpt lat="43.04011" lon="1.77865">
        <ele>325.54357910156</ele>
        <time>2013-02-10T11:22:14Z</time>
      </trkpt>
      <trkpt lat="43.04005" lon="1.77875">
        <ele>325.54357910156</ele>
        <time>2013-02-10T11:22:20Z</time>
      </trkpt>
      <trkpt lat="43.04" lon="1.77883">
        <ele>325.06298828125</ele>
        <time>2013-02-10T11:22:26Z</time>
      </trkpt>
      <trkpt lat="43.03997" lon="1.779">
        <ele>325.06298828125</ele>
        <time>2013-02-10T11:22:35Z</time>
      </trkpt>
      <trkpt lat="43.03994" lon="1.77907">
        <ele>325.06298828125</ele>
        <time>2013-02-10T11:22:39Z</time>
      </trkpt>
      <trkpt lat="43.03994" lon="1.77911">
        <ele>325.54357910156</ele>
        <time>2013-02-10T11:22:41Z</time>
      </trkpt>
      <trkpt lat="43.03996" lon="1.77918">
        <ele>326.5048828125</ele>
        <time>2013-02-10T11:22:45Z</time>
      </trkpt>
      <trkpt lat="43.03994" lon="1.77935">
        <ele>326.5048828125</ele>
        <time>2013-02-10T11:22:53Z</time>
      </trkpt>
      <trkpt lat="43.03993" lon="1.77946">
        <ele>326.5048828125</ele>
        <time>2013-02-10T11:22:58Z</time>
      </trkpt>
      <trkpt lat="43.03991" lon="1.77959">
        <ele>326.02416992188</ele>
        <time>2013-02-10T11:23:05Z</time>
      </trkpt>
      <trkpt lat="43.03989" lon="1.77968">
        <ele>325.54357910156</ele>
        <time>2013-02-10T11:23:10Z</time>
      </trkpt>
      <trkpt lat="43.03989" lon="1.77979">
        <ele>326.98559570312</ele>
        <time>2013-02-10T11:23:16Z</time>
      </trkpt>
      <trkpt lat="43.0399" lon="1.7799">
        <ele>328.90832519531</ele>
        <time>2013-02-10T11:23:22Z</time>
      </trkpt>
      <trkpt lat="43.03992" lon="1.78">
        <ele>332.27282714844</ele>
        <time>2013-02-10T11:23:28Z</time>
      </trkpt>
      <trkpt lat="43.03991" lon="1.78012">
        <ele>333.23413085938</ele>
        <time>2013-02-10T11:23:34Z</time>
      </trkpt>
      <trkpt lat="43.03991" lon="1.78026">
        <ele>332.75354003906</ele>
        <time>2013-02-10T11:23:41Z</time>
      </trkpt>
      <trkpt lat="43.0399" lon="1.78041">
        <ele>332.75354003906</ele>
        <time>2013-02-10T11:23:49Z</time>
      </trkpt>
      <trkpt lat="43.03989" lon="1.78056">
        <ele>333.71472167969</ele>
        <time>2013-02-10T11:23:58Z</time>
      </trkpt>
      <trkpt lat="43.03986" lon="1.78072">
        <ele>335.15673828125</ele>
        <time>2013-02-10T11:24:05Z</time>
      </trkpt>
      <trkpt lat="43.03984" lon="1.78083">
        <ele>335.63732910156</ele>
        <time>2013-02-10T11:24:10Z</time>
      </trkpt>
      <trkpt lat="43.0398" lon="1.78099">
        <ele>336.59887695312</ele>
        <time>2013-02-10T11:24:15Z</time>
      </trkpt>
      <trkpt lat="43.03976" lon="1.78116">
        <ele>338.04077148438</ele>
        <time>2013-02-10T11:24:20Z</time>
      </trkpt>
      <trkpt lat="43.03973" lon="1.78131">
        <ele>338.521484375</ele>
        <time>2013-02-10T11:24:25Z</time>
      </trkpt>
      <trkpt lat="43.03968" lon="1.78146">
        <ele>338.521484375</ele>
        <time>2013-02-10T11:24:30Z</time>
      </trkpt>
      <trkpt lat="43.03965" lon="1.78161">
        <ele>339.00207519531</ele>
        <time>2013-02-10T11:24:35Z</time>
      </trkpt>
      <trkpt lat="43.0396" lon="1.78177">
        <ele>339.96337890625</ele>
        <time>2013-02-10T11:24:41Z</time>
      </trkpt>
      <trkpt lat="43.03954" lon="1.78191">
        <ele>339.48266601562</ele>
        <time>2013-02-10T11:24:47Z</time>
      </trkpt>
      <trkpt lat="43.03953" lon="1.78193">
        <ele>339.48266601562</ele>
        <time>2013-02-10T11:24:48Z</time>
      </trkpt>
      <trkpt lat="43.03945" lon="1.78202">
        <ele>339.96337890625</ele>
        <time>2013-02-10T11:24:53Z</time>
      </trkpt>
      <trkpt lat="43.03942" lon="1.78211">
        <ele>339.96337890625</ele>
        <time>2013-02-10T11:24:56Z</time>
      </trkpt>
      <trkpt lat="43.03931" lon="1.7823">
        <ele>338.521484375</ele>
        <time>2013-02-10T11:25:02Z</time>
      </trkpt>
      <trkpt lat="43.03922" lon="1.78244">
        <ele>335.63732910156</ele>
        <time>2013-02-10T11:25:08Z</time>
      </trkpt>
      <trkpt lat="43.03913" lon="1.78258">
        <ele>334.19543457031</ele>
        <time>2013-02-10T11:25:13Z</time>
      </trkpt>
      <trkpt lat="43.03905" lon="1.78275">
        <ele>332.75354003906</ele>
        <time>2013-02-10T11:25:19Z</time>
      </trkpt>
      <trkpt lat="43.03902" lon="1.7829">
        <ele>332.27282714844</ele>
        <time>2013-02-10T11:25:24Z</time>
      </trkpt>
      <trkpt lat="43.03904" lon="1.78305">
        <ele>332.75354003906</ele>
        <time>2013-02-10T11:25:28Z</time>
      </trkpt>
      <trkpt lat="43.03907" lon="1.78321">
        <ele>334.19543457031</ele>
        <time>2013-02-10T11:25:33Z</time>
      </trkpt>
      <trkpt lat="43.03912" lon="1.78337">
        <ele>335.63732910156</ele>
        <time>2013-02-10T11:25:38Z</time>
      </trkpt>
      <trkpt lat="43.03913" lon="1.78344">
        <ele>336.1181640625</ele>
        <time>2013-02-10T11:25:40Z</time>
      </trkpt>
      <trkpt lat="43.03922" lon="1.78359">
        <ele>336.1181640625</ele>
        <time>2013-02-10T11:25:45Z</time>
      </trkpt>
      <trkpt lat="43.03926" lon="1.78368">
        <ele>336.1181640625</ele>
        <time>2013-02-10T11:25:49Z</time>
      </trkpt>
      <trkpt lat="43.03934" lon="1.78381">
        <ele>335.63732910156</ele>
        <time>2013-02-10T11:25:54Z</time>
      </trkpt>
      <trkpt lat="43.03941" lon="1.78394">
        <ele>336.59887695312</ele>
        <time>2013-02-10T11:25:59Z</time>
      </trkpt>
      <trkpt lat="43.03949" lon="1.78412">
        <ele>336.59887695312</ele>
        <time>2013-02-10T11:26:05Z</time>
      </trkpt>
      <trkpt lat="43.03957" lon="1.78426">
        <ele>336.1181640625</ele>
        <time>2013-02-10T11:26:10Z</time>
      </trkpt>
      <trkpt lat="43.03963" lon="1.78438">
        <ele>335.15673828125</ele>
        <time>2013-02-10T11:26:14Z</time>
      </trkpt>
      <trkpt lat="43.0397" lon="1.78452">
        <ele>334.67614746094</ele>
        <time>2013-02-10T11:26:19Z</time>
      </trkpt>
      <trkpt lat="43.03975" lon="1.7846">
        <ele>334.19543457031</ele>
        <time>2013-02-10T11:26:22Z</time>
      </trkpt>
      <trkpt lat="43.03985" lon="1.78471">
        <ele>332.75354003906</ele>
        <time>2013-02-10T11:26:27Z</time>
      </trkpt>
      <trkpt lat="43.03997" lon="1.78483">
        <ele>331.3115234375</ele>
        <time>2013-02-10T11:26:33Z</time>
      </trkpt>
      <trkpt lat="43.04006" lon="1.78497">
        <ele>331.79211425781</ele>
        <time>2013-02-10T11:26:38Z</time>
      </trkpt>
      <trkpt lat="43.0401" lon="1.78507">
        <ele>331.3115234375</ele>
        <time>2013-02-10T11:26:41Z</time>
      </trkpt>
      <trkpt lat="43.04012" lon="1.7853">
        <ele>332.27282714844</ele>
        <time>2013-02-10T11:26:48Z</time>
      </trkpt>
      <trkpt lat="43.04012" lon="1.78533">
        <ele>332.27282714844</ele>
        <time>2013-02-10T11:26:49Z</time>
      </trkpt>
      <trkpt lat="43.04013" lon="1.78545">
        <ele>333.23413085938</ele>
        <time>2013-02-10T11:26:53Z</time>
      </trkpt>
      <trkpt lat="43.04013" lon="1.78565">
        <ele>335.63732910156</ele>
        <time>2013-02-10T11:26:59Z</time>
      </trkpt>
      <trkpt lat="43.04014" lon="1.78584">
        <ele>336.59887695312</ele>
        <time>2013-02-10T11:27:04Z</time>
      </trkpt>
      <trkpt lat="43.04017" lon="1.78598">
        <ele>337.56005859375</ele>
        <time>2013-02-10T11:27:08Z</time>
      </trkpt>
      <trkpt lat="43.04021" lon="1.78608">
        <ele>337.07946777344</ele>
        <time>2013-02-10T11:27:11Z</time>
      </trkpt>
      <trkpt lat="43.04031" lon="1.78628">
        <ele>336.1181640625</ele>
        <time>2013-02-10T11:27:17Z</time>
      </trkpt>
      <trkpt lat="43.04035" lon="1.78648">
        <ele>334.67614746094</ele>
        <time>2013-02-10T11:27:23Z</time>
      </trkpt>
      <trkpt lat="43.04035" lon="1.78664">
        <ele>332.75354003906</ele>
        <time>2013-02-10T11:27:28Z</time>
      </trkpt>
      <trkpt lat="43.04033" lon="1.78683">
        <ele>331.79211425781</ele>
        <time>2013-02-10T11:27:33Z</time>
      </trkpt>
      <trkpt lat="43.04031" lon="1.78692">
        <ele>331.3115234375</ele>
        <time>2013-02-10T11:27:36Z</time>
      </trkpt>
      <trkpt lat="43.04024" lon="1.787">
        <ele>331.79211425781</ele>
        <time>2013-02-10T11:27:41Z</time>
      </trkpt>
      <trkpt lat="43.04021" lon="1.78703">
        <ele>331.79211425781</ele>
        <time>2013-02-10T11:27:43Z</time>
      </trkpt>
      <trkpt lat="43.04018" lon="1.78708">
        <ele>331.3115234375</ele>
        <time>2013-02-10T11:27:45Z</time>
      </trkpt>
      <trkpt lat="43.04013" lon="1.78723">
        <ele>330.35021972656</ele>
        <time>2013-02-10T11:27:50Z</time>
      </trkpt>
      <trkpt lat="43.04004" lon="1.78734">
        <ele>330.35021972656</ele>
        <time>2013-02-10T11:27:56Z</time>
      </trkpt>
      <trkpt lat="43.04003" lon="1.78735">
        <ele>329.86950683594</ele>
        <time>2013-02-10T11:27:57Z</time>
      </trkpt>
      <trkpt lat="43.03995" lon="1.7875">
        <ele>328.42761230469</ele>
        <time>2013-02-10T11:28:03Z</time>
      </trkpt>
      <trkpt lat="43.03993" lon="1.78751">
        <ele>327.94677734375</ele>
        <time>2013-02-10T11:28:04Z</time>
      </trkpt>
      <trkpt lat="43.03988" lon="1.78767">
        <ele>326.02416992188</ele>
        <time>2013-02-10T11:28:09Z</time>
      </trkpt>
      <trkpt lat="43.03981" lon="1.78783">
        <ele>323.62097167969</ele>
        <time>2013-02-10T11:28:14Z</time>
      </trkpt>
      <trkpt lat="43.03975" lon="1.78794">
        <ele>321.69836425781</ele>
        <time>2013-02-10T11:28:18Z</time>
      </trkpt>
      <trkpt lat="43.03968" lon="1.78808">
        <ele>320.73706054688</ele>
        <time>2013-02-10T11:28:23Z</time>
      </trkpt>
      <trkpt lat="43.03961" lon="1.7882">
        <ele>319.77563476562</ele>
        <time>2013-02-10T11:28:28Z</time>
      </trkpt>
      <trkpt lat="43.03955" lon="1.78837">
        <ele>319.77563476562</ele>
        <time>2013-02-10T11:28:34Z</time>
      </trkpt>
      <trkpt lat="43.03951" lon="1.78854">
        <ele>320.25634765625</ele>
        <time>2013-02-10T11:28:39Z</time>
      </trkpt>
      <trkpt lat="43.03947" lon="1.7887">
        <ele>320.25634765625</ele>
        <time>2013-02-10T11:28:43Z</time>
      </trkpt>
      <trkpt lat="43.03942" lon="1.78885">
        <ele>318.81433105469</ele>
        <time>2013-02-10T11:28:48Z</time>
      </trkpt>
      <trkpt lat="43.03937" lon="1.78901">
        <ele>318.33361816406</ele>
        <time>2013-02-10T11:28:53Z</time>
      </trkpt>
      <trkpt lat="43.03933" lon="1.78913">
        <ele>317.37243652344</ele>
        <time>2013-02-10T11:28:57Z</time>
      </trkpt>
      <trkpt lat="43.03929" lon="1.78924">
        <ele>317.37243652344</ele>
        <time>2013-02-10T11:29:02Z</time>
      </trkpt>
      <trkpt lat="43.03923" lon="1.7894">
        <ele>318.33361816406</ele>
        <time>2013-02-10T11:29:08Z</time>
      </trkpt>
      <trkpt lat="43.03922" lon="1.78942">
        <ele>318.33361816406</ele>
        <time>2013-02-10T11:29:09Z</time>
      </trkpt>
      <trkpt lat="43.0392" lon="1.78953">
        <ele>318.81433105469</ele>
        <time>2013-02-10T11:29:13Z</time>
      </trkpt>
      <trkpt lat="43.03916" lon="1.78969">
        <ele>320.25634765625</ele>
        <time>2013-02-10T11:29:19Z</time>
      </trkpt>
      <trkpt lat="43.03913" lon="1.78985">
        <ele>320.25634765625</ele>
        <time>2013-02-10T11:29:25Z</time>
      </trkpt>
      <trkpt lat="43.03911" lon="1.79002">
        <ele>319.77563476562</ele>
        <time>2013-02-10T11:29:30Z</time>
      </trkpt>
      <trkpt lat="43.03907" lon="1.79025">
        <ele>319.29504394531</ele>
        <time>2013-02-10T11:29:37Z</time>
      </trkpt>
      <trkpt lat="43.03906" lon="1.79031">
        <ele>319.29504394531</ele>
        <time>2013-02-10T11:29:39Z</time>
      </trkpt>
      <trkpt lat="43.03902" lon="1.79045">
        <ele>319.29504394531</ele>
        <time>2013-02-10T11:29:44Z</time>
      </trkpt>
      <trkpt lat="43.03901" lon="1.79047">
        <ele>319.29504394531</ele>
        <time>2013-02-10T11:29:45Z</time>
      </trkpt>
      <trkpt lat="43.03893" lon="1.79069">
        <ele>320.73706054688</ele>
        <time>2013-02-10T11:29:53Z</time>
      </trkpt>
      <trkpt lat="43.03888" lon="1.79079">
        <ele>321.69836425781</ele>
        <time>2013-02-10T11:29:57Z</time>
      </trkpt>
      <trkpt lat="43.03883" lon="1.79097">
        <ele>321.2177734375</ele>
        <time>2013-02-10T11:30:04Z</time>
      </trkpt>
      <trkpt lat="43.03881" lon="1.791">
        <ele>321.2177734375</ele>
        <time>2013-02-10T11:30:05Z</time>
      </trkpt>
      <trkpt lat="43.03879" lon="1.79119">
        <ele>320.25634765625</ele>
        <time>2013-02-10T11:30:12Z</time>
      </trkpt>
      <trkpt lat="43.03876" lon="1.79132">
        <ele>320.25634765625</ele>
        <time>2013-02-10T11:30:16Z</time>
      </trkpt>
      <trkpt lat="43.03872" lon="1.79143">
        <ele>317.85302734375</ele>
        <time>2013-02-10T11:30:21Z</time>
      </trkpt>
      <trkpt lat="43.03867" lon="1.79157">
        <ele>317.37243652344</ele>
        <time>2013-02-10T11:30:27Z</time>
      </trkpt>
      <trkpt lat="43.03858" lon="1.79173">
        <ele>317.37243652344</ele>
        <time>2013-02-10T11:30:33Z</time>
      </trkpt>
      <trkpt lat="43.03852" lon="1.79179">
        <ele>317.85302734375</ele>
        <time>2013-02-10T11:30:37Z</time>
      </trkpt>
      <trkpt lat="43.03846" lon="1.79181">
        <ele>317.85302734375</ele>
        <time>2013-02-10T11:30:42Z</time>
      </trkpt>
      <trkpt lat="43.03838" lon="1.79178">
        <ele>317.85302734375</ele>
        <time>2013-02-10T11:30:50Z</time>
      </trkpt>
      <trkpt lat="43.03831" lon="1.79173">
        <ele>319.29504394531</ele>
        <time>2013-02-10T11:30:57Z</time>
      </trkpt>
      <trkpt lat="43.03826" lon="1.79168">
        <ele>320.73706054688</ele>
        <time>2013-02-10T11:31:03Z</time>
      </trkpt>
      <trkpt lat="43.03822" lon="1.79162">
        <ele>323.14038085938</ele>
        <time>2013-02-10T11:31:09Z</time>
      </trkpt>
      <trkpt lat="43.03818" lon="1.79157">
        <ele>324.58227539062</ele>
        <time>2013-02-10T11:31:15Z</time>
      </trkpt>
      <trkpt lat="43.03814" lon="1.79154">
        <ele>325.54357910156</ele>
        <time>2013-02-10T11:31:20Z</time>
      </trkpt>
      <trkpt lat="43.03804" lon="1.79149">
        <ele>325.06298828125</ele>
        <time>2013-02-10T11:31:28Z</time>
      </trkpt>
      <trkpt lat="43.03797" lon="1.79148">
        <ele>322.65966796875</ele>
        <time>2013-02-10T11:31:34Z</time>
      </trkpt>
      <trkpt lat="43.03794" lon="1.79148">
        <ele>322.65966796875</ele>
        <time>2013-02-10T11:31:36Z</time>
      </trkpt>
      <trkpt lat="43.03785" lon="1.79148">
        <ele>322.65966796875</ele>
        <time>2013-02-10T11:31:42Z</time>
      </trkpt>
      <trkpt lat="43.03782" lon="1.79146">
        <ele>322.65966796875</ele>
        <time>2013-02-10T11:31:45Z</time>
      </trkpt>
      <trkpt lat="43.03772" lon="1.79146">
        <ele>322.65966796875</ele>
        <time>2013-02-10T11:31:53Z</time>
      </trkpt>
      <trkpt lat="43.03764" lon="1.79144">
        <ele>324.1015625</ele>
        <time>2013-02-10T11:32:00Z</time>
      </trkpt>
      <trkpt lat="43.03756" lon="1.79142">
        <ele>325.06298828125</ele>
        <time>2013-02-10T11:32:06Z</time>
      </trkpt>
      <trkpt lat="43.03754" lon="1.79141">
        <ele>324.58227539062</ele>
        <time>2013-02-10T11:32:08Z</time>
      </trkpt>
      <trkpt lat="43.0375" lon="1.7914">
        <ele>326.02416992188</ele>
        <time>2013-02-10T11:32:11Z</time>
      </trkpt>
      <trkpt lat="43.03746" lon="1.79139">
        <ele>326.98559570312</ele>
        <time>2013-02-10T11:32:15Z</time>
      </trkpt>
      <trkpt lat="43.03737" lon="1.79138">
        <ele>325.54357910156</ele>
        <time>2013-02-10T11:32:23Z</time>
      </trkpt>
      <trkpt lat="43.03731" lon="1.79137">
        <ele>325.06298828125</ele>
        <time>2013-02-10T11:32:28Z</time>
      </trkpt>
      <trkpt lat="43.03723" lon="1.79134">
        <ele>324.1015625</ele>
        <time>2013-02-10T11:32:33Z</time>
      </trkpt>
      <trkpt lat="43.03711" lon="1.79135">
        <ele>323.62097167969</ele>
        <time>2013-02-10T11:32:38Z</time>
      </trkpt>
      <trkpt lat="43.03708" lon="1.79135">
        <ele>323.62097167969</ele>
        <time>2013-02-10T11:32:39Z</time>
      </trkpt>
      <trkpt lat="43.03703" lon="1.79134">
        <ele>323.14038085938</ele>
        <time>2013-02-10T11:32:41Z</time>
      </trkpt>
      <trkpt lat="43.03695" lon="1.79134">
        <ele>322.65966796875</ele>
        <time>2013-02-10T11:32:45Z</time>
      </trkpt>
      <trkpt lat="43.0368" lon="1.79134">
        <ele>323.14038085938</ele>
        <time>2013-02-10T11:32:51Z</time>
      </trkpt>
      <trkpt lat="43.03667" lon="1.79137">
        <ele>323.62097167969</ele>
        <time>2013-02-10T11:32:56Z</time>
      </trkpt>
      <trkpt lat="43.03653" lon="1.7914">
        <ele>323.14038085938</ele>
        <time>2013-02-10T11:33:02Z</time>
      </trkpt>
      <trkpt lat="43.03646" lon="1.79142">
        <ele>322.17895507812</ele>
        <time>2013-02-10T11:33:05Z</time>
      </trkpt>
      <trkpt lat="43.03637" lon="1.79142">
        <ele>321.2177734375</ele>
        <time>2013-02-10T11:33:10Z</time>
      </trkpt>
      <trkpt lat="43.03628" lon="1.79146">
        <ele>322.17895507812</ele>
        <time>2013-02-10T11:33:15Z</time>
      </trkpt>
      <trkpt lat="43.03615" lon="1.79154">
        <ele>324.1015625</ele>
        <time>2013-02-10T11:33:20Z</time>
      </trkpt>
      <trkpt lat="43.03606" lon="1.79152">
        <ele>325.06298828125</ele>
        <time>2013-02-10T11:33:25Z</time>
      </trkpt>
      <trkpt lat="43.03599" lon="1.7915">
        <ele>324.1015625</ele>
        <time>2013-02-10T11:33:29Z</time>
      </trkpt>
      <trkpt lat="43.03597" lon="1.7915">
        <ele>323.62097167969</ele>
        <time>2013-02-10T11:33:30Z</time>
      </trkpt>
      <trkpt lat="43.03582" lon="1.79154">
        <ele>321.2177734375</ele>
        <time>2013-02-10T11:33:36Z</time>
      </trkpt>
      <trkpt lat="43.03565" lon="1.79162">
        <ele>318.33361816406</ele>
        <time>2013-02-10T11:33:43Z</time>
      </trkpt>
      <trkpt lat="43.03561" lon="1.79164">
        <ele>317.85302734375</ele>
        <time>2013-02-10T11:33:45Z</time>
      </trkpt>
      <trkpt lat="43.03551" lon="1.79166">
        <ele>316.41101074219</ele>
        <time>2013-02-10T11:33:50Z</time>
      </trkpt>
      <trkpt lat="43.03545" lon="1.79169">
        <ele>315.44982910156</ele>
        <time>2013-02-10T11:33:53Z</time>
      </trkpt>
      <trkpt lat="43.03536" lon="1.79173">
        <ele>314.0078125</ele>
        <time>2013-02-10T11:33:57Z</time>
      </trkpt>
      <trkpt lat="43.03526" lon="1.79179">
        <ele>313.04650878906</ele>
        <time>2013-02-10T11:34:02Z</time>
      </trkpt>
      <trkpt lat="43.03516" lon="1.79186">
        <ele>314.0078125</ele>
        <time>2013-02-10T11:34:07Z</time>
      </trkpt>
      <trkpt lat="43.03508" lon="1.79193">
        <ele>315.44982910156</ele>
        <time>2013-02-10T11:34:11Z</time>
      </trkpt>
      <trkpt lat="43.03506" lon="1.79194">
        <ele>314.96911621094</ele>
        <time>2013-02-10T11:34:12Z</time>
      </trkpt>
      <trkpt lat="43.03499" lon="1.79199">
        <ele>315.93041992188</ele>
        <time>2013-02-10T11:34:17Z</time>
      </trkpt>
      <trkpt lat="43.03498" lon="1.79199">
        <ele>315.44982910156</ele>
        <time>2013-02-10T11:34:18Z</time>
      </trkpt>
      <trkpt lat="43.03493" lon="1.79199">
        <ele>314.96911621094</ele>
        <time>2013-02-10T11:34:22Z</time>
      </trkpt>
      <trkpt lat="43.03489" lon="1.79202">
        <ele>314.96911621094</ele>
        <time>2013-02-10T11:34:26Z</time>
      </trkpt>
      <trkpt lat="43.0348" lon="1.79211">
        <ele>317.85302734375</ele>
        <time>2013-02-10T11:34:32Z</time>
      </trkpt>
      <trkpt lat="43.03469" lon="1.79216">
        <ele>320.73706054688</ele>
        <time>2013-02-10T11:34:37Z</time>
      </trkpt>
      <trkpt lat="43.03464" lon="1.79218">
        <ele>321.69836425781</ele>
        <time>2013-02-10T11:34:39Z</time>
      </trkpt>
      <trkpt lat="43.03452" lon="1.79222">
        <ele>321.2177734375</ele>
        <time>2013-02-10T11:34:44Z</time>
      </trkpt>
      <trkpt lat="43.03441" lon="1.79227">
        <ele>319.77563476562</ele>
        <time>2013-02-10T11:34:49Z</time>
      </trkpt>
      <trkpt lat="43.0343" lon="1.79228">
        <ele>317.85302734375</ele>
        <time>2013-02-10T11:34:54Z</time>
      </trkpt>
      <trkpt lat="43.03417" lon="1.79225">
        <ele>316.89172363281</ele>
        <time>2013-02-10T11:35:00Z</time>
      </trkpt>
      <trkpt lat="43.03415" lon="1.79225">
        <ele>316.89172363281</ele>
        <time>2013-02-10T11:35:01Z</time>
      </trkpt>
      <trkpt lat="43.03405" lon="1.79225">
        <ele>316.41101074219</ele>
        <time>2013-02-10T11:35:07Z</time>
      </trkpt>
      <trkpt lat="43.034" lon="1.79226">
        <ele>317.37243652344</ele>
        <time>2013-02-10T11:35:11Z</time>
      </trkpt>
      <trkpt lat="43.03395" lon="1.79226">
        <ele>315.93041992188</ele>
        <time>2013-02-10T11:35:15Z</time>
      </trkpt>
      <trkpt lat="43.03386" lon="1.79228">
        <ele>315.44982910156</ele>
        <time>2013-02-10T11:35:21Z</time>
      </trkpt>
      <trkpt lat="43.03384" lon="1.79228">
        <ele>315.93041992188</ele>
        <time>2013-02-10T11:35:22Z</time>
      </trkpt>
      <trkpt lat="43.03373" lon="1.79233">
        <ele>320.25634765625</ele>
        <time>2013-02-10T11:35:28Z</time>
      </trkpt>
      <trkpt lat="43.03362" lon="1.79234">
        <ele>323.62097167969</ele>
        <time>2013-02-10T11:35:33Z</time>
      </trkpt>
      <trkpt lat="43.03349" lon="1.79237">
        <ele>324.58227539062</ele>
        <time>2013-02-10T11:35:39Z</time>
      </trkpt>
      <trkpt lat="43.03337" lon="1.79239">
        <ele>325.06298828125</ele>
        <time>2013-02-10T11:35:43Z</time>
      </trkpt>
      <trkpt lat="43.03323" lon="1.79238">
        <ele>324.58227539062</ele>
        <time>2013-02-10T11:35:48Z</time>
      </trkpt>
      <trkpt lat="43.0331" lon="1.79236">
        <ele>325.06298828125</ele>
        <time>2013-02-10T11:35:53Z</time>
      </trkpt>
      <trkpt lat="43.03299" lon="1.79237">
        <ele>325.06298828125</ele>
        <time>2013-02-10T11:35:57Z</time>
      </trkpt>
      <trkpt lat="43.03282" lon="1.79242">
        <ele>325.06298828125</ele>
        <time>2013-02-10T11:36:03Z</time>
      </trkpt>
      <trkpt lat="43.03275" lon="1.79246">
        <ele>325.06298828125</ele>
        <time>2013-02-10T11:36:06Z</time>
      </trkpt>
      <trkpt lat="43.03264" lon="1.7925">
        <ele>325.54357910156</ele>
        <time>2013-02-10T11:36:10Z</time>
      </trkpt>
      <trkpt lat="43.03247" lon="1.79259">
        <ele>324.58227539062</ele>
        <time>2013-02-10T11:36:17Z</time>
      </trkpt>
      <trkpt lat="43.03233" lon="1.79267">
        <ele>324.58227539062</ele>
        <time>2013-02-10T11:36:23Z</time>
      </trkpt>
      <trkpt lat="43.03226" lon="1.79271">
        <ele>324.1015625</ele>
        <time>2013-02-10T11:36:28Z</time>
      </trkpt>
      <trkpt lat="43.03219" lon="1.79276">
        <ele>324.58227539062</ele>
        <time>2013-02-10T11:36:32Z</time>
      </trkpt>
      <trkpt lat="43.03208" lon="1.79283">
        <ele>325.06298828125</ele>
        <time>2013-02-10T11:36:37Z</time>
      </trkpt>
      <trkpt lat="43.03197" lon="1.79291">
        <ele>325.06298828125</ele>
        <time>2013-02-10T11:36:42Z</time>
      </trkpt>
      <trkpt lat="43.03184" lon="1.79301">
        <ele>325.54357910156</ele>
        <time>2013-02-10T11:36:48Z</time>
      </trkpt>
      <trkpt lat="43.03175" lon="1.79309">
        <ele>326.02416992188</ele>
        <time>2013-02-10T11:36:52Z</time>
      </trkpt>
      <trkpt lat="43.03166" lon="1.79315">
        <ele>326.02416992188</ele>
        <time>2013-02-10T11:36:56Z</time>
      </trkpt>
      <trkpt lat="43.03152" lon="1.79323">
        <ele>326.98559570312</ele>
        <time>2013-02-10T11:37:02Z</time>
      </trkpt>
      <trkpt lat="43.03142" lon="1.79331">
        <ele>327.94677734375</ele>
        <time>2013-02-10T11:37:07Z</time>
      </trkpt>
      <trkpt lat="43.03135" lon="1.79337">
        <ele>327.46618652344</ele>
        <time>2013-02-10T11:37:11Z</time>
      </trkpt>
      <trkpt lat="43.03128" lon="1.79344">
        <ele>326.98559570312</ele>
        <time>2013-02-10T11:37:17Z</time>
      </trkpt>
      <trkpt lat="43.03116" lon="1.79355">
        <ele>326.5048828125</ele>
        <time>2013-02-10T11:37:27Z</time>
      </trkpt>
      <trkpt lat="43.03106" lon="1.79367">
        <ele>326.98559570312</ele>
        <time>2013-02-10T11:37:36Z</time>
      </trkpt>
      <trkpt lat="43.03105" lon="1.79368">
        <ele>326.98559570312</ele>
        <time>2013-02-10T11:37:37Z</time>
      </trkpt>
      <trkpt lat="43.03101" lon="1.79372">
        <ele>326.5048828125</ele>
        <time>2013-02-10T11:37:41Z</time>
      </trkpt>
      <trkpt lat="43.03091" lon="1.7938">
        <ele>326.98559570312</ele>
        <time>2013-02-10T11:37:46Z</time>
      </trkpt>
      <trkpt lat="43.0308" lon="1.79389">
        <ele>326.98559570312</ele>
        <time>2013-02-10T11:37:51Z</time>
      </trkpt>
      <trkpt lat="43.0307" lon="1.79399">
        <ele>328.42761230469</ele>
        <time>2013-02-10T11:37:56Z</time>
      </trkpt>
      <trkpt lat="43.03061" lon="1.79409">
        <ele>328.42761230469</ele>
        <time>2013-02-10T11:38:01Z</time>
      </trkpt>
      <trkpt lat="43.0305" lon="1.79421">
        <ele>328.42761230469</ele>
        <time>2013-02-10T11:38:06Z</time>
      </trkpt>
      <trkpt lat="43.0304" lon="1.79433">
        <ele>327.46618652344</ele>
        <time>2013-02-10T11:38:11Z</time>
      </trkpt>
      <trkpt lat="43.03029" lon="1.79447">
        <ele>326.98559570312</ele>
        <time>2013-02-10T11:38:17Z</time>
      </trkpt>
      <trkpt lat="43.03022" lon="1.79456">
        <ele>326.5048828125</ele>
        <time>2013-02-10T11:38:21Z</time>
      </trkpt>
      <trkpt lat="43.03012" lon="1.79471">
        <ele>326.02416992188</ele>
        <time>2013-02-10T11:38:27Z</time>
      </trkpt>
      <trkpt lat="43.03004" lon="1.79483">
        <ele>326.5048828125</ele>
        <time>2013-02-10T11:38:32Z</time>
      </trkpt>
      <trkpt lat="43.02997" lon="1.79492">
        <ele>326.5048828125</ele>
        <time>2013-02-10T11:38:36Z</time>
      </trkpt>
      <trkpt lat="43.02989" lon="1.79503">
        <ele>325.54357910156</ele>
        <time>2013-02-10T11:38:41Z</time>
      </trkpt>
      <trkpt lat="43.02979" lon="1.79516">
        <ele>324.58227539062</ele>
        <time>2013-02-10T11:38:47Z</time>
      </trkpt>
      <trkpt lat="43.02972" lon="1.79525">
        <ele>324.58227539062</ele>
        <time>2013-02-10T11:38:51Z</time>
      </trkpt>
      <trkpt lat="43.02964" lon="1.79537">
        <ele>325.54357910156</ele>
        <time>2013-02-10T11:38:56Z</time>
      </trkpt>
      <trkpt lat="43.02951" lon="1.79555">
        <ele>326.02416992188</ele>
        <time>2013-02-10T11:39:04Z</time>
      </trkpt>
      <trkpt lat="43.02948" lon="1.7956">
        <ele>326.02416992188</ele>
        <time>2013-02-10T11:39:06Z</time>
      </trkpt>
      <trkpt lat="43.02938" lon="1.79574">
        <ele>325.06298828125</ele>
        <time>2013-02-10T11:39:12Z</time>
      </trkpt>
      <trkpt lat="43.02928" lon="1.79588">
        <ele>325.06298828125</ele>
        <time>2013-02-10T11:39:18Z</time>
      </trkpt>
      <trkpt lat="43.02921" lon="1.79596">
        <ele>324.58227539062</ele>
        <time>2013-02-10T11:39:22Z</time>
      </trkpt>
      <trkpt lat="43.02911" lon="1.79608">
        <ele>324.58227539062</ele>
        <time>2013-02-10T11:39:27Z</time>
      </trkpt>
      <trkpt lat="43.02904" lon="1.79618">
        <ele>325.06298828125</ele>
        <time>2013-02-10T11:39:31Z</time>
      </trkpt>
      <trkpt lat="43.02891" lon="1.79633">
        <ele>325.54357910156</ele>
        <time>2013-02-10T11:39:38Z</time>
      </trkpt>
      <trkpt lat="43.02879" lon="1.79642">
        <ele>326.98559570312</ele>
        <time>2013-02-10T11:39:44Z</time>
      </trkpt>
      <trkpt lat="43.02867" lon="1.79645">
        <ele>328.42761230469</ele>
        <time>2013-02-10T11:39:49Z</time>
      </trkpt>
      <trkpt lat="43.02856" lon="1.79644">
        <ele>328.90832519531</ele>
        <time>2013-02-10T11:39:54Z</time>
      </trkpt>
      <trkpt lat="43.02851" lon="1.79643">
        <ele>328.90832519531</ele>
        <time>2013-02-10T11:39:58Z</time>
      </trkpt>
      <trkpt lat="43.02843" lon="1.79639">
        <ele>327.46618652344</ele>
        <time>2013-02-10T11:40:05Z</time>
      </trkpt>
      <trkpt lat="43.02839" lon="1.79636">
        <ele>326.98559570312</ele>
        <time>2013-02-10T11:40:10Z</time>
      </trkpt>
      <trkpt lat="43.02829" lon="1.79629">
        <ele>328.42761230469</ele>
        <time>2013-02-10T11:40:18Z</time>
      </trkpt>
      <trkpt lat="43.02819" lon="1.79623">
        <ele>329.38891601562</ele>
        <time>2013-02-10T11:40:25Z</time>
      </trkpt>
      <trkpt lat="43.02812" lon="1.79618">
        <ele>329.86950683594</ele>
        <time>2013-02-10T11:40:31Z</time>
      </trkpt>
      <trkpt lat="43.02802" lon="1.79611">
        <ele>329.86950683594</ele>
        <time>2013-02-10T11:40:40Z</time>
      </trkpt>
      <trkpt lat="43.02794" lon="1.79613">
        <ele>330.35021972656</ele>
        <time>2013-02-10T11:40:46Z</time>
      </trkpt>
      <trkpt lat="43.02785" lon="1.79622">
        <ele>332.27282714844</ele>
        <time>2013-02-10T11:40:52Z</time>
      </trkpt>
      <trkpt lat="43.02779" lon="1.79637">
        <ele>332.27282714844</ele>
        <time>2013-02-10T11:40:56Z</time>
      </trkpt>
      <trkpt lat="43.02775" lon="1.79657">
        <ele>332.27282714844</ele>
        <time>2013-02-10T11:41:01Z</time>
      </trkpt>
      <trkpt lat="43.02773" lon="1.79679">
        <ele>332.27282714844</ele>
        <time>2013-02-10T11:41:07Z</time>
      </trkpt>
      <trkpt lat="43.02769" lon="1.79695">
        <ele>332.75354003906</ele>
        <time>2013-02-10T11:41:12Z</time>
      </trkpt>
      <trkpt lat="43.02768" lon="1.79716">
        <ele>331.3115234375</ele>
        <time>2013-02-10T11:41:17Z</time>
      </trkpt>
      <trkpt lat="43.02765" lon="1.7973">
        <ele>331.79211425781</ele>
        <time>2013-02-10T11:41:21Z</time>
      </trkpt>
      <trkpt lat="43.02765" lon="1.79739">
        <ele>331.79211425781</ele>
        <time>2013-02-10T11:41:24Z</time>
      </trkpt>
      <trkpt lat="43.02763" lon="1.79755">
        <ele>332.75354003906</ele>
        <time>2013-02-10T11:41:29Z</time>
      </trkpt>
      <trkpt lat="43.02761" lon="1.79767">
        <ele>332.75354003906</ele>
        <time>2013-02-10T11:41:33Z</time>
      </trkpt>
      <trkpt lat="43.02757" lon="1.79778">
        <ele>332.27282714844</ele>
        <time>2013-02-10T11:41:37Z</time>
      </trkpt>
      <trkpt lat="43.02757" lon="1.79793">
        <ele>332.27282714844</ele>
        <time>2013-02-10T11:41:42Z</time>
      </trkpt>
      <trkpt lat="43.02755" lon="1.79806">
        <ele>333.23413085938</ele>
        <time>2013-02-10T11:41:46Z</time>
      </trkpt>
      <trkpt lat="43.02755" lon="1.7981">
        <ele>333.71472167969</ele>
        <time>2013-02-10T11:41:47Z</time>
      </trkpt>
      <trkpt lat="43.02755" lon="1.7983">
        <ele>335.63732910156</ele>
        <time>2013-02-10T11:41:52Z</time>
      </trkpt>
      <trkpt lat="43.02757" lon="1.79846">
        <ele>335.15673828125</ele>
        <time>2013-02-10T11:41:57Z</time>
      </trkpt>
      <trkpt lat="43.02757" lon="1.79863">
        <ele>336.1181640625</ele>
        <time>2013-02-10T11:42:03Z</time>
      </trkpt>
      <trkpt lat="43.02756" lon="1.79871">
        <ele>336.59887695312</ele>
        <time>2013-02-10T11:42:05Z</time>
      </trkpt>
      <trkpt lat="43.0275" lon="1.79888">
        <ele>337.56005859375</ele>
        <time>2013-02-10T11:42:10Z</time>
      </trkpt>
      <trkpt lat="43.0275" lon="1.79892">
        <ele>337.56005859375</ele>
        <time>2013-02-10T11:42:11Z</time>
      </trkpt>
      <trkpt lat="43.0275" lon="1.79912">
        <ele>337.07946777344</ele>
        <time>2013-02-10T11:42:17Z</time>
      </trkpt>
      <trkpt lat="43.02749" lon="1.7993">
        <ele>337.56005859375</ele>
        <time>2013-02-10T11:42:23Z</time>
      </trkpt>
      <trkpt lat="43.0275" lon="1.79944">
        <ele>339.00207519531</ele>
        <time>2013-02-10T11:42:28Z</time>
      </trkpt>
      <trkpt lat="43.0275" lon="1.79962">
        <ele>339.96337890625</ele>
        <time>2013-02-10T11:42:33Z</time>
      </trkpt>
      <trkpt lat="43.02749" lon="1.79983">
        <ele>340.44409179688</ele>
        <time>2013-02-10T11:42:39Z</time>
      </trkpt>
      <trkpt lat="43.02747" lon="1.80006">
        <ele>341.4052734375</ele>
        <time>2013-02-10T11:42:46Z</time>
      </trkpt>
      <trkpt lat="43.02745" lon="1.80008">
        <ele>341.4052734375</ele>
        <time>2013-02-10T11:42:47Z</time>
      </trkpt>
      <trkpt lat="43.02736" lon="1.80007">
        <ele>340.44409179688</ele>
        <time>2013-02-10T11:42:51Z</time>
      </trkpt>
      <trkpt lat="43.02726" lon="1.80001">
        <ele>338.521484375</ele>
        <time>2013-02-10T11:42:56Z</time>
      </trkpt>
      <trkpt lat="43.02723" lon="1.80001">
        <ele>338.521484375</ele>
        <time>2013-02-10T11:42:57Z</time>
      </trkpt>
      <trkpt lat="43.02703" lon="1.79999">
        <ele>343.32788085938</ele>
        <time>2013-02-10T11:43:04Z</time>
      </trkpt>
      <trkpt lat="43.02689" lon="1.80001">
        <ele>345.25061035156</ele>
        <time>2013-02-10T11:43:10Z</time>
      </trkpt>
      <trkpt lat="43.0268" lon="1.8">
        <ele>344.28942871094</ele>
        <time>2013-02-10T11:43:14Z</time>
      </trkpt>
      <trkpt lat="43.02673" lon="1.8">
        <ele>343.32788085938</ele>
        <time>2013-02-10T11:43:17Z</time>
      </trkpt>
      <trkpt lat="43.02665" lon="1.8">
        <ele>343.80859375</ele>
        <time>2013-02-10T11:43:21Z</time>
      </trkpt>
      <trkpt lat="43.02656" lon="1.79996">
        <ele>342.36669921875</ele>
        <time>2013-02-10T11:43:26Z</time>
      </trkpt>
      <trkpt lat="43.0265" lon="1.79995">
        <ele>342.84729003906</ele>
        <time>2013-02-10T11:43:29Z</time>
      </trkpt>
      <trkpt lat="43.02634" lon="1.79997">
        <ele>342.84729003906</ele>
        <time>2013-02-10T11:43:35Z</time>
      </trkpt>
      <trkpt lat="43.02623" lon="1.79996">
        <ele>341.4052734375</ele>
        <time>2013-02-10T11:43:40Z</time>
      </trkpt>
      <trkpt lat="43.0262" lon="1.79996">
        <ele>341.4052734375</ele>
        <time>2013-02-10T11:43:41Z</time>
      </trkpt>
      <trkpt lat="43.02607" lon="1.79995">
        <ele>339.48266601562</ele>
        <time>2013-02-10T11:43:47Z</time>
      </trkpt>
      <trkpt lat="43.02591" lon="1.79995">
        <ele>338.04077148438</ele>
        <time>2013-02-10T11:43:54Z</time>
      </trkpt>
      <trkpt lat="43.02586" lon="1.79995">
        <ele>337.56005859375</ele>
        <time>2013-02-10T11:43:56Z</time>
      </trkpt>
      <trkpt lat="43.02581" lon="1.79982">
        <ele>337.07946777344</ele>
        <time>2013-02-10T11:44:01Z</time>
      </trkpt>
      <trkpt lat="43.02578" lon="1.7997">
        <ele>336.59887695312</ele>
        <time>2013-02-10T11:44:05Z</time>
      </trkpt>
    </trkseg>
  </trk>
</gpx>